[[{"header":{"parameterUnit":"m.s-1","parameterCategory":1,"la1":30.6,"la2":29.2853,"lo1":-89.7004,"lo2":-87.6739,"dy":0.0162,"dx":0.0183,"nx":112,"ny":82,"refTime":"2026-05-04T00:00:00:Z","depth":0,"parameterNumber":2,"parameterNumberName":"U-component_of_WINDS"},"data":[0.0,0.0,0.0,0.0,0.0,0.0,0.0,0.0,0.0,0.0,0.0,0.0,0.0,0.0,0.0,0.0,0.0,0.0,0.0,0.0,0.0,0.0,0.0,0.0,0.0,0.0,0.0,0.0,0.0,0.0,0.0,0.0,0.0,0.0,0.0,0.0,0.0,0.0,0.0,0.0,0.0,0.0,0.0,0.0,0.0,0.0,0.0,0.0,0.0,0.0,0.0,0.0,0.0,0.0,0.0,0.0,0.0,0.0,0.0,0.0,0.0,0.0,0.0,0.0,0.0,0.0,0.0,0.0,0.0,0.0,0.0,0.0,0.0,0.0,0.0,0.0,0.0,0.0,0.0,0.0,0.0,0.0,0.0,0.0,0.0,0.0,0.0,0.0,0.0,0.0,1.5896,1.5878,1.5544,1.5376,1.5386,1.665,1.8474,2.0937,0.0,0.0,0.0,0.0,0.0,0.0,0.0,0.0,0.0,0.0,0.0,0.0,0.0,0.0,0.0,0.0,0.0,0.0,0.0,0.0,0.0,0.0,0.0,0.0,0.0,0.0,0.0,0.0,0.0,0.0,0.0,0.0,0.0,0.0,0.0,0.0,0.0,0.0,0.0,0.0,0.0,0.0,0.0,0.0,0.0,0.0,0.0,0.0,0.0,0.0,0.0,0.0,0.0,0.0,0.0,0.0,0.0,0.0,0.0,0.0,0.0,0.0,0.0,0.0,0.0,0.0,0.0,0.0,0.0,0.0,0.0,0.0,0.0,0.0,0.0,0.0,0.0,0.0,0.0,0.0,0.0,0.0,0.0,0.0,0.0,0.0,0.0,0.0,0.0,0.0,0.0,0.0,0.0,0.0,0.0,0.0,0.0,0.0,0.0,0.0,0.0,0.0,0.0,0.0,1.4709,1.4011,1.3287,1.2921,1.3106,1.3128,1.4644,1.8182,0.0,0.0,0.0,0.0,0.0,0.0,0.0,0.0,0.0,0.0,0.0,0.0,0.0,0.0,0.0,0.0,0.0,0.0,0.0,0.0,0.0,0.0,0.0,0.0,0.0,0.0,0.0,0.0,0.0,0.0,0.0,0.0,0.0,0.0,0.0,0.0,0.0,0.0,0.0,0.0,0.0,0.0,0.0,0.0,0.0,0.0,0.0,0.0,0.0,0.0,0.0,0.0,0.0,0.0,0.0,0.0,0.0,0.0,0.0,0.0,0.0,0.0,0.0,0.0,0.0,0.0,0.0,0.0,0.0,0.0,0.0,0.0,0.0,0.0,0.0,0.0,0.0,0.0,0.0,0.0,0.0,0.0,0.0,0.0,0.0,0.0,0.0,0.0,0.0,0.0,0.0,0.0,0.0,0.0,0.0,0.0,0.0,0.0,0.0,0.0,0.0,0.0,0.0,1.4487,1.3767,1.2952,1.2342,1.1885,1.1663,1.1415,1.2616,1.5753,1.896,0.0,0.0,0.0,0.0,0.0,0.0,0.0,0.0,0.0,0.0,0.0,0.0,0.0,0.0,0.0,0.0,0.0,0.0,0.0,0.0,0.0,0.0,0.0,0.0,0.0,0.0,0.0,0.0,0.0,0.0,0.0,0.0,0.0,0.0,0.0,0.0,0.0,0.0,0.0,0.0,0.0,0.0,0.0,0.0,0.0,0.0,0.0,0.0,0.0,0.0,0.0,0.0,0.0,0.0,0.0,0.0,0.0,0.0,0.0,0.0,0.0,0.0,0.0,0.0,0.0,0.0,0.0,0.0,0.0,0.0,0.0,0.0,0.0,0.0,0.0,0.0,0.0,0.0,0.0,0.0,0.0,0.0,0.0,0.0,0.0,0.0,0.0,0.0,0.0,0.0,0.0,0.0,0.0,0.0,0.0,0.0,0.0,0.0,0.0,0.0,0.0,0.0,1.3244,1.2783,1.2083,1.1552,1.1031,1.047,1.0083,1.0885,1.3222,1.4631,0.0,0.0,0.0,0.0,0.0,0.0,0.0,0.0,0.0,0.0,0.0,0.0,0.0,0.0,0.0,0.0,0.0,0.0,0.0,0.0,0.0,0.0,0.0,0.0,0.0,0.0,0.0,0.0,0.0,0.0,0.0,0.0,0.0,0.0,0.0,0.0,0.0,0.0,0.0,0.0,0.0,0.0,0.0,0.0,0.0,0.0,0.0,0.0,0.0,0.0,0.0,0.0,0.0,0.0,0.0,0.0,0.0,0.0,0.0,0.0,0.0,0.0,0.0,0.0,0.0,0.0,0.0,0.0,0.0,0.0,0.0,0.0,0.0,0.0,0.0,0.0,0.0,0.0,0.0,0.0,0.0,0.0,0.0,0.0,0.0,0.0,0.0,0.0,0.0,0.0,0.0,0.0,0.0,0.0,0.0,0.0,0.0,0.0,0.0,0.0,0.0,0.0,1.2291,1.1663,1.1229,1.0481,0.9879,0.9453,0.8542,0.8675,1.0289,1.1148,0.0,0.0,0.0,0.0,0.0,0.0,0.0,0.0,0.0,0.0,0.0,0.0,0.0,0.0,0.0,0.0,0.0,0.0,0.0,0.0,0.0,0.0,0.0,0.0,0.0,0.0,0.0,0.0,0.0,0.0,0.0,0.0,0.0,0.0,0.0,0.0,0.0,0.0,0.0,0.0,0.0,0.0,0.0,0.0,0.0,0.0,0.0,0.0,0.0,0.0,0.0,0.0,0.0,0.0,0.0,0.0,0.0,0.0,0.0,0.0,0.0,0.0,0.0,0.0,0.0,0.0,0.0,0.0,0.0,0.0,0.0,0.0,0.0,0.0,0.0,0.0,0.0,0.0,0.0,0.0,0.0,0.0,0.0,0.0,0.0,0.0,0.0,0.0,0.0,0.0,0.0,0.0,0.0,0.0,0.0,0.0,0.0,0.0,0.0,0.0,0.0,0.0,1.1477,1.0893,1.0218,0.969,0.9074,0.8428,0.7557,0.7537,0.8672,0.0,0.0,0.0,0.0,0.0,0.0,0.0,0.0,0.0,0.0,0.0,0.0,0.0,0.0,0.0,0.0,0.0,0.0,0.0,0.0,0.0,0.0,0.0,0.0,0.0,0.0,0.0,0.0,0.0,0.0,0.0,0.0,0.0,0.0,0.0,0.0,0.0,0.0,0.0,0.0,0.0,0.0,0.0,0.0,0.0,0.0,0.0,0.0,0.0,0.0,0.0,0.0,0.0,0.0,0.0,0.0,0.0,0.0,0.0,0.0,0.0,0.0,0.0,0.0,0.0,0.0,0.0,0.0,0.0,0.0,0.0,0.0,0.0,0.0,0.0,0.0,0.0,0.0,0.0,0.0,0.0,0.0,0.0,0.0,0.0,0.0,0.0,0.0,0.0,0.0,0.0,0.0,0.0,0.0,0.0,0.0,0.0,0.0,0.0,0.0,0.0,0.0,1.1117,1.0545,0.9992,0.9273,0.8694,0.8046,0.7357,0.6468,0.6315,0.713,0.0,0.0,0.0,0.0,0.0,0.0,0.0,0.0,0.0,0.0,0.0,0.0,0.0,0.0,0.0,0.0,0.0,0.0,0.0,0.0,0.0,0.0,0.0,0.0,0.0,0.0,0.0,0.0,0.0,0.0,0.0,0.0,0.0,0.0,0.0,0.0,0.0,0.0,0.0,0.0,0.0,0.0,0.0,0.0,0.0,0.0,0.0,0.0,0.0,0.0,0.0,0.0,0.0,0.0,0.0,0.0,0.0,0.0,0.0,0.0,0.0,0.0,0.0,0.0,0.0,0.0,0.0,0.0,0.0,0.0,0.0,0.0,0.0,0.0,0.0,0.0,0.0,0.0,0.0,0.0,0.0,0.0,0.0,0.0,0.0,0.0,0.0,0.0,0.0,0.0,0.0,0.0,0.0,0.0,0.0,0.0,0.0,0.0,0.0,0.0,0.0,0.0,1.0255,0.949,0.8846,0.8437,0.748,0.671,0.624,0.5191,0.4891,0.0,0.0,0.0,0.0,0.0,0.0,0.0,0.0,0.0,0.0,0.0,0.0,0.0,0.0,0.0,0.0,0.0,0.0,0.0,0.0,0.0,0.0,0.0,0.0,0.0,0.0,0.0,0.0,0.0,0.0,0.0,0.0,0.0,0.0,0.0,0.0,0.0,0.0,0.0,0.0,0.0,0.0,0.0,0.0,0.0,0.0,0.0,0.0,0.0,0.0,0.0,0.0,0.0,0.0,0.0,0.0,0.0,0.0,0.0,0.0,0.0,0.0,0.0,0.0,0.0,0.0,0.0,0.0,0.0,0.0,0.0,0.0,0.0,0.0,0.0,0.0,0.0,0.0,0.0,0.0,0.0,0.0,0.0,0.0,0.0,0.0,0.0,0.0,0.0,0.0,0.0,0.0,0.0,0.0,0.0,0.0,0.0,0.0,0.0,0.0,0.0,0.0,0.0,0.9025,0.8722,0.8322,0.7642,0.6865,0.6125,0.5428,0.4513,0.4119,0.4489,0.0,0.0,0.0,0.0,0.0,0.0,0.0,0.0,0.0,0.0,0.0,0.0,0.0,0.0,0.0,0.0,0.0,0.0,0.0,0.0,0.0,0.0,0.0,0.0,0.0,0.0,0.0,0.0,0.0,0.0,0.0,0.0,0.0,0.0,0.0,0.0,0.0,0.0,0.0,0.0,0.0,0.0,0.0,0.0,0.0,0.0,0.0,0.0,0.0,0.0,0.0,0.0,0.0,0.0,0.0,0.0,0.0,0.0,0.0,0.0,0.0,0.0,0.0,0.0,0.0,0.0,0.0,0.0,0.0,0.0,0.0,0.0,0.0,0.0,0.0,0.0,0.0,0.0,0.0,0.0,0.0,0.0,0.0,0.0,0.0,0.0,0.0,0.0,0.0,0.0,0.0,0.0,0.0,0.0,0.0,0.0,0.0,0.0,0.0,0.0,0.0,0.0,0.8051,0.7857,0.7518,0.6756,0.5977,0.5196,0.4419,0.3453,0.3073,0.3495,0.0,0.0,0.0,0.0,0.0,0.0,0.0,0.0,0.0,0.0,0.0,0.0,0.0,0.0,0.0,0.0,0.0,0.0,0.0,0.0,0.0,0.0,0.0,0.0,0.0,0.0,0.0,0.0,0.0,0.0,0.0,0.0,0.0,0.0,0.0,0.0,0.0,0.0,0.0,0.0,0.0,0.0,0.0,0.0,0.0,0.0,0.0,0.0,0.0,0.0,0.0,0.0,0.0,0.0,0.0,0.0,0.0,0.0,0.0,0.0,0.0,0.0,0.0,0.0,0.0,0.0,0.0,0.0,0.0,0.0,0.0,0.0,0.0,0.0,0.0,0.0,0.0,0.0,0.0,0.0,0.0,0.0,0.0,0.0,0.0,0.0,0.0,0.0,0.0,0.0,0.0,0.0,0.0,0.0,0.0,0.0,0.0,0.0,0.0,0.0,0.0,0.0,0.7286,0.7018,0.6633,0.5977,0.5046,0.419,0.3526,0.2444,0.2119,0.2769,0.0,0.0,0.0,0.0,0.0,0.0,0.0,0.0,0.0,0.0,0.0,0.0,0.0,0.0,0.0,0.0,0.0,0.0,0.0,0.0,0.0,0.0,0.0,0.0,0.0,0.0,0.0,0.0,0.0,0.0,0.0,0.0,0.0,0.0,0.0,0.0,0.0,0.0,0.0,0.0,0.0,0.0,0.0,0.0,0.0,0.0,0.0,0.0,0.0,0.0,0.0,0.0,0.0,0.0,0.0,0.0,0.0,0.0,0.0,0.0,-0.607,-0.5627,0.0,0.0,0.0,0.0,0.0,0.0,0.0,0.0,0.0,0.0,0.0,0.0,0.0,0.0,0.0,0.0,0.0,0.0,0.0,0.0,0.0,0.0,0.0,0.0,0.0,0.0,0.0,0.0,0.0,0.0,0.0,0.0,0.0,0.0,0.0,0.0,0.0,0.0,0.0,0.0,0.668,0.6761,0.6633,0.5977,0.5279,0.4618,0.3999,0.3206,0.2756,0.2881,0.3229,0.0,0.0,0.0,0.0,0.0,0.0,0.0,0.0,0.0,0.0,0.0,0.0,0.0,0.0,0.0,0.0,0.0,0.0,0.0,0.0,0.0,0.0,0.0,0.0,0.0,0.0,0.0,0.0,0.0,0.0,0.0,0.0,0.0,0.0,0.0,0.0,0.0,0.0,0.0,0.0,0.0,0.0,0.0,0.0,0.0,0.0,0.0,0.0,0.0,0.0,0.0,0.0,0.0,0.0,0.0,0.0,0.0,0.0,0.0,-0.6198,-0.584,0.0,0.0,0.0,0.0,0.0,0.0,0.0,0.0,0.0,0.0,0.0,0.0,0.0,0.0,0.0,0.0,0.0,0.0,0.0,0.0,0.0,0.0,0.0,0.0,0.0,0.0,0.0,0.0,0.0,0.0,0.0,0.0,0.0,0.0,0.0,0.0,0.0,0.0,0.0,0.0,0.6158,0.6401,0.6409,0.5828,0.5318,0.4813,0.4272,0.3675,0.325,0.306,0.3016,0.0,0.0,0.0,0.0,0.0,0.0,0.0,0.0,0.0,0.0,0.0,0.0,0.0,0.0,0.0,0.0,0.0,0.0,0.0,0.0,0.0,0.0,0.0,0.0,0.0,0.0,0.0,0.0,0.0,0.0,0.0,0.0,0.0,0.0,0.0,0.0,0.0,0.0,0.0,0.0,0.0,0.0,0.0,0.0,0.0,0.0,0.0,0.0,0.0,0.0,0.0,0.0,0.0,-0.6008,-0.6135,-0.6266,-0.6862,-0.6977,-0.6692,-0.6476,-0.6325,-0.6252,-0.6014,0.0,0.0,0.0,0.0,0.0,0.0,0.0,0.0,0.0,0.0,0.0,0.0,0.0,0.0,0.0,0.0,0.0,0.0,0.0,0.0,0.0,0.0,-0.0547,-0.0383,-0.019,0.0038,0.0272,0.0,0.0,0.0,0.0,0.0,0.0,0.0,0.0,0.0,0.0,0.0,0.5752,0.6009,0.6028,0.5595,0.5201,0.4851,0.4501,0.407,0.368,0.3297,0.2906,0.2484,0.0,0.0,0.0,0.0,0.0,0.0,0.0,0.0,0.0,0.0,0.0,0.0,0.0,0.0,0.0,0.0,0.0,0.0,0.0,0.0,0.0,0.0,0.0,0.0,0.0,0.0,0.0,0.0,0.0,0.0,0.0,0.0,0.2014,0.1437,0.0,0.0,0.0,0.0,0.0,0.0,0.0,0.0,0.0,0.0,0.0,0.0,0.0,-0.6078,-0.5735,-0.5491,-0.5462,-0.5572,-0.5583,-0.5768,-0.6166,-0.6624,-0.6845,-0.6781,-0.6737,0.0,-0.6085,-0.5644,0.0,0.0,0.0,0.0,0.0,0.0,0.0,0.0,0.0,0.0,0.0,0.0,0.0,0.0,0.0,0.0,0.0,0.0,0.0,0.0,0.0,0.0,-0.0589,-0.0548,-0.0274,0.0039,0.0267,0.0786,0.1362,0.1695,0.2315,0.2965,0.0,0.0,0.0,0.0,0.0,0.0,0.5445,0.5581,0.5595,0.5362,0.5124,0.489,0.4696,0.4448,0.4126,0.3651,0.3186,0.2605,0.1781,0.1319,0.0,0.0,0.0,0.0,0.0,0.0,0.0,0.0,0.0,0.0,0.0,0.0,0.0,0.0,0.0,0.0,0.0,0.0,0.0,0.0,0.0,0.0,0.0,0.0,0.0,0.0,0.0,0.0,0.0,0.2157,0.1566,0.1395,0.1163,0.0812,0.0,0.0,0.0,0.0,0.0,0.0,0.0,0.0,0.0,-0.594,-0.5653,-0.5385,-0.5167,-0.4832,-0.4712,-0.4814,-0.4814,-0.5014,-0.5329,-0.5813,-0.608,-0.6213,-0.6479,-0.6411,-0.6091,-0.5637,-0.5437,-0.5513,0.0,0.0,0.0,0.0,-0.5057,-0.4433,-0.375,-0.3299,-0.2936,-0.2488,0.0,0.0,0.0,0.0,0.0,0.0,0.0,-0.1133,-0.1265,-0.1021,-0.0786,-0.0786,-0.055,-0.0235,0.0077,0.0421,0.0871,0.1532,0.2228,0.2888,0.3302,0.381,0.0,0.0,0.0,0.5432,0.5395,0.5516,0.5556,0.5479,0.5401,0.5285,0.5207,0.5129,0.4766,0.4082,0.3438,0.2642,0.1723,0.1012,0.0551,0.0,0.0,0.0,0.0,0.0,0.0,0.0,0.0,0.0,0.0,0.0,0.0,0.0,0.0,0.0,0.0,0.0,0.0,0.0,0.0,0.0,0.0,0.0,0.0,0.0,0.0,0.0,0.0,0.1616,0.1404,0.1368,0.1338,0.1151,0.0,0.0,0.0,0.0,0.0,0.0,-0.5288,-0.5583,-0.5633,-0.5409,-0.5115,-0.4874,-0.4681,-0.438,-0.4238,-0.43,-0.43,-0.4389,-0.4616,-0.5102,-0.5369,-0.5542,-0.603,-0.6074,-0.5808,-0.5588,-0.5356,-0.519,-0.578,-0.554,-0.49,-0.4829,-0.433,-0.3632,-0.2904,-0.2431,-0.2157,-0.2,-0.1767,-0.1492,-0.1335,0.0,0.0,0.0,0.0,-0.1286,-0.1303,-0.11,-0.0904,-0.0904,-0.0746,-0.051,-0.0234,0.0,0.0427,0.1342,0.2108,0.2719,0.3167,0.3643,0.0,0.4588,0.4995,0.5257,0.5292,0.5381,0.5446,0.5446,0.5446,0.5446,0.5446,0.5446,0.5129,0.4384,0.3545,0.2715,0.1879,0.0903,0.0356,0.0318,0.0,0.0,0.0,0.0,0.0,0.0,0.0,0.0,0.0,0.0,0.0,0.0,0.0,0.0,0.0,0.0,0.0,0.0,0.0,0.0,0.0,0.0,0.0,0.0,0.0,0.0,0.0,0.0,0.0,0.1317,0.1373,0.0,0.0,0.0,0.0,-0.1978,-0.3703,-0.4708,-0.475,-0.5121,-0.5168,-0.4851,-0.4808,-0.4642,-0.4336,-0.4291,-0.4295,-0.43,-0.43,-0.43,-0.4344,-0.4786,-0.5008,-0.5053,-0.5542,-0.5497,-0.5053,-0.5319,-0.5341,-0.5201,-0.5147,-0.4822,-0.4301,-0.3838,-0.3241,-0.2548,-0.1702,-0.1375,-0.1375,-0.1335,-0.1335,-0.1296,-0.1296,-0.1298,0.0,0.0,-0.1299,-0.1299,-0.1296,-0.11,-0.0904,-0.0904,-0.0746,-0.0585,-0.0572,-0.0417,0.0038,0.1093,0.1644,0.2172,0.2885,0.0,0.3843,0.4405,0.4678,0.4876,0.4991,0.5012,0.5018,0.5018,0.5018,0.5018,0.5018,0.5018,0.4857,0.4414,0.3597,0.2825,0.2191,0.1169,0.0485,0.0291,-0.0071,0.0,0.0,0.0,0.0,0.0,0.0,0.0,0.0,0.0,0.0,0.0,0.0,0.0,0.0,0.0,0.0,0.0,0.0,0.0,0.0,0.0,0.0,0.0,0.0,0.0,0.0,0.0,0.0,0.1363,0.1396,0.0,0.0732,-0.0601,-0.163,-0.2104,-0.3563,-0.4424,-0.4424,-0.4594,-0.4612,-0.4471,-0.4475,-0.44,-0.43,-0.43,-0.43,-0.43,-0.43,-0.43,-0.43,-0.4478,-0.4563,-0.4567,-0.4741,-0.4696,-0.4567,-0.4656,-0.4679,-0.4647,-0.4912,-0.4585,-0.3945,-0.3821,-0.3318,-0.2569,-0.1823,-0.1568,-0.1523,-0.1343,-0.1296,-0.1296,-0.1296,-0.1296,-0.1296,-0.1296,-0.1296,-0.1296,-0.1296,-0.1218,-0.1139,-0.1139,-0.11,-0.1019,-0.0816,-0.0737,-0.0505,0.0157,0.0956,0.1689,0.2191,0.3099,0.3835,0.4198,0.464,0.493,0.5012,0.5018,0.5018,0.5018,0.5018,0.5018,0.5018,0.5018,0.4818,0.4423,0.3873,0.3196,0.2438,0.1549,0.0803,0.0299,-0.0111,-0.0471,0.0,0.0,0.0,0.0,0.0,0.0,0.0,0.0,0.0,0.0,0.0,0.0,0.0,0.0,0.0,0.0,0.0,0.0,0.0,0.0,0.0,0.0,0.0,0.0,0.0,0.1391,0.1391,0.1391,0.1418,0.123,0.0748,-0.0483,-0.1404,-0.1888,-0.3111,-0.3849,-0.3942,-0.4032,-0.4076,-0.4166,-0.4255,-0.43,-0.43,-0.43,-0.43,-0.43,-0.43,-0.43,-0.43,-0.43,-0.43,-0.43,-0.43,-0.43,-0.43,-0.43,-0.43,-0.4344,-0.4652,-0.4395,-0.3816,-0.3783,-0.3313,-0.2627,-0.1934,-0.1661,-0.1525,-0.1343,-0.1303,-0.131,-0.13,-0.1305,-0.131,-0.1299,-0.1296,-0.1296,-0.1296,-0.1296,-0.1296,-0.1296,-0.1289,-0.1206,-0.1058,-0.0976,-0.0815,-0.0543,0.0227,0.1004,0.1487,0.2506,0.3351,0.3628,0.419,0.4623,0.4706,0.474,0.4818,0.4896,0.4979,0.5018,0.5018,0.5018,0.4818,0.4423,0.4029,0.3444,0.263,0.1844,0.1129,0.0499,-0.0076,-0.0664,-0.1156,0.0,0.0,0.0,0.0,0.0,0.0,0.0,0.0,0.0,0.0,0.0,0.0,0.0,0.0,0.0,0.0,0.0,0.0,0.0,0.0,0.0,0.0,0.0,0.1391,0.1391,0.1391,0.1391,0.1391,0.1211,0.0762,-0.0134,-0.0852,-0.1346,-0.2285,-0.2956,-0.3138,-0.3406,-0.3678,-0.3857,-0.4166,-0.43,-0.43,-0.43,-0.43,-0.43,-0.43,-0.43,-0.43,-0.43,-0.43,-0.43,-0.43,-0.43,-0.43,-0.43,-0.43,-0.43,-0.43,-0.4121,-0.3849,-0.3591,-0.3216,-0.2677,-0.1946,-0.1525,-0.1296,-0.1296,-0.1317,-0.1295,-0.1306,-0.1317,-0.1295,-0.1305,-0.1296,-0.1296,-0.1296,-0.1296,-0.1296,-0.1296,-0.1235,-0.1221,-0.1291,-0.108,-0.091,-0.091,-0.0455,0.0153,0.0742,0.1575,0.2289,0.2699,0.3335,0.0,0.4042,0.4233,0.4467,0.4662,0.4857,0.5018,0.5018,0.5018,0.4818,0.4423,0.4034,0.353,0.2865,0.2042,0.1414,0.0904,-0.0077,-0.0813,-0.1299,0.0,0.0,0.0,0.0,0.0,0.0,0.0,0.0,0.0,0.0,0.0,0.0,0.0,0.0,0.0,0.0,0.0,0.0,0.0,0.0,0.0,0.2591,0.1839,0.1436,0.1391,0.1391,0.1391,0.1391,0.1301,0.1031,0.0269,-0.0314,-0.0672,-0.1388,-0.1925,-0.2193,-0.2777,-0.3183,-0.3406,-0.3987,-0.43,-0.43,-0.43,-0.43,-0.43,-0.43,-0.43,-0.43,-0.43,-0.43,-0.43,-0.43,-0.43,-0.43,-0.43,-0.43,-0.43,-0.43,-0.4121,-0.3901,-0.3831,-0.3228,-0.2457,-0.2093,-0.1707,-0.1296,-0.1296,-0.1302,-0.1307,-0.1299,-0.1303,-0.1307,-0.1299,-0.1296,-0.1296,-0.1296,-0.1296,-0.1296,-0.1296,-0.1291,-0.1286,-0.1295,-0.125,-0.1206,-0.1206,-0.105,-0.0737,-0.0077,0.0721,0.1379,0.1678,0.2372,0.2933,0.3134,0.3614,0.4029,0.4233,0.4701,0.5018,0.5018,0.5018,0.4896,0.4623,0.4384,0.3956,0.3331,0.2627,0.1846,0.0904,0.023,-0.0376,0.0,0.0,0.0,0.0,0.0,0.0,0.0,0.0,0.0,0.0,0.0,0.0,0.0,0.0,0.0,0.0,0.0,0.0,0.0,0.0,0.0,0.0,0.3075,0.2294,0.1816,0.1534,0.1391,0.1391,0.1391,0.1301,0.1122,0.0628,0.0179,-0.0045,-0.0542,-0.0949,-0.13,-0.1943,-0.2442,-0.278,-0.3406,-0.3715,-0.3715,-0.3715,-0.376,-0.3853,-0.3942,-0.4032,-0.4121,-0.4255,-0.43,-0.43,-0.43,-0.43,-0.43,-0.43,-0.43,-0.43,0.0,0.0,0.0,0.0,-0.3247,-0.2515,-0.2217,-0.1741,-0.1316,-0.1316,-0.1307,-0.1296,-0.1296,-0.1296,-0.1296,-0.1296,-0.1296,-0.1296,-0.1296,-0.1296,-0.1296,-0.1296,-0.1286,-0.1281,-0.1293,-0.1286,-0.1281,-0.1293,-0.1218,0.0,-0.0617,0.0039,0.0632,0.0943,0.1565,0.2092,0.2397,0.3039,0.3614,0.3925,0.4584,0.5018,0.5018,0.5018,0.0,0.0,0.0,0.3917,0.3096,0.2549,0.0,0.0,0.0,0.0,0.0,0.0,0.0,0.0,-0.4156,-0.4862,0.0,0.0,0.0,0.0,0.0,0.0,0.0,0.0,0.0,0.0,0.0,0.0,0.0,0.0,0.0,0.0,0.3469,0.2726,0.2271,0.1734,0.1396,0.1396,0.1396,0.1351,0.117,0.0945,0.0721,0.0542,0.0322,0.0,-0.0452,-0.0963,0.0,0.0,0.0,-0.2732,-0.2732,-0.2732,-0.2822,-0.3045,-0.3361,-0.3633,-0.3812,-0.4166,-0.43,-0.43,-0.43,-0.43,-0.43,-0.43,-0.43,-0.43,-0.4255,-0.4255,-0.421,-0.3719,-0.3228,-0.269,-0.2259,0.0,0.0,-0.1307,-0.1287,-0.1302,-0.1302,-0.1299,-0.1296,-0.1296,-0.1296,-0.1296,-0.1296,-0.1296,-0.1296,-0.1296,-0.1236,-0.1224,-0.1291,-0.1236,-0.1226,-0.1291,-0.1102,-0.0947,-0.0907,-0.0401,0.0082,0.0462,0.0885,0.1298,0.1725,0.2537,0.3241,0.3722,0.4545,0.0,0.5056,0.5045,0.4839,0.4443,0.416,0.353,0.2549,0.2157,0.1883,0.1689,0.1257,0.0777,0.0266,-0.0341,-0.1237,-0.2349,-0.3531,-0.4287,0.0,0.0,0.0,0.0,0.0,0.0,0.0,0.0,0.0,0.0,0.0,0.0,0.0,0.0,0.0,0.415,0.3436,0.2831,0.237,0.1817,0.1472,0.1472,0.1472,0.1472,0.1426,0.138,0.1343,0.1271,0.123,0.1089,0.0848,0.014,-0.0415,-0.0644,-0.1355,-0.17,-0.17,-0.17,-0.1836,-0.2059,-0.2732,0.0,-0.3361,-0.3987,-0.43,-0.43,-0.43,-0.43,-0.43,-0.43,-0.43,-0.43,-0.408,-0.3991,-0.3901,-0.3451,-0.2964,-0.2519,-0.2215,-0.1752,-0.1297,-0.1297,-0.1318,-0.1294,-0.1294,-0.1317,0.0,-0.1296,-0.1296,-0.1296,-0.1296,-0.1296,-0.1296,-0.1296,-0.1292,-0.1289,-0.1295,-0.1292,-0.1289,-0.1295,-0.1277,-0.1172,-0.093,-0.0527,-0.0205,-0.0126,0.0085,0.0432,0.086,0.2016,0.2974,0.3406,0.46,0.5342,0.5342,0.5208,0.4994,0.4593,0.3766,0.3061,0.251,0.2431,0.2353,0.2314,0.2079,0.1722,0.1324,0.0662,-0.0194,-0.1235,-0.2669,-0.3527,0.0,0.0,0.0,0.0,0.0,0.0,0.0,0.0,0.0,0.0,0.0,0.5808,0.5319,0.0,0.4489,0.3932,0.3358,0.2811,0.2337,0.1797,0.1498,0.1482,0.1467,0.1464,0.1479,0.148,0.1493,0.1524,0.154,0.1446,0.1193,0.0715,0.0331,0.0046,-0.0458,-0.0679,-0.0717,-0.0717,-0.0896,-0.1254,-0.1882,-0.2332,-0.2735,-0.3317,-0.3671,-0.3764,-0.3898,-0.3987,-0.408,-0.408,-0.408,-0.4076,-0.3678,-0.3633,-0.3678,-0.3227,-0.2761,-0.2296,-0.2032,-0.1698,-0.1369,-0.1369,-0.1307,-0.1284,-0.1284,-0.1303,-0.132,-0.132,-0.1309,-0.1296,-0.1296,-0.1296,-0.1296,-0.1296,-0.1296,-0.1296,-0.1296,-0.1296,-0.1296,-0.1296,-0.119,-0.104,-0.092,-0.0646,-0.041,-0.0336,-0.0128,0.0256,0.0927,0.2016,0.2968,0.3598,0.4622,0.5342,0.5407,0.5175,0.4864,0.4461,0.3734,0.3061,0.251,0.251,0.251,0.251,0.2392,0.2157,0.1763,0.1216,0.0471,-0.047,-0.153,-0.2382,0.0,0.0,0.0,0.0,0.0,0.0,0.0,0.6857,0.6638,0.6097,0.5632,0.5131,0.466,0.4265,0.3871,0.3559,0.3141,0.2716,0.2194,0.1759,0.151,0.1491,0.1468,0.1466,0.1495,0.1504,0.1521,0.1558,0.1583,0.1535,0.1311,0.1128,0.0923,0.0656,0.042,0.0277,0.0272,0.0272,0.0091,-0.0318,-0.0862,-0.1362,-0.1862,-0.2359,-0.2721,-0.2947,-0.3345,-0.3692,-0.3991,-0.3901,-0.3857,-0.3812,-0.3317,-0.3227,-0.3272,-0.2959,-0.2511,-0.211,-0.1884,-0.1641,-0.1399,-0.1399,-0.1337,-0.1229,-0.1229,-0.121,-0.1189,-0.123,-0.1253,-0.1234,-0.1307,-0.1306,-0.1305,-0.1298,-0.1296,-0.1296,-0.1296,-0.1296,-0.1296,-0.1296,-0.11,-0.0904,-0.0904,-0.0719,-0.0489,-0.0292,0.0,0.046,0.1311,0.2368,0.3265,0.3924,0.4757,0.5377,0.5602,0.5295,0.489,0.4461,0.3889,0.3253,0.251,0.251,0.251,0.251,0.251,0.2314,0.1959,0.161,0.0982,0.0157,-0.0393,-0.1295,0.6805,0.6614,0.6545,0.6559,0.6627,0.6646,0.0,0.6336,0.6097,0.5461,0.4854,0.4304,0.391,0.3458,0.3041,0.2761,0.2523,0.2286,0.1956,0.169,0.1494,0.1517,0.147,0.1528,0.1558,0.1585,0.1625,0.168,0.1688,0.1677,0.1648,0.1574,0.1497,0.1465,0.1391,0.1329,0.1327,0.1327,0.1232,0.0995,0.0284,-0.0237,-0.0521,-0.1182,-0.1608,-0.1937,-0.2831,-0.3646,-0.4255,-0.3991,-0.3812,-0.3588,-0.3138,-0.269,-0.2379,-0.2513,-0.2242,-0.1839,-0.1794,-0.1612,-0.1385,-0.1385,-0.1235,-0.1041,-0.1041,-0.0854,-0.0713,-0.0965,-0.1047,-0.1082,-0.1264,-0.1298,-0.1291,-0.1303,-0.1296,-0.1296,-0.1296,-0.1296,-0.1296,-0.1296,-0.11,-0.0904,-0.0904,-0.0591,-0.0278,-0.0081,0.0457,0.1049,0.1759,0.2968,0.3885,0.4222,0.4977,0.5726,0.6422,0.596,0.5418,0.495,0.4205,0.337,0.2549,0.251,0.251,0.251,0.251,0.2392,0.2157,0.1924,0.1492,0.0786,0.0354,-0.0589,0.6532,0.6525,0.6607,0.6607,0.6654,0.6639,0.6353,0.5949,0.5409,0.4745,0.4006,0.3347,0.2896,0.2476,0.2163,0.2039,0.1958,0.1874,0.1727,0.165,0.1545,0.1576,0.1579,0.1584,0.1596,0.1625,0.166,0.1701,0.1704,0.1699,0.1688,0.1659,0.1629,0.1599,0.1568,0.1543,0.1478,0.1478,0.1383,0.1192,0.0715,0.0381,0.0095,-0.0143,-0.0619,-0.1331,-0.2075,-0.2808,-0.3529,-0.3066,-0.288,-0.2741,-0.2416,-0.2047,-0.1809,-0.2037,-0.1884,-0.157,-0.157,-0.148,-0.1391,-0.1256,-0.0981,-0.062,-0.0487,-0.0131,0.0171,-0.0129,-0.0382,-0.063,-0.0833,-0.111,-0.1299,-0.1287,-0.131,-0.1296,-0.1296,-0.1296,-0.1257,-0.11,-0.0786,-0.0471,-0.0236,0.0275,0.0787,0.1232,0.1284,0.1614,0.2503,0.3425,0.4196,0.4647,0.5239,0.5911,0.6649,0.6317,0.5959,0.57,0.4952,0.4112,0.3292,0.3253,0.3253,0.3253,0.3136,0.2979,0.2708,0.2395,0.2,0.1452,0.0785,-0.0118,0.6416,0.6518,0.6647,0.6688,0.6702,0.6604,0.6287,0.5699,0.5038,0.4335,0.349,0.2731,0.2294,0.1862,0.159,0.1584,0.1595,0.1607,0.1615,0.1598,0.1595,0.1625,0.1636,0.1644,0.1652,0.1674,0.1752,0.1727,0.1729,0.1726,0.1718,0.175,0.1721,0.163,0.1609,0.1581,0.1551,0.1551,0.1454,0.1309,0.1115,0.0969,0.0824,0.0872,0.0386,-0.0479,-0.096,-0.1579,-0.2286,-0.1808,-0.1618,-0.1523,-0.1334,-0.124,-0.1188,-0.143,-0.146,-0.1413,-0.1451,-0.1448,-0.1401,-0.1169,-0.0717,-0.0224,0.0045,0.0532,0.0876,0.0569,0.013,-0.0299,-0.0553,-0.0965,-0.1325,-0.1317,-0.1251,-0.123,-0.123,-0.1144,-0.1021,-0.0707,-0.0314,0.0078,0.051,0.1097,0.1724,0.2275,0.2272,0.2507,0.3288,0.3899,0.4468,0.4895,0.5356,0.5995,0.682,0.6685,0.6569,0.6564,0.5845,0.504,0.4151,0.4112,0.4112,0.4112,0.3912,0.3604,0.3178,0.2823,0.2392,0.1883,0.1139,0.0314,0.6511,0.6511,0.6552,0.6661,0.6702,0.6577,0.6121,0.5699,0.5178,0.4347,0.3451,0.2696,0.2375,0.1884,0.1547,0.1606,0.1591,0.1583,0.1613,0.1615,0.1626,0.171,0.1685,0.1714,0.1797,0.1801,0.1815,0.179,0.1793,0.1779,0.1805,0.1802,0.1774,0.1715,0.1712,0.1645,0.1614,0.1614,0.1614,0.1564,0.1564,0.1715,0.1967,0.1964,0.1545,0.0832,0.0539,0.0048,-0.0571,-0.0333,-0.0095,0.0143,0.0048,-0.0095,-0.0381,-0.0619,-0.1047,-0.1519,-0.149,-0.1479,-0.1474,-0.1174,-0.0628,0.0045,0.0314,0.0852,0.13,0.0806,0.0358,-0.0134,-0.0567,-0.1041,-0.1381,-0.1311,-0.1157,-0.1016,-0.1016,-0.0798,-0.0511,-0.0118,0.0314,0.0706,0.1176,0.1763,0.2314,0.2708,0.3331,0.38,0.4029,0.4475,0.4787,0.4789,0.5206,0.5941,0.6977,0.721,0.7317,0.7447,0.6903,0.6073,0.5007,0.4963,0.4963,0.4963,0.4768,0.4263,0.3409,0.3171,0.2666,0.1887,0.1453,0.0706,0.6538,0.6546,0.6614,0.6559,0.6552,0.6471,0.6019,0.5508,0.493,0.42,0.3332,0.2583,0.2294,0.1872,0.1562,0.1583,0.1611,0.1701,0.175,0.1688,0.1693,0.1745,0.1741,0.1801,0.1776,0.1779,0.1783,0.1794,0.1795,0.179,0.178,0.1815,0.1785,0.1692,0.1725,0.1648,0.1617,0.1768,0.1869,0.1869,0.207,0.2271,0.2523,0.2372,0.2011,0.1598,0.1348,0.0896,0.0395,0.0643,0.0791,0.0841,0.0841,0.0545,0.0149,-0.0149,-0.0595,-0.1085,-0.1385,-0.1497,-0.1433,-0.101,-0.0272,0.0538,0.0941,0.1705,0.2289,0.1839,0.1122,0.0358,-0.0133,-0.0834,-0.1344,-0.1164,-0.0837,-0.0531,-0.0331,0.0,0.0403,0.0902,0.1478,0.2012,0.2422,0.2958,0.3491,0.393,0.417,0.4449,0.4803,0.4971,0.5077,0.5066,0.5703,0.6424,0.7305,0.751,0.7666,0.79,0.7215,0.6489,0.5815,0.5777,0.5777,0.5777,0.5467,0.504,0.4457,0.3995,0.3413,0.2669,0.2157,0.1333,0.658,0.6586,0.6593,0.6538,0.647,0.6357,0.6,0.5607,0.5108,0.4367,0.3495,0.2776,0.2409,0.1922,0.1631,0.1614,0.1712,0.1769,0.1774,0.1765,0.1767,0.1806,0.1794,0.1786,0.1794,0.1795,0.1795,0.1795,0.1795,0.1795,0.1795,0.1776,0.1807,0.1722,0.1756,0.1783,0.1803,0.1944,0.2084,0.2122,0.2423,0.2624,0.2775,0.2725,0.2574,0.2421,0.2269,0.1967,0.1663,0.1866,0.1917,0.1917,0.1816,0.1463,0.0959,0.0656,0.0253,-0.0304,-0.1025,-0.1243,-0.1179,-0.079,-0.0046,0.077,0.1259,0.2018,0.2693,0.2289,0.148,0.0583,0.0134,-0.0622,-0.1187,-0.0879,-0.0428,0.0,0.0466,0.0835,0.128,0.1842,0.2351,0.2854,0.3235,0.3654,0.4112,0.4558,0.4673,0.4863,0.5276,0.5326,0.5346,0.5513,0.6116,0.6827,0.7533,0.7808,0.8006,0.8189,0.766,0.7118,0.6672,0.6665,0.6665,0.6665,0.6356,0.5931,0.5428,0.489,0.419,0.3331,0.2784,0.1959,0.6715,0.66,0.6525,0.6511,0.6409,0.6229,0.599,0.5942,0.5676,0.4809,0.3976,0.3232,0.268,0.2032,0.16,0.1688,0.173,0.1772,0.1775,0.1783,0.1783,0.1783,0.1782,0.1827,0.1798,0.1795,0.1795,0.1795,0.1795,0.1795,0.1795,0.1795,0.178,0.1805,0.1804,0.1952,0.2185,0.2148,0.2264,0.2479,0.2732,0.2833,0.2833,0.3088,0.3187,0.3184,0.3184,0.3184,0.3181,0.3181,0.3181,0.3181,0.2927,0.2471,0.1967,0.1715,0.1326,0.0773,-0.0299,-0.0689,-0.0685,-0.0424,0.0139,0.0786,0.1268,0.1889,0.2428,0.22,0.1436,0.0583,0.0134,-0.0538,-0.0941,-0.0493,0.0044,0.0651,0.1305,0.1668,0.2064,0.2737,0.3031,0.3286,0.3668,0.3924,0.4181,0.4634,0.4851,0.5091,0.5464,0.5513,0.5686,0.6101,0.6555,0.7129,0.779,0.8123,0.8337,0.8411,0.8216,0.7911,0.7526,0.748,0.748,0.748,0.7296,0.6865,0.624,0.5815,0.5002,0.383,0.3366,0.2585,0.6829,0.6756,0.6614,0.6538,0.6484,0.6417,0.6377,0.6411,0.6268,0.5437,0.4402,0.3389,0.2677,0.1871,0.1345,0.1402,0.1627,0.1797,0.1778,0.1783,0.1783,0.1783,0.182,0.1804,0.1795,0.1795,0.1795,0.1795,0.1795,0.1795,0.1795,0.1795,0.178,0.1805,0.1969,0.2115,0.2185,0.2598,0.2904,0.3155,0.3208,0.326,0.326,0.3313,0.3341,0.3297,0.3297,0.3221,0.3181,0.3181,0.3181,0.3181,0.3128,0.2775,0.2269,0.2219,0.1888,0.1449,0.118,0.0818,0.0562,0.0556,0.0692,0.0914,0.1181,0.158,0.1876,0.1668,0.1166,0.0628,0.0359,-0.0134,-0.0448,0.009,0.0794,0.1527,0.2082,0.2667,0.316,0.3561,0.3835,0.4054,0.4186,0.4425,0.467,0.4946,0.525,0.5444,0.5486,0.5758,0.6133,0.6555,0.718,0.7753,0.8281,0.8424,0.8506,0.8411,0.8063,0.7754,0.7488,0.748,0.748,0.748,0.7296,0.7026,0.671,0.6131,0.5279,0.4224,0.38,0.3005,0.7011,0.6916,0.6824,0.6586,0.6566,0.6552,0.6371,0.6394,0.6232,0.5362,0.428,0.3295,0.2648,0.1839,0.1308,0.1463,0.1636,0.181,0.1854,0.1861,0.1861,0.1861,0.1846,0.1824,0.1797,0.1795,0.1795,0.1795,0.1795,0.1795,0.1795,0.1795,0.1843,0.1992,0.2101,0.2304,0.2588,0.3017,0.3275,0.3412,0.3412,0.3412,0.3412,0.3412,0.3392,0.3362,0.3362,0.3341,0.3311,0.3311,0.3311,0.3308,0.323,0.3066,0.2806,0.2782,0.2617,0.2466,0.2466,0.2331,0.2032,0.1463,0.1175,0.1151,0.1622,0.1821,0.1919,0.2009,0.1613,0.1138,0.0965,0.0549,0.0318,0.0999,0.1609,0.2252,0.295,0.3421,0.3714,0.3849,0.4125,0.4312,0.4443,0.4634,0.494,0.5288,0.5522,0.5706,0.5936,0.6103,0.6473,0.7173,0.7797,0.8332,0.8815,0.882,0.8666,0.8363,0.8057,0.7821,0.7724,0.7715,0.7715,0.7715,0.7597,0.7478,0.7398,0.6842,0.5965,0.4839,0.4397,0.3498,0.7227,0.7125,0.7004,0.6661,0.6647,0.6612,0.62,0.6122,0.5875,0.4923,0.3886,0.299,0.2553,0.1817,0.1376,0.1589,0.1755,0.1814,0.1872,0.1883,0.1884,0.188,0.188,0.1857,0.1801,0.1795,0.1795,0.1851,0.1851,0.1851,0.1851,0.1908,0.202,0.23,0.23,0.2618,0.3184,0.34,0.3485,0.3436,0.3436,0.3436,0.3436,0.3436,0.3431,0.3422,0.3422,0.342,0.3412,0.3412,0.3412,0.3406,0.3354,0.3327,0.3316,0.3219,0.3322,0.3414,0.3473,0.3551,0.345,0.2341,0.1726,0.1561,0.23,0.2429,0.2367,0.2794,0.2496,0.2065,0.1912,0.1467,0.1304,0.2136,0.2511,0.2877,0.3723,0.3901,0.3901,0.3857,0.4076,0.4287,0.448,0.4732,0.5092,0.5711,0.5815,0.6005,0.6508,0.6539,0.6872,0.7782,0.838,0.8865,0.9262,0.9164,0.8845,0.8335,0.8138,0.804,0.8016,0.8016,0.8024,0.8048,0.8048,0.8065,0.8089,0.7658,0.6764,0.5507,0.4991,0.4072,0.7536,0.7287,0.7078,0.6997,0.691,0.675,0.6306,0.5985,0.5515,0.4585,0.3438,0.2494,0.2035,0.1555,0.1255,0.1374,0.159,0.1808,0.1843,0.187,0.1876,0.1851,0.1791,0.1834,0.1798,0.1795,0.1908,0.2132,0.2132,0.2132,0.2132,0.2412,0.2692,0.2914,0.297,0.3134,0.3517,0.3572,0.3567,0.3556,0.3556,0.3556,0.3556,0.3556,0.3529,0.3482,0.3482,0.3455,0.3412,0.3412,0.3412,0.3412,0.3401,0.3365,0.3327,0.3365,0.3395,0.342,0.3736,0.3859,0.3807,0.3105,0.2522,0.2214,0.2547,0.2756,0.2954,0.3271,0.344,0.3474,0.3241,0.2902,0.2656,0.2901,0.3219,0.3572,0.3826,0.3901,0.3857,0.3678,0.3812,0.4131,0.4567,0.502,0.5479,0.6123,0.6381,0.6582,0.6809,0.6982,0.7369,0.82,0.8909,0.9332,0.9288,0.9411,0.9174,0.8351,0.826,0.817,0.8016,0.8016,0.8089,0.8235,0.8243,0.8316,0.8514,0.7889,0.7091,0.6148,0.5367,0.4446,0.7753,0.7604,0.7455,0.7299,0.721,0.6959,0.6317,0.5725,0.5053,0.4121,0.2959,0.2089,0.1893,0.1503,0.1246,0.1461,0.1679,0.1782,0.1812,0.1857,0.188,0.1866,0.1864,0.1851,0.1821,0.1918,0.2076,0.2188,0.2468,0.258,0.2468,0.2748,0.297,0.3082,0.325,0.3418,0.3589,0.3589,0.3589,0.3589,0.3589,0.3589,0.3589,0.3589,0.3572,0.3545,0.3545,0.3529,0.3504,0.3504,0.3504,0.3501,0.3469,0.3439,0.3412,0.3412,0.3412,0.347,0.3764,0.3959,0.4102,0.4024,0.3542,0.3042,0.351,0.3648,0.3727,0.4047,0.4357,0.4453,0.4188,0.3888,0.3726,0.3844,0.4047,0.4269,0.4413,0.435,0.4212,0.3981,0.412,0.4394,0.4858,0.522,0.564,0.624,0.6602,0.6929,0.7398,0.7821,0.8175,0.8588,0.9091,0.9418,0.942,0.9499,0.9328,0.8759,0.8714,0.8674,0.8584,0.8576,0.8617,0.8706,0.8714,0.8755,0.8844,0.8387,0.7803,0.6988,0.6272,0.5274,0.7977,0.7862,0.7753,0.7522,0.7467,0.7158,0.6278,0.5429,0.4563,0.363,0.2511,0.1727,0.1798,0.1498,0.1336,0.1651,0.1759,0.1805,0.178,0.1843,0.1883,0.1877,0.1881,0.1874,0.1901,0.2096,0.2244,0.2356,0.2914,0.3138,0.2917,0.3082,0.3194,0.3194,0.3474,0.3589,0.3589,0.3589,0.3589,0.3589,0.3589,0.3589,0.3589,0.3589,0.3589,0.3589,0.3589,0.3589,0.3589,0.3589,0.3589,0.3583,0.3548,0.3526,0.3512,0.348,0.3461,0.3503,0.3823,0.4092,0.4317,0.4756,0.4478,0.4071,0.4585,0.4724,0.4744,0.5083,0.538,0.5497,0.5198,0.4937,0.4706,0.4807,0.4876,0.4926,0.5065,0.4853,0.4616,0.4332,0.4522,0.4788,0.5125,0.5435,0.5767,0.6321,0.6692,0.7179,0.7941,0.8497,0.8892,0.9005,0.9382,0.9606,0.9506,0.9585,0.9489,0.9135,0.9096,0.9096,0.9096,0.9096,0.9112,0.9153,0.9153,0.9169,0.921,0.8926,0.8464,0.7818,0.7112,0.6036,0.8286,0.8024,0.7801,0.778,0.757,0.7138,0.6162,0.512,0.4113,0.3179,0.2151,0.1453,0.1515,0.148,0.1511,0.17,0.1688,0.1719,0.1804,0.1829,0.1876,0.179,0.1869,0.1992,0.2246,0.221,0.2412,0.297,0.3362,0.353,0.3533,0.353,0.353,0.353,0.3586,0.3589,0.3589,0.3589,0.3589,0.3589,0.3589,0.3589,0.3589,0.3589,0.3589,0.3589,0.3589,0.3589,0.3589,0.3589,0.3589,0.3591,0.3643,0.3627,0.3586,0.3635,0.3619,0.3681,0.4237,0.446,0.4571,0.5142,0.5206,0.5107,0.5575,0.5862,0.6181,0.6473,0.6735,0.694,0.6624,0.6274,0.5959,0.557,0.552,0.5509,0.5398,0.5138,0.4901,0.4715,0.4806,0.5074,0.547,0.5728,0.6007,0.6371,0.6836,0.739,0.7987,0.8617,0.9203,0.9759,1.0339,1.0335,0.955,0.9821,0.9763,0.9151,0.9096,0.9096,0.9096,0.9096,0.9169,0.938,0.938,0.9413,0.9526,0.9171,0.8775,0.8333,0.748,0.6356,0.818,0.8113,0.8015,0.773,0.7408,0.6875,0.5879,0.4758,0.3705,0.2875,0.2028,0.1482,0.1542,0.1553,0.157,0.1626,0.1674,0.1708,0.172,0.1801,0.1854,0.1784,0.2025,0.2201,0.2302,0.2549,0.2914,0.3362,0.353,0.3589,0.3589,0.3589,0.3589,0.3589,0.3589,0.3589,0.3589,0.3589,0.3589,0.3589,0.3589,0.3589,0.3589,0.3589,0.3589,0.3589,0.3589,0.3608,0.3643,0.3643,0.3643,0.3649,0.3709,0.3695,0.3649,0.3711,0.367,0.3645,0.4036,0.4257,0.4409,0.506,0.5494,0.575,0.5793,0.6154,0.6543,0.6659,0.6932,0.7099,0.6771,0.6463,0.622,0.6177,0.5998,0.594,0.5981,0.5804,0.5551,0.5505,0.5556,0.5698,0.5931,0.6027,0.6218,0.6598,0.7086,0.773,0.8505,0.9052,0.9605,1.0084,1.024,1.0086,0.956,0.9751,0.9729,0.9298,0.9356,0.9413,0.9413,0.9413,0.9397,0.9404,0.9404,0.9388,0.9307,0.9244,0.918,0.8965,0.8328,0.7206,0.8174,0.8187,0.8184,0.7629,0.7107,0.6497,0.547,0.432,0.3297,0.2609,0.198,0.151,0.1611,0.1621,0.1581,0.1611,0.1666,0.1704,0.1704,0.1783,0.184,0.1955,0.2128,0.2358,0.253,0.3,0.3362,0.3586,0.3589,0.3589,0.3589,0.3589,0.3589,0.3589,0.3589,0.3589,0.3589,0.3589,0.3589,0.3589,0.3701,0.3701,0.3701,0.383,0.3895,0.3898,0.3915,0.4008,0.405,0.405,0.3992,0.3882,0.3948,0.3886,0.3736,0.3838,0.3741,0.3722,0.399,0.4132,0.4259,0.4919,0.5469,0.5895,0.5802,0.627,0.6826,0.6826,0.7043,0.7154,0.6937,0.6715,0.6579,0.6627,0.6492,0.6408,0.6505,0.6378,0.622,0.622,0.622,0.6248,0.638,0.6417,0.6643,0.702,0.7509,0.8142,0.8878,0.9381,0.9767,1.0131,1.0046,0.9821,0.9552,0.9635,0.9614,0.9314,0.9445,0.9551,0.9551,0.96,0.9567,0.9437,0.9486,0.938,0.925,0.938,0.9453,0.9404,0.8827,0.7689,0.8361,0.832,0.8133,0.7372,0.6694,0.5963,0.4918,0.3755,0.279,0.2279,0.1811,0.1535,0.1566,0.1621,0.1581,0.1611,0.1666,0.1704,0.1704,0.1783,0.1898,0.2243,0.23,0.253,0.316,0.3452,0.3589,0.3589,0.3589,0.3589,0.3589,0.3589,0.3589,0.3589,0.3589,0.3589,0.3589,0.3589,0.3589,0.3589,0.3868,0.398,0.3983,0.4388,0.4593,0.4596,0.4729,0.4764,0.4764,0.4764,0.4588,0.4297,0.4309,0.4156,0.3919,0.3919,0.3919,0.3908,0.4139,0.4132,0.4195,0.4822,0.5164,0.5481,0.5708,0.6432,0.721,0.721,0.721,0.721,0.721,0.721,0.7182,0.7013,0.6986,0.6953,0.6828,0.6801,0.6801,0.6801,0.6801,0.6801,0.6801,0.7006,0.7323,0.7632,0.8157,0.8681,0.916,0.9418,0.9632,0.9775,0.9786,0.9708,0.9524,0.9497,0.9376,0.9104,0.9306,0.9404,0.9404,0.9535,0.9575,0.9575,0.9575,0.9575,0.9575,0.9575,0.9535,0.9404,0.8827,0.7498,0.8153,0.8187,0.8082,0.7178,0.6333,0.5492,0.4438,0.3381,0.247,0.2125,0.1817,0.1566,0.1596,0.177,0.1941,0.1952,0.2174,0.2332,0.2332,0.239,0.2432,0.2545,0.2713,0.2995,0.3447,0.3543,0.3589,0.3589,0.3627,0.3649,0.3649,0.3689,0.3673,0.3591,0.3589,0.3589,0.3589,0.3589,0.3589,0.3589,0.3868,0.4173,0.4502,0.4815,0.5084,0.5369,0.5397,0.5444,0.5439,0.526,0.4962,0.4611,0.444,0.4197,0.3924,0.3907,0.3897,0.3919,0.3956,0.3968,0.3975,0.4321,0.4617,0.49,0.5184,0.5877,0.6604,0.6826,0.6882,0.6937,0.7154,0.7043,0.6871,0.678,0.6664,0.6543,0.6728,0.6717,0.6827,0.7046,0.71,0.7018,0.6942,0.7141,0.7481,0.792,0.8426,0.8976,0.9524,0.9853,1.0021,1.0109,0.9914,0.9614,0.9298,0.9516,0.9502,0.9104,0.9372,0.9543,0.9543,0.96,0.9567,0.9445,0.9437,0.938,0.9267,0.938,0.9388,0.9172,0.7805,0.6658,0.8015,0.8153,0.8031,0.6921,0.5951,0.5038,0.3927,0.2885,0.2077,0.193,0.1771,0.1666,0.1798,0.1976,0.2148,0.2253,0.2471,0.2625,0.2625,0.2666,0.2748,0.2861,0.3082,0.3362,0.3586,0.3608,0.3621,0.3621,0.3679,0.3711,0.3711,0.3749,0.3733,0.3659,0.3632,0.361,0.3589,0.3589,0.3589,0.3589,0.4005,0.4438,0.4883,0.535,0.576,0.6114,0.6149,0.6202,0.0,0.5827,0.5528,0.5172,0.4913,0.4597,0.4264,0.4303,0.4294,0.4258,0.4258,0.4153,0.4038,0.4332,0.4522,0.4688,0.4832,0.5447,0.6158,0.6492,0.6604,0.6771,0.7099,0.6932,0.6659,0.6599,0.6437,0.633,0.6487,0.6604,0.6826,0.7154,0.721,0.7188,0.7117,0.7374,0.778,0.834,0.8862,0.9444,0.9956,1.0147,1.0287,1.0247,1.0021,0.9754,0.9388,0.9438,0.9352,0.9104,0.9364,0.9527,0.9527,0.9592,0.9575,0.9462,0.9453,0.9405,0.9299,0.947,0.9424,0.9078,0.7431,0.6416,0.0,0.8103,0.7909,0.6665,0.5556,0.4479,0.3416,0.2394,0.0,0.1754,0.1767,0.1882,0.2178,0.224,0.2348,0.2615,0.2655,0.2686,0.2686,0.2726,0.2865,0.3087,0.3428,0.36,0.36,0.3708,0.3741,0.3741,0.38,0.3894,0.3894,0.3897,0.3897,0.3894,0.3835,0.3717,0.3594,0.3594,0.3591,0.3589,0.4274,0.4768,0.5184,0.5996,0.6561,0.6875,0.6916,0.6959,0.6959,0.6587,0.628,0.5916,0.5605,0.5237,0.4995,0.4995,0.4995,0.4995,0.4933,0.4703,0.4403,0.464,0.4714,0.4643,0.4566,0.5115,0.5828,0.6154,0.6432,0.6715,0.7043,0.6871,0.6533,0.6306,0.6204,0.6204,0.6255,0.6427,0.6715,0.7043,0.7154,0.7154,0.7154,0.7598,0.8152,0.8754,0.9368,0.9928,1.0369,1.0399,1.0387,1.0269,1.0245,1.0046,0.9713,0.9356,0.9145,0.912,0.9322,0.942,0.942,0.9535,0.9575,0.9575,0.9575,0.9575,0.9575,0.9803,0.9638,0.905,0.7605,0.6596,0.7921,0.0,0.7178,0.6092,0.5114,0.4257,0.0,0.2746,0.231,0.2331,0.2361,0.2386,0.2502,0.2694,0.2882,0.2991,0.3198,0.3344,0.3344,0.3449,0.3486,0.3543,0.3698,0.3728,0.3728,0.3972,0.4153,0.4153,0.4394,0.4554,0.4554,0.4606,0.4613,0.4558,0.4538,0.4236,0.3657,0.3657,0.3632,0.3589,0.4274,0.4911,0.556,0.6323,0.7025,0.7651,0.7678,0.7689,0.7627,0.7322,0.6954,0.6644,0.628,0.5974,0.5663,0.5663,0.5663,0.5602,0.536,0.5039,0.4709,0.4234,0.409,0.4064,0.4001,0.4572,0.5236,0.5558,0.5819,0.6102,0.6437,0.6208,0.5873,0.5604,0.5494,0.5494,0.5549,0.5771,0.6102,0.6442,0.6492,0.6492,0.6492,0.6993,0.7654,0.8484,0.9099,0.9746,1.053,1.0631,1.0615,1.0574,1.0452,1.0339,1.0197,0.9908,0.9583,0.9363,0.9462,0.9559,0.9559,0.9608,0.9575,0.9575,0.9575,0.9575,0.9575,0.9803,0.965,0.922,0.7654,0.6637,0.7909,0.7433,0.6833,0.5975,0.4924,0.3939,0.3406,0.29,0.2502,0.2543,0.2572,0.2648,0.2778,0.2987,0.3192,0.336,0.3576,0.3659,0.3632,0.3657,0.3679,0.3679,0.3733,0.3827,0.3827,0.4086,0.4341,0.4519,0.4888,0.5111,0.5293,0.5334,0.5338,0.5293,0.5293,0.4899,0.4137,0.4168,0.415,0.4082,0.4644,0.5303,0.6004,0.6584,0.7205,0.7872,0.7872,0.7872,0.7872,0.7566,0.7322,0.7077,0.6587,0.628,0.6092,0.5974,0.5912,0.5851,0.5667,0.5298,0.48,0.4093,0.3902,0.3891,0.3828,0.426,0.474,0.5004,0.5272,0.5541,0.579,0.5618,0.5237,0.4978,0.4831,0.4828,0.4903,0.5143,0.5422,0.5753,0.5848,0.5862,0.5872,0.6458,0.7249,0.8066,0.877,0.9566,1.0353,1.0526,1.0574,1.0574,1.0558,1.0517,1.0391,1.0249,1.0022,0.9796,0.9738,0.9746,0.9746,0.9746,0.9786,0.9868,0.9786,0.9786,0.9876,1.0054,0.9871,0.933,0.775,0.6754,0.7986,0.7376,0.6635,0.5936,0.4732,0.3656,0.3448,0.3005,0.2689,0.2717,0.2741,0.2813,0.3129,0.3238,0.3389,0.3679,0.373,0.3752,0.37,0.37,0.3706,0.3706,0.3819,0.3914,0.3914,0.4258,0.4593,0.4958,0.5323,0.5728,0.6031,0.6031,0.6031,0.6031,0.6031,0.5674,0.4919,0.4925,0.4915,0.4768,0.5215,0.5774,0.6381,0.679,0.7327,0.7872,0.7872,0.7872,0.7872,0.7566,0.7444,0.7383,0.6771,0.6526,0.6464,0.6101,0.5916,0.5855,0.5794,0.5364,0.4749,0.4074,0.3889,0.3879,0.3888,0.4053,0.428,0.4522,0.4784,0.5086,0.5229,0.5058,0.4745,0.4399,0.4331,0.4314,0.4381,0.4588,0.4826,0.5111,0.523,0.5262,0.5198,0.5964,0.6816,0.7586,0.8425,0.9233,1.01,1.0326,1.0423,1.0423,1.0607,1.0631,1.0485,1.0477,1.0412,1.0302,1.0046,0.9925,0.9925,0.9925,1.0057,1.0212,1.0006,1.0057,1.0212,1.0347,1.0107,0.9455,0.7853,0.6811,0.8422,0.7364,0.6192,0.5439,0.4514,0.3716,0.3462,0.3388,0.3366,0.3384,0.3427,0.3463,0.353,0.3581,0.3621,0.3679,0.373,0.3824,0.3816,0.386,0.3891,0.3891,0.4125,0.4285,0.4285,0.4845,0.5341,0.5712,0.6031,0.6403,0.6714,0.6775,0.6775,0.6775,0.6775,0.6649,0.6455,0.5932,0.5558,0.5455,0.5924,0.6377,0.6746,0.7155,0.7505,0.7872,0.7872,0.7872,0.7872,0.7872,0.7811,0.7811,0.7383,0.7077,0.6766,0.6464,0.6158,0.5847,0.5233,0.4807,0.4441,0.4013,0.3889,0.3887,0.3879,0.3937,0.3996,0.3985,0.4387,0.476,0.4794,0.4633,0.4421,0.4132,0.4189,0.4252,0.4054,0.426,0.4592,0.4658,0.474,0.4764,0.476,0.5299,0.6048,0.7156,0.78,0.8666,1.0124,1.0311,1.0382,1.0655,1.068,1.068,1.0655,1.0655,1.0639,1.0615,1.0351,1.0171,1.0171,1.0171,1.0188,1.0212,1.0188,1.0188,1.0212,1.0347,1.0107,0.9455,0.7853,0.6811,0.8138,0.7146,0.6032,0.5184,0.4244,0.3506,0.3597,0.36,0.3594,0.3594,0.3616,0.3635,0.3635,0.3687,0.3749,0.3815,0.382,0.3877,0.3877,0.3902,0.3921,0.3921,0.4215,0.4499,0.4681,0.5298,0.5912,0.6403,0.6771,0.7077,0.7444,0.7444,0.7444,0.7444,0.7444,0.7393,0.728,0.7035,0.6686,0.6246,0.651,0.6822,0.713,0.7301,0.7566,0.7872,0.7689,0.7627,0.7627,0.7444,0.7357,0.7403,0.6978,0.668,0.6345,0.5806,0.5483,0.5298,0.4807,0.4499,0.4315,0.4013,0.3889,0.3889,0.3889,0.3889,0.3889,0.3889,0.4093,0.4271,0.4198,0.4135,0.4011,0.383,0.3819,0.3835,0.376,0.3901,0.4042,0.4073,0.4141,0.419,0.4183,0.4651,0.5315,0.6007,0.6903,0.7877,0.9133,0.9622,1.0062,1.0496,1.0639,1.0688,1.0688,1.0688,1.0647,1.0558,1.0404,1.0306,1.0306,1.0217,1.0302,1.0444,1.0355,1.0355,1.0444,1.0534,1.0248,0.965,0.7961,0.6848,0.7781,0.679,0.5759,0.506,0.4073,0.3384,0.3675,0.3711,0.3681,0.3698,0.37,0.37,0.37,0.3749,0.3826,0.3871,0.3971,0.4001,0.4001,0.4062,0.4122,0.4122,0.4407,0.4745,0.5111,0.5667,0.628,0.695,0.7261,0.7566,0.7872,0.7872,0.7872,0.7872,0.7872,0.7828,0.7741,0.7828,0.763,0.6985,0.7089,0.7266,0.7505,0.7505,0.7627,0.7872,0.7566,0.7383,0.7261,0.6898,0.677,0.6723,0.6341,0.5986,0.5596,0.4899,0.4687,0.4626,0.4379,0.4256,0.4256,0.401,0.3889,0.3889,0.3889,0.3889,0.3889,0.3889,0.3889,0.3868,0.3837,0.3801,0.3824,0.3673,0.3605,0.3572,0.3619,0.363,0.3635,0.3649,0.3728,0.3779,0.3747,0.4239,0.475,0.5142,0.6068,0.7154,0.8186,0.8926,0.961,1.0349,1.057,1.0682,1.0696,1.0688,1.0639,1.0501,1.0493,1.0493,1.0493,1.0363,1.0412,1.0688,1.0558,1.0558,1.0688,1.0688,1.0382,0.982,0.8013,0.694,0.761,0.6363,0.5138,0.496,0.4207,0.361,0.367,0.3681,0.3695,0.3752,0.3822,0.3822,0.3822,0.3872,0.3875,0.3879,0.4192,0.437,0.437,0.4616,0.4803,0.4803,0.5111,0.5483,0.5794,0.6158,0.6648,0.7327,0.7388,0.7566,0.7872,0.7872,0.7872,0.7872,0.7872,0.7867,0.7856,0.7867,0.7812,0.7644,0.7757,0.7872,0.7872,0.7872,0.7872,0.7872,0.7566,0.7199,0.6888,0.6587,0.6275,0.6043,0.5725,0.5164,0.4533,0.4159,0.3951,0.3951,0.3951,0.3951,0.3951,0.3889,0.3889,0.3889,0.3889,0.3889,0.3889,0.3889,0.3889,0.3887,0.3879,0.3897,0.391,0.3902,0.3852,0.3752,0.3813,0.3813,0.3833,0.3888,0.3908,0.3869,0.386,0.4128,0.4504,0.5092,0.5671,0.6565,0.7924,0.8539,0.9266,1.0385,1.049,1.0548,1.0704,1.0688,1.0688,1.0672,1.0672,1.0672,1.0672,1.0664,1.0664,1.0688,1.068,1.068,1.0688,1.0688,1.0445,0.9934,0.8061,0.6981,0.7626,0.6743,0.5859,0.5349,0.4683,0.4125,0.3886,0.382,0.3853,0.3877,0.3883,0.3858,0.3782,0.385,0.3913,0.3897,0.4169,0.4499,0.4681,0.4991,0.5298,0.5483,0.579,0.6158,0.6464,0.6832,0.7199,0.7689,0.7689,0.775,0.7872,0.7872,0.7872,0.7872,0.7872,0.7872,0.7872,0.7872,0.785,0.7807,0.785,0.7872,0.7872,0.7872,0.7872,0.7872,0.7327,0.6898,0.6526,0.5974,0.5687,0.5492,0.5114,0.4769,0.447,0.4035,0.3889,0.3889,0.3889,0.3889,0.3889,0.3889,0.3889,0.3889,0.3889,0.3889,0.3889,0.3889,0.3889,0.3889,0.3889,0.3873,0.3907,0.393,0.3902,0.3874,0.3836,0.3858,0.3894,0.3916,0.3891,0.3924,0.3884,0.3993,0.4145,0.4346,0.4913,0.5574,0.6406,0.7359,0.8414,0.9631,1.0406,1.0827,1.0867,1.0761,1.0688,1.0688,1.0688,1.0688,1.0688,1.0688,1.0688,1.0688,1.0688,1.0641,1.0476,1.0476,1.0009,0.9101,0.7692,0.6686,0.7824,0.7158,0.6557,0.5918,0.5306,0.4793,0.4372,0.4028,0.3844,0.3881,0.3889,0.3865,0.3842,0.3955,0.4057,0.4076,0.441,0.4807,0.5176,0.5483,0.5851,0.6158,0.6403,0.6709,0.7016,0.7261,0.7566,0.7872,0.7872,0.7872,0.7872,0.7872,0.7872,0.7872,0.7872,0.7872,0.7872,0.7872,0.7872,0.7872,0.7872,0.7872,0.7872,0.7872,0.7872,0.7872,0.7204,0.6653,0.6219,0.5544,0.5067,0.4798,0.4546,0.4391,0.4281,0.4035,0.3889,0.3889,0.3889,0.3889,0.3889,0.3889,0.3889,0.3889,0.3889,0.3889,0.3889,0.3889,0.3889,0.3889,0.3889,0.3889,0.3879,0.3899,0.3888,0.3877,0.3837,0.3858,0.3888,0.3888,0.3921,0.3889,0.3889,0.3889,0.3876,0.3894,0.437,0.4824,0.5333,0.6414,0.7659,0.9091,1.0278,1.0996,1.0883,1.0827,1.0802,1.0858,1.081,1.0753,1.0696,1.0688,1.072,1.0777,1.0777,1.0699,1.0412,1.0133,0.9483,0.8545,0.7173,0.6145,0.8229,0.7677,0.7018,0.6694,0.6038,0.5394,0.5104,0.4364,0.3804,0.3865,0.3889,0.3889,0.3889,0.4195,0.4376,0.4376,0.4991,0.5544,0.5855,0.6219,0.6526,0.6898,0.6903,0.7021,0.7388,0.7388,0.7566,0.7872,0.7872,0.7872,0.7872,0.7872,0.7872,0.7872,0.7872,0.7872,0.7872,0.7872,0.7872,0.7872,0.7872,0.7872,0.7872,0.7872,0.7872,0.7872,0.7204,0.6526,0.5847,0.5179,0.4543,0.3973,0.3973,0.3973,0.3967,0.3911,0.3889,0.3889,0.3889,0.3889,0.3889,0.3889,0.3889,0.3889,0.3889,0.3889,0.3889,0.3889,0.3889,0.3889,0.3889,0.3889,0.3889,0.3889,0.3889,0.3889,0.3889,0.3889,0.3889,0.3889,0.3889,0.3889,0.3889,0.3889,0.3889,0.3889,0.4195,0.4597,0.5125,0.5916,0.7094,0.8897,1.0251,1.0899,1.0721,1.0899,1.1045,1.1208,1.1062,1.0891,1.0704,1.0696,1.0785,1.0972,1.1028,1.0883,1.0705,0.9773,0.9033,0.8528,0.6547,0.5516,0.9054,0.8716,0.8274,0.7868,0.6935,0.5996,0.5663,0.4707,0.3856,0.3873,0.3919,0.3984,0.3902,0.4163,0.4484,0.468,0.5262,0.5978,0.6526,0.6893,0.7199,0.7566,0.7627,0.7627,0.775,0.775,0.7811,0.7872,0.7872,0.7872,0.7872,0.7872,0.7872,0.7872,0.7872,0.7872,0.7872,0.7872,0.7872,0.7872,0.7872,0.7872,0.7872,0.7627,0.7566,0.7505,0.6832,0.6158,0.5486,0.4614,0.417,0.4098,0.4098,0.4125,0.415,0.3983,0.3946,0.394,0.3903,0.3889,0.3889,0.3889,0.3889,0.3889,0.3889,0.3889,0.3889,0.3889,0.3889,0.3889,0.3889,0.3889,0.3889,0.3889,0.3889,0.3889,0.3889,0.3889,0.3889,0.3889,0.3889,0.3876,0.3894,0.3888,0.3888,0.3888,0.4007,0.4258,0.4889,0.5586,0.663,0.8121,0.93,1.0111,1.0538,1.0902,1.1167,1.1216,1.1175,1.1126,1.107,1.1062,1.098,1.0799,1.0799,1.0306,0.9367,0.8904,0.8037,0.6911,0.5833,0.5097,0.9974,0.9913,0.9608,0.9198,0.795,0.6511,0.5331,0.4479,0.3907,0.3881,0.406,0.421,0.4224,0.4618,0.5005,0.5331,0.5772,0.6403,0.7079,0.7291,0.751,0.7872,0.7872,0.7872,0.7872,0.7872,0.7872,0.7872,0.7872,0.7872,0.7872,0.7872,0.7872,0.7872,0.7872,0.7872,0.7872,0.7872,0.7872,0.7872,0.7798,0.7758,0.7758,0.7516,0.7392,0.7202,0.6275,0.5532,0.4977,0.4244,0.3973,0.409,0.409,0.4128,0.4169,0.4071,0.3973,0.3965,0.3908,0.3889,0.3889,0.3889,0.3889,0.3889,0.3889,0.3889,0.3889,0.3889,0.3889,0.3889,0.3889,0.3889,0.3889,0.3889,0.3889,0.3889,0.3889,0.3889,0.3889,0.3889,0.3889,0.3871,0.3869,0.388,0.3888,0.3924,0.388,0.4151,0.48,0.5602,0.6582,0.775,0.9071,1.0039,1.0584,1.1024,1.1362,1.1435,1.137,1.1362,1.1443,1.1297,1.1083,1.0806,1.0456,0.9776,0.8769,0.7886,0.6911,0.5891,0.5043,0.4523,1.0826,1.1028,1.09,1.0451,0.8961,0.6971,0.452,0.3971,0.4018,0.3889,0.425,0.4633,0.4759,0.5286,0.5865,0.6246,0.6489,0.6867,0.7556,0.7521,0.7566,0.7872,0.7872,0.7872,0.7872,0.7872,0.7872,0.7872,0.7872,0.7872,0.7872,0.7872,0.7872,0.7872,0.7872,0.7872,0.7872,0.7883,0.7888,0.7888,0.764,0.7509,0.7446,0.7446,0.7253,0.6809,0.5489,0.48,0.4482,0.4114,0.3938,0.3989,0.3989,0.4087,0.4134,0.4074,0.3986,0.3973,0.3916,0.3892,0.3889,0.3889,0.3889,0.3889,0.3889,0.3889,0.3889,0.3889,0.3889,0.3889,0.3889,0.3889,0.3889,0.3889,0.3889,0.3889,0.3889,0.3889,0.3889,0.3889,0.3889,0.3871,0.3869,0.3905,0.3924,0.393,0.3913,0.4136,0.481,0.5728,0.6771,0.7811,0.9329,1.0422,1.0793,1.1256,1.1598,1.1768,1.1622,1.1598,1.1768,1.1451,1.1179,1.0984,1.0028,0.9313,0.8714,0.6823,0.5724,0.536,0.4379,0.3892,1.0826,1.1028,1.0932,1.0544,0.8935,0.6948,0.5012,0.4739,0.4689,0.4021,0.4287,0.4753,0.5023,0.5668,0.631,0.6951,0.7248,0.7494,0.7932,0.7886,0.7811,0.7872,0.7872,0.7872,0.7872,0.7872,0.7872,0.7872,0.7872,0.7872,0.7872,0.7872,0.7872,0.7872,0.7872,0.7872,0.7872,0.8026,0.8075,0.8075,0.7759,0.7498,0.7238,0.6983,0.6541,0.5834,0.5067,0.4622,0.4555,0.422,0.4123,0.4177,0.4177,0.4215,0.4262,0.4199,0.4147,0.4098,0.3975,0.3924,0.3889,0.3889,0.3889,0.3889,0.3889,0.3889,0.3889,0.3889,0.3889,0.3889,0.3889,0.3889,0.3889,0.3889,0.3889,0.3889,0.3889,0.3889,0.3889,0.3889,0.3889,0.3871,0.3869,0.3872,0.3875,0.3921,0.3913,0.4133,0.4807,0.554,0.6521,0.775,0.9079,1.0172,1.0725,1.1374,1.1736,1.1776,1.1736,1.1736,1.1776,1.1703,1.1431,1.0861,1.0371,0.9479,0.8111,0.6888,0.5851,0.4995,0.4256,0.3914,1.0826,1.1029,1.0946,1.0339,0.909,0.7601,0.573,0.5485,0.54,0.4668,0.4875,0.5353,0.5781,0.6243,0.6832,0.7556,0.7726,0.7821,0.8086,0.8035,0.7999,0.7877,0.7872,0.7872,0.7872,0.7872,0.7872,0.7872,0.7872,0.7872,0.7872,0.7872,0.7872,0.7872,0.7872,0.796,0.8021,0.79,0.7833,0.7891,0.7493,0.7052,0.657,0.6137,0.5686,0.5194,0.4639,0.4429,0.4364,0.4204,0.4161,0.4215,0.4215,0.4253,0.43,0.424,0.4196,0.4155,0.4002,0.3954,0.3924,0.3897,0.3889,0.3889,0.3889,0.3889,0.3889,0.3889,0.3889,0.3889,0.3889,0.3889,0.3889,0.3889,0.3889,0.3889,0.3889,0.3889,0.3889,0.3889,0.401,0.4174,0.4292,0.458,0.4831,0.4865,0.4845,0.5114,0.5786,0.646,0.7317,0.8421,0.9572,1.0475,1.0967,1.1526,1.1716,1.1587,1.1587,1.1466,1.1345,1.1466,1.1398,1.1027,1.0422,0.9505,0.8355,0.6888,0.579,0.5118,0.4256,0.3919,1.0841,1.1037,1.0996,1.0222,0.9525,0.8561,0.6789,0.645,0.6331,0.5623,0.5693,0.6101,0.6573,0.6987,0.7388,0.8056,0.8096,0.8052,0.8215,0.816,0.8046,0.7943,0.7932,0.7926,0.7966,0.796,0.7955,0.7872,0.7872,0.7872,0.7872,0.7872,0.7872,0.7872,0.7894,0.8015,0.8114,0.7718,0.76,0.7627,0.6888,0.6249,0.5711,0.5248,0.4986,0.4769,0.4386,0.4232,0.4229,0.4177,0.4185,0.4232,0.4232,0.4264,0.43,0.4251,0.4226,0.4202,0.4101,0.3997,0.3978,0.3935,0.3919,0.3916,0.3905,0.3911,0.3916,0.3905,0.3911,0.3919,0.3919,0.3919,0.3919,0.3919,0.3919,0.3914,0.3892,0.3889,0.3889,0.3889,0.4318,0.4787,0.509,0.5742,0.6189,0.6263,0.6272,0.6455,0.7133,0.7805,0.8599,0.9457,1.0429,1.1095,1.1337,1.1647,1.1647,1.1337,1.1148,1.0967,1.0725,1.0906,1.1088,1.1209,1.0415,0.964,0.8934,0.7035,0.5879,0.5524,0.4413,0.3948,1.0677,1.0858,1.1035,1.1102,1.0523,0.9634,0.8448,0.814,0.7792,0.6884,0.6502,0.6573,0.7245,0.7722,0.8056,0.8456,0.8426,0.8345,0.8394,0.8291,0.8204,0.8187,0.8187,0.8144,0.8103,0.8092,0.8048,0.7877,0.7872,0.7872,0.7872,0.7872,0.7872,0.7872,0.8037,0.8097,0.8114,0.7937,0.7657,0.7345,0.6125,0.5369,0.4906,0.4565,0.4565,0.4772,0.4431,0.4294,0.4294,0.4286,0.4289,0.4294,0.4294,0.43,0.4308,0.4297,0.4262,0.4215,0.4196,0.4158,0.4112,0.4104,0.4104,0.4093,0.3975,0.3997,0.409,0.3975,0.3997,0.4104,0.4104,0.4104,0.4104,0.4104,0.4104,0.401,0.3911,0.3889,0.3889,0.3889,0.4868,0.5904,0.6503,0.7169,0.7596,0.7612,0.7612,0.7861,0.8471,0.914,0.9808,1.0543,1.1224,1.1655,1.1716,1.1776,1.1647,1.1337,1.0475,1.0112,1.0368,1.0112,1.0293,1.0846,1.0725,1.0304,0.951,0.7707,0.6571,0.6081,0.4676,0.4134,1.097,1.137,1.1645,1.1747,1.1646,1.1217,1.0218,0.9882,0.9512,0.8339,0.804,0.7917,0.7856,0.7989,0.8189,0.8523,0.8546,0.8492,0.8426,0.8372,0.8312,0.8178,0.8172,0.8187,0.813,0.8117,0.8106,0.8043,0.8035,0.8073,0.8073,0.8073,0.8073,0.8073,0.7938,0.7933,0.7996,0.7517,0.6999,0.6523,0.5563,0.4977,0.4772,0.444,0.4372,0.4507,0.4375,0.4308,0.4308,0.4308,0.4308,0.4308,0.4308,0.4308,0.4308,0.4308,0.4292,0.4262,0.4229,0.4199,0.4172,0.4136,0.4125,0.412,0.4093,0.4104,0.412,0.4093,0.4104,0.4125,0.4125,0.4125,0.4125,0.4125,0.4125,0.4112,0.3997,0.4175,0.4542,0.5254,0.6253,0.7194,0.7861,0.8532,0.8964,0.8964,0.8964,0.914,0.9572,1.0051,1.0543,1.1027,1.1606,1.1914,1.1914,1.2012,1.1883,1.1317,1.0688,1.0246,1.0004,1.0004,1.0135,1.0447,1.1073,1.1058,1.0349,0.8415,0.7224,0.6686,0.4958,0.4158,1.1388,1.1755,1.2104,1.2311,1.2492,1.2418,1.1689,1.1441,1.102,0.9686,0.9378,0.9183,0.8456,0.8256,0.8323,0.859,0.859,0.8557,0.8475,0.8459,0.8426,0.8334,0.8323,0.8263,0.8111,0.8209,0.822,0.813,0.8166,0.8172,0.8172,0.8172,0.8172,0.8172,0.7878,0.7741,0.7757,0.6867,0.6187,0.5644,0.4973,0.4641,0.4641,0.444,0.4308,0.4308,0.4308,0.4308,0.4308,0.4308,0.4308,0.4308,0.4308,0.4308,0.4308,0.4308,0.4308,0.43,0.4256,0.424,0.4232,0.4185,0.4172,0.4169,0.4153,0.4161,0.4169,0.4153,0.4161,0.4172,0.4172,0.4172,0.4172,0.4172,0.4237,0.4291,0.4389,0.4692,0.5429,0.6625,0.7701,0.8599,0.9201,0.9876,1.0308,1.0308,1.0308,1.0383,1.0723,1.0974,1.1233,1.1524,1.1896,1.2101,1.2101,1.2231,1.2051,1.1482,1.096,1.0446,0.9882,0.9755,0.9825,1.0086,1.0922,1.1248,1.0977,0.9142,0.8002,0.7537,0.5598,0.4654,1.1801,1.1897,1.1968,1.2714,1.2779,1.2708,1.2628,1.2545,1.2087,1.0861,1.0366,0.9908,0.9183,0.8784,0.859,0.859,0.859,0.8584,0.8579,0.8579,0.8579,0.8568,0.8568,0.8481,0.8247,0.8334,0.8312,0.8136,0.8166,0.8172,0.8172,0.8172,0.8172,0.8172,0.8016,0.7687,0.7365,0.607,0.5242,0.4839,0.4507,0.4308,0.4308,0.4308,0.4308,0.4308,0.4308,0.4308,0.4308,0.4308,0.4308,0.4308,0.4308,0.4308,0.4308,0.4308,0.4308,0.4308,0.4305,0.4303,0.4303,0.43,0.4297,0.4286,0.4229,0.4253,0.4286,0.4229,0.4253,0.4297,0.4297,0.4297,0.4297,0.4297,0.4565,0.486,0.512,0.5541,0.6298,0.7666,0.886,0.993,1.0604,1.1224,1.1716,1.1716,1.1716,1.1772,1.1872,1.195,1.2023,1.2255,1.2288,1.2288,1.2288,1.2304,1.2178,1.1799,1.089,1.0313,1.0263,0.8979,0.8724,0.9691,1.0122,1.0502,1.0984,0.9877,0.9032,0.8501,0.6969,0.6105,1.1745,1.2119,1.2496,1.2648,1.3026,1.3398,1.3489,1.3555,1.3324,1.2521,1.1901,1.1174,1.0041,0.9117,0.859,0.859,0.859,0.859,0.859,0.859,0.859,0.859,0.859,0.8524,0.8367,0.8459,0.8459,0.8301,0.8394,0.8459,0.8459,0.8267,0.8136,0.8136,0.7578,0.7265,0.7133,0.6635,0.625,0.5915,0.5312,0.4842,0.4641,0.4372,0.4308,0.4308,0.4308,0.4308,0.4308,0.4308,0.4308,0.4308,0.4308,0.4308,0.4308,0.4308,0.4308,0.4308,0.4308,0.4308,0.4308,0.4308,0.4308,0.4303,0.4281,0.4289,0.4303,0.4281,0.4292,0.4308,0.4308,0.4308,0.4442,0.4913,0.5443,0.6093,0.7158,0.7452,0.7889,0.9044,1.0076,1.0911,1.1362,1.1798,1.2117,1.2117,1.2117,1.2142,1.2199,1.2207,1.2231,1.2304,1.2402,1.2475,1.2475,1.258,1.245,1.2126,1.1598,1.1076,1.0555,0.9901,0.9574,0.9711,1.0228,1.0664,1.1005,1.035,0.9901,0.9582,0.8379,0.7579,1.1467,1.1909,1.2376,1.2343,1.2873,1.3433,1.3714,1.3973,1.3998,1.3483,1.298,1.2231,1.0777,0.9886,0.9247,0.8716,0.8682,0.8709,0.8709,0.8709,0.8693,0.8655,0.8649,0.859,0.8432,0.8519,0.8541,0.8426,0.8524,0.859,0.859,0.8256,0.8056,0.7922,0.745,0.725,0.7316,0.745,0.7383,0.6982,0.6113,0.551,0.5175,0.4574,0.4308,0.4308,0.4308,0.4308,0.4308,0.4308,0.4308,0.4308,0.4308,0.4308,0.4308,0.4308,0.4375,0.4507,0.4644,0.4775,0.4842,0.4977,0.4977,0.4977,0.4977,0.4977,0.4977,0.4977,0.4977,0.4977,0.4977,0.4977,0.5178,0.5915,0.6648,0.7512,0.8851,0.9079,0.9376,1.0292,1.114,1.1727,1.1925,1.2178,1.2304,1.2304,1.2304,1.2328,1.2385,1.2393,1.2418,1.2475,1.2588,1.2653,1.2653,1.2767,1.2708,1.2503,1.2246,1.1843,1.1247,1.0651,1.0253,1.006,0.9987,1.0267,1.0699,1.0692,1.0543,1.0379,0.9643,0.8911,0.0,0.0,0.0,1.181,1.2173,1.2645,1.3163,1.375,1.4103,1.3742,1.3475,1.2882,1.1512,1.1108,1.0535,0.9115,0.8941,0.8948,0.8948,0.8954,0.8905,0.8859,0.8774,0.8687,0.8454,0.8535,0.8552,0.8437,0.853,0.859,0.859,0.8256,0.7861,0.7459,0.7517,0.7646,0.7979,0.844,0.844,0.8046,0.6978,0.6243,0.5845,0.4775,0.4308,0.4308,0.4308,0.4308,0.4308,0.4308,0.4308,0.4308,0.4308,0.4308,0.4308,0.4308,0.4507,0.4906,0.5312,0.5647,0.5979,0.6384,0.6451,0.6451,0.6451,0.6451,0.6451,0.6451,0.6451,0.6451,0.6451,0.6451,0.6652,0.7383,0.8117,0.8984,1.0041,1.0392,1.0674,1.1401,1.1923,1.232,1.232,1.232,1.232,1.232,1.232,1.2385,1.2548,1.2637,1.2637,1.2816,1.2774,1.2774,1.2774,1.2774,1.2774,1.2774,1.2774,1.2642,1.2312,1.1306,1.0711,1.0717,0.9377,0.9178,1.0193,1.085,1.1049,1.0717,1.0717,0.9987,0.9779,0.0,0.0,0.0,0.0,0.0,1.2018,1.2729,1.3407,1.4013,1.3988,1.3652,1.2865,1.2673,1.2331,1.1502,1.0442,0.9781,0.9781,0.9504,0.9354,0.9319,0.9038,0.8878,0.8739,0.8766,0.8802,0.8682,0.8433,0.8277,0.8261,0.7388,0.692,0.679,0.725,0.7717,0.8056,0.9183,0.9449,0.8778,0.7712,0.6844,0.6243,0.491,0.4308,0.4308,0.4308,0.444,0.4641,0.4372,0.4308,0.4308,0.4308,0.4308,0.4308,0.4308,0.4711,0.5312,0.5912,0.651,0.7178,0.7779,0.7979,0.7979,0.7979,0.7979,0.7979,0.7979,0.7979,0.7979,0.7979,0.7979,0.8179,0.8845,0.9576,1.0373,1.1181,1.1739,1.2096,1.2103,1.2392,1.2694,1.2694,1.2694,1.2694,1.2694,1.2694,1.271,1.2751,1.2759,1.2783,1.2832,1.2774,1.2774,1.2774,1.2774,1.2774,1.2774,1.2774,1.2642,1.2312,1.1776,1.1247,1.0717,1.0054,0.9921,1.0193,1.0644,1.1042,1.1512,1.171,1.124,0.9029,0.923,0.9416,0.9416,0.0,0.0,1.1086,1.1862,1.2664,1.3505,1.3789,1.3693,1.315,1.3211,1.3186,1.249,1.1924,1.1483,1.1194,1.0856,1.048,1.0074,0.9724,0.9358,0.8954,0.8884,0.8852,0.8851,0.8502,0.8045,0.7526,0.6539,0.6116,0.625,0.6782,0.745,0.8323,0.9715,1.018,0.9782,0.8512,0.7579,0.6777,0.5111,0.4308,0.4308,0.4308,0.4574,0.5044,0.5108,0.5111,0.4977,0.5111,0.5178,0.5178,0.5178,0.5647,0.638,0.7045,0.7779,0.8512,0.9244,0.9443,0.9443,0.9443,0.9443,0.9443,0.9443,0.9443,0.9443,0.9443,0.9443,0.9576,1.0114,1.0711,1.1306,1.1909,1.2437,1.2774,1.2576,1.2642,1.2774,1.2774,1.2774,1.2774,1.2774,1.2774,1.2774,1.2774,1.2774,1.2774,1.2774,1.2774,1.2774,1.2774,1.2774,1.2774,1.2774,1.2774,1.274,1.2605,1.248,1.2111,1.1574,1.0906,1.0505,1.0386,1.0777,1.1372,1.2246,1.2246,1.1975,0.8461,0.8593,0.0,0.8699,0.9077,0.0,1.025,1.1023,1.1799,1.244,1.2933,1.3131,1.2588,1.3005,1.3236,1.2692,1.3199,1.3496,1.2907,1.2523,1.198,1.1063,1.0632,1.0094,0.9142,0.9062,0.9056,0.904,0.867,0.7922,0.68,0.596,0.5714,0.6046,0.6309,0.7111,0.8523,0.9908,1.0644,1.0651,0.9244,0.8246,0.7512,0.5379,0.4442,0.451,0.451,0.498,0.5714,0.6376,0.6443,0.6113,0.6518,0.6652,0.6652,0.6652,0.7116,0.7851,0.8584,0.925,0.9981,1.0717,1.0916,1.0916,1.0916,1.0916,1.0916,1.0916,1.0916,1.0916,1.0916,1.0916,1.0982,1.1314,1.1644,1.1975,1.2305,1.2568,1.2774,1.2774,1.2774,1.2774,1.2774,1.2774,1.2774,1.2774,1.2774,1.2774,1.2774,1.2774,1.2774,1.2774,1.279,1.2798,1.2798,1.2815,1.2897,1.2897,1.2897,1.2962,1.3116,1.3124,1.2994,1.2811,1.1697,1.1082,1.0884,1.1129,1.1776,1.2774,1.2592,1.2468,0.7305,0.7451,0.7543,0.7543,0.7788,0.0,0.8752,0.9356,0.9983,1.0827,1.1246,1.1495,1.1593,1.2065,1.2588,1.2978,1.3693,1.4002,1.3488,1.3231,1.2809,1.1994,1.1558,1.1051,1.0239,1.0162,1.012,1.0018,0.9192,0.8386,0.7542,0.6972,0.6715,0.6782,0.6849,0.7316,0.8189,0.9582,1.0313,1.0259,0.9111,0.8374,0.7846,0.6046,0.5312,0.5577,0.5848,0.6384,0.7116,0.7851,0.7784,0.7245,0.7912,0.8179,0.8179,0.8179,0.8579,0.931,1.0041,1.0777,1.1512,1.2173,1.2371,1.2371,1.2371,1.2371,1.2371,1.2371,1.2371,1.2371,1.2371,1.2371,1.2437,1.2437,1.2576,1.2642,1.27,1.2774,1.2774,1.2774,1.2774,1.2774,1.2774,1.2774,1.2774,1.2774,1.2774,1.2774,1.2774,1.2774,1.2774,1.2774,1.2962,1.3043,1.3043,1.3181,1.3262,1.3262,1.3262,1.3279,1.3319,1.3319,1.3199,1.2819,1.23,1.2064,1.1959,1.177,1.2041,1.284,1.3244,1.3453,0.6613,0.678,0.6988,0.7154,0.7321,0.0,0.0,0.8539,0.9076,0.9865,1.0261,1.0526,1.0691,1.1165,1.178,1.2418,1.3183,1.3695,1.3739,1.4094,1.4082,1.3452,1.296,1.2466,1.1678,1.1599,1.1429,1.1006,1.0037,0.9194,0.8644,0.807,0.7712,0.7512,0.6982,0.7183,0.8056,0.8978,0.9582,0.9927,0.9045,0.8512,0.8251,0.6648,0.618,0.6715,0.7245,0.7912,0.8579,0.931,0.9643,0.9643,0.9643,0.9643,0.9643,0.9643,0.9981,1.0512,1.1042,1.1578,1.2107,1.2634,1.2774,1.2774,1.2774,1.2774,1.2774,1.2774,1.2774,1.2774,1.2774,1.2774,1.2774,1.2774,1.2774,1.2774,1.2774,1.2774,1.2774,1.2774,1.2774,1.2774,1.2774,1.2774,1.2774,1.2774,1.2774,1.2774,1.2774,1.2774,1.2873,1.2954,1.3043,1.3133,1.3222,1.3319,1.3368,1.3368,1.3368,1.3409,1.3506,1.3506,1.3367,1.3229,1.3021,1.2904,1.2819,1.2647,1.2764,1.3108,1.3604,1.3908,0.5964,0.632,0.6659,0.7099,0.721,0.7321,0.0,0.0,0.0,0.891,0.9333,0.9663,0.9695,1.01,1.0622,1.1313,1.2042,1.2735,1.3356,1.4229,1.4727,1.4452,1.4227,1.3825,1.3039,1.2866,1.2501,1.1886,1.0971,1.0254,0.9838,0.934,0.8801,0.8312,0.7312,0.7316,0.8256,0.8645,0.9111,0.9794,0.9111,0.8778,0.8656,0.7312,0.7111,0.7779,0.8579,0.9244,0.9848,1.0638,1.1306,1.1843,1.1314,1.1115,1.1115,1.1115,1.1247,1.1578,1.1909,1.218,1.2437,1.2708,1.2774,1.2774,1.2774,1.2774,1.2774,1.2774,1.2774,1.2774,1.2774,1.2774,1.2774,1.2774,1.2774,1.2774,1.2774,1.2774,1.2774,1.2774,1.2774,1.2774,1.2774,1.2798,1.2889,1.2889,1.2913,1.2938,1.2938,1.2938,1.2994,1.3133,1.3181,1.3262,1.3409,1.3457,1.3474,1.3474,1.3474,1.3539,1.3615,1.3693,1.3693,1.3693,1.3693,1.362,1.3612,1.3612,1.351,1.3437,1.389,1.4242,0.5198,0.5708,0.6098,0.6988,0.721,0.721,0.7265,0.0,0.7503,0.7671,0.0,0.8015,0.8116,0.0,0.0,0.9509,1.0183,1.087,1.1717,1.2441,1.3211,1.4109,1.4647,1.4608,1.3825,1.3326,1.2942,1.2666,1.1958,1.1365,1.102,1.0866,1.0309,0.9449,0.8717,0.8584,0.8984,0.931,0.9715,1.0127,0.9715,0.931,0.8984,0.8256,0.8123,0.8518,0.9588,1.0253,1.0651,1.138,1.1909,1.2246,1.2503,1.2576,1.2576,1.2576,1.2568,1.2634,1.2642,1.2708,1.2774,1.2774,1.2774,1.2774,1.2774,1.2774,1.2774,1.2774,1.2774,1.2774,1.2774,1.2774,1.2774,1.2774,1.2774,1.2774,1.2774,1.2774,1.2774,1.2774,1.2774,1.2774,1.2774,1.2962,1.3068,1.3068,1.3206,1.3311,1.3311,1.3311,1.3319,1.3336,1.3482,1.3518,1.3612,1.3758,1.3839,1.3839,1.3839,1.3847,1.3872,1.3872,1.3872,1.3872,1.3872,1.4006,1.4415,1.4415,1.4036,1.3445,1.4293,1.4718,0.3804,0.4421,0.4979,0.5926,0.6154,0.6168,0.6228,0.6436,0.6657,0.6946,0.0,0.0,0.0,0.0,0.0,0.0,0.9006,0.9455,1.0344,1.1153,1.224,1.3924,1.444,1.477,1.4849,1.4379,1.3969,1.3796,1.3104,1.2566,1.2331,1.2255,1.1873,1.1181,1.0313,0.9981,1.0313,1.0246,1.0445,1.0784,1.0445,1.018,0.9987,0.8917,0.8784,0.9588,1.018,1.0784,1.138,1.2107,1.2444,1.2576,1.2774,1.2774,1.2774,1.2774,1.2774,1.2774,1.2774,1.2774,1.2774,1.2774,1.2774,1.2774,1.2774,1.2774,1.279,1.2954,1.2986,1.3011,1.3116,1.3068,1.2986,1.2986,1.2913,1.2774,1.2774,1.2913,1.2986,1.2986,1.3076,1.3149,1.3149,1.3116,1.3133,1.3238,1.3319,1.3368,1.3368,1.3368,1.3409,1.3514,1.3595,1.3685,1.3782,1.3863,1.3904,1.3904,1.3904,1.3904,1.3904,1.3904,1.3904,1.3904,1.4118,1.4332,1.4474,1.4697,1.4611,1.4316,1.4956,1.5273,0.2349,0.2966,0.3636,0.4644,0.4826,0.4803,0.4804,0.5184,0.5641,0.6215,0.6499,0.0,0.0,0.0,0.7222,0.7921,0.0,0.8225,0.8927,0.9592,1.0806,1.305,1.4053,1.4791,1.5224,1.494,1.4613,1.4336,1.3779,1.3287,1.2966,1.3006,1.2732,1.2048,1.124,1.0975,1.1181,1.1042,1.1108,1.138,1.1108,1.0909,1.0651,0.9516,0.9449,1.0193,1.0644,1.1174,1.1843,1.251,1.2774,1.2774,1.2774,1.2774,1.2774,1.2774,1.2774,1.2774,1.2774,1.2774,1.2774,1.2774,1.2774,1.2782,1.2889,1.2905,1.2946,1.3116,1.3173,1.3197,1.3336,1.3271,1.3173,1.3173,1.3076,1.2986,1.2986,1.3084,1.3173,1.3173,1.3279,1.3384,1.3441,1.3336,1.3295,1.3425,1.3482,1.3514,1.3514,1.3514,1.3571,1.3701,1.3717,1.3766,1.3888,1.3904,1.3904,1.3904,1.3904,1.3904,1.3904,1.3904,1.3975,1.4047,1.4332,1.4617,1.483,1.5044,1.5186,1.5337,1.5541,1.5603,0.0952,0.1623,0.2183,0.3357,0.3398,0.315,0.3153,0.3523,0.4162,0.5208,0.5726,0.6256,0.7051,0.7198,0.7165,0.706,0.7136,0.0,0.0,0.7428,0.8497,1.1237,1.3477,1.4735,1.4541,1.4532,1.4327,1.3925,1.3574,1.315,1.2629,1.2717,1.2316,1.1254,1.1181,1.1181,1.1181,1.1578,1.1776,1.1776,1.1776,1.138,1.0717,1.0326,1.0193,1.0259,1.0916,1.1446,1.1843,1.251,1.2774,1.2774,1.2774,1.2774,1.2774,1.2774,1.2774,1.2774,1.2774,1.2774,1.2774,1.2774,1.2774,1.2873,1.3035,1.3084,1.3124,1.3311,1.336,1.336,1.3368,1.3368,1.336,1.336,1.336,1.3352,1.3352,1.336,1.336,1.336,1.3368,1.3425,1.3604,1.3558,1.3558,1.3566,1.3774,1.3888,1.3888,1.3888,1.3888,1.3896,1.3896,1.3896,1.3904,1.3904,1.3904,1.3904,1.3904,1.3904,1.3904,1.3904,1.4047,1.4474,1.4474,1.483,1.5532,1.5603,1.5753,1.6178,1.5753,1.5603,-0.0114,0.0342,0.0799,0.1558,0.1684,0.1578,0.1655,0.2107,0.2823,0.3924,0.4428,0.4996,0.5985,0.6118,0.6174,0.6392,0.6533,0.6597,0.0,0.6674,0.7351,0.8962,1.1397,1.3059,1.3336,1.3721,1.3881,1.3561,1.3326,1.2974,1.2398,1.1865,1.1454,1.1188,1.0975,1.1108,1.1578,1.2173,1.2444,1.2444,1.2444,1.2239,1.171,1.0909,1.0644,1.085,1.0843,1.124,1.1843,1.251,1.2774,1.2774,1.2774,1.2905,1.3003,1.3003,1.3003,1.3027,1.3149,1.3189,1.3189,1.3189,1.3189,1.3206,1.3262,1.3279,1.3311,1.3498,1.3686,1.3919,1.3763,1.3838,1.3894,1.3616,1.3457,1.3368,1.3368,1.3465,1.3555,1.3555,1.3644,1.3742,1.3807,1.3815,1.3815,1.3815,1.3863,1.3904,1.3904,1.3904,1.3904,1.3904,1.3904,1.3904,1.3904,1.3904,1.3904,1.3904,1.3904,1.3904,1.3904,1.4189,1.4332,1.4474,1.4972,1.5328,1.5603,1.5895,1.6037,1.6178,1.6037,1.5966,-0.0917,-0.0635,-0.0407,0.0059,0.0059,0.0,0.0061,0.0492,0.1188,0.2231,0.2837,0.3512,0.4704,0.5037,0.5291,0.5717,0.582,0.5858,0.0,0.5638,0.6011,0.6973,0.9673,1.1615,1.2033,1.2786,1.3161,1.2856,1.2861,1.2618,1.1916,1.1182,1.0793,1.0857,1.0644,1.093,1.1666,1.2531,1.2962,1.3027,1.2962,1.273,1.239,1.1468,1.124,1.138,1.1174,1.1439,1.2048,1.264,1.2929,1.2938,1.3003,1.3092,1.3181,1.3116,1.3133,1.3206,1.3327,1.3368,1.3368,1.3368,1.3368,1.3384,1.3449,1.3465,1.3506,1.3825,1.4086,1.4322,1.4298,1.4311,1.4218,1.3945,1.3714,1.3563,1.3563,1.3652,1.3734,1.3734,1.3823,1.3904,1.3904,1.3904,1.3904,1.3904,1.3904,1.3904,1.3904,1.4047,1.4047,1.3904,1.4047,1.4047,1.3904,1.3904,1.3904,1.3904,1.3904,1.3975,1.4118,1.4332,1.4617,1.4901,1.5399,1.5673,1.5824,1.6037,1.6178,1.6178,1.6178,1.6178]},{"header":{"parameterUnit":"m.s-1","parameterCategory":1,"la1":30.6,"la2":29.2853,"lo1":-89.7004,"lo2":-87.6739,"dy":0.0162,"dx":0.0183,"nx":112,"ny":82,"refTime":"2026-05-04T00:00:00:Z","depth":0,"parameterNumber":3,"parameterNumberName":"V-component_of_WINDS"},"data":[0.0,0.0,0.0,0.0,0.0,0.0,0.0,0.0,0.0,0.0,0.0,0.0,0.0,0.0,0.0,0.0,0.0,0.0,0.0,0.0,0.0,0.0,0.0,0.0,0.0,0.0,0.0,0.0,0.0,0.0,0.0,0.0,0.0,0.0,0.0,0.0,0.0,0.0,0.0,0.0,0.0,0.0,0.0,0.0,0.0,0.0,0.0,0.0,0.0,0.0,0.0,0.0,0.0,0.0,0.0,0.0,0.0,0.0,0.0,0.0,0.0,0.0,0.0,0.0,0.0,0.0,0.0,0.0,0.0,0.0,0.0,0.0,0.0,0.0,0.0,0.0,0.0,0.0,0.0,0.0,0.0,0.0,0.0,0.0,0.0,0.0,0.0,0.0,0.0,0.0,3.0214,3.2022,3.3051,3.3258,3.2348,3.2156,3.0369,2.6321,0.0,0.0,0.0,0.0,0.0,0.0,0.0,0.0,0.0,0.0,0.0,0.0,0.0,0.0,0.0,0.0,0.0,0.0,0.0,0.0,0.0,0.0,0.0,0.0,0.0,0.0,0.0,0.0,0.0,0.0,0.0,0.0,0.0,0.0,0.0,0.0,0.0,0.0,0.0,0.0,0.0,0.0,0.0,0.0,0.0,0.0,0.0,0.0,0.0,0.0,0.0,0.0,0.0,0.0,0.0,0.0,0.0,0.0,0.0,0.0,0.0,0.0,0.0,0.0,0.0,0.0,0.0,0.0,0.0,0.0,0.0,0.0,0.0,0.0,0.0,0.0,0.0,0.0,0.0,0.0,0.0,0.0,0.0,0.0,0.0,0.0,0.0,0.0,0.0,0.0,0.0,0.0,0.0,0.0,0.0,0.0,0.0,0.0,0.0,0.0,0.0,0.0,0.0,0.0,3.1544,3.3009,3.3517,3.366,3.3378,3.3328,3.2133,2.9311,0.0,0.0,0.0,0.0,0.0,0.0,0.0,0.0,0.0,0.0,0.0,0.0,0.0,0.0,0.0,0.0,0.0,0.0,0.0,0.0,0.0,0.0,0.0,0.0,0.0,0.0,0.0,0.0,0.0,0.0,0.0,0.0,0.0,0.0,0.0,0.0,0.0,0.0,0.0,0.0,0.0,0.0,0.0,0.0,0.0,0.0,0.0,0.0,0.0,0.0,0.0,0.0,0.0,0.0,0.0,0.0,0.0,0.0,0.0,0.0,0.0,0.0,0.0,0.0,0.0,0.0,0.0,0.0,0.0,0.0,0.0,0.0,0.0,0.0,0.0,0.0,0.0,0.0,0.0,0.0,0.0,0.0,0.0,0.0,0.0,0.0,0.0,0.0,0.0,0.0,0.0,0.0,0.0,0.0,0.0,0.0,0.0,0.0,0.0,0.0,0.0,0.0,0.0,3.2161,3.273,3.3522,3.3793,3.3915,3.3992,3.3994,3.3191,3.1254,2.6828,0.0,0.0,0.0,0.0,0.0,0.0,0.0,0.0,0.0,0.0,0.0,0.0,0.0,0.0,0.0,0.0,0.0,0.0,0.0,0.0,0.0,0.0,0.0,0.0,0.0,0.0,0.0,0.0,0.0,0.0,0.0,0.0,0.0,0.0,0.0,0.0,0.0,0.0,0.0,0.0,0.0,0.0,0.0,0.0,0.0,0.0,0.0,0.0,0.0,0.0,0.0,0.0,0.0,0.0,0.0,0.0,0.0,0.0,0.0,0.0,0.0,0.0,0.0,0.0,0.0,0.0,0.0,0.0,0.0,0.0,0.0,0.0,0.0,0.0,0.0,0.0,0.0,0.0,0.0,0.0,0.0,0.0,0.0,0.0,0.0,0.0,0.0,0.0,0.0,0.0,0.0,0.0,0.0,0.0,0.0,0.0,0.0,0.0,0.0,0.0,0.0,0.0,3.2987,3.3629,3.3887,3.403,3.4203,3.4379,3.4453,3.4003,3.2828,3.0674,0.0,0.0,0.0,0.0,0.0,0.0,0.0,0.0,0.0,0.0,0.0,0.0,0.0,0.0,0.0,0.0,0.0,0.0,0.0,0.0,0.0,0.0,0.0,0.0,0.0,0.0,0.0,0.0,0.0,0.0,0.0,0.0,0.0,0.0,0.0,0.0,0.0,0.0,0.0,0.0,0.0,0.0,0.0,0.0,0.0,0.0,0.0,0.0,0.0,0.0,0.0,0.0,0.0,0.0,0.0,0.0,0.0,0.0,0.0,0.0,0.0,0.0,0.0,0.0,0.0,0.0,0.0,0.0,0.0,0.0,0.0,0.0,0.0,0.0,0.0,0.0,0.0,0.0,0.0,0.0,0.0,0.0,0.0,0.0,0.0,0.0,0.0,0.0,0.0,0.0,0.0,0.0,0.0,0.0,0.0,0.0,0.0,0.0,0.0,0.0,0.0,0.0,3.377,3.3992,3.4179,3.4416,3.4594,3.4672,3.4908,3.4794,3.4188,3.2723,0.0,0.0,0.0,0.0,0.0,0.0,0.0,0.0,0.0,0.0,0.0,0.0,0.0,0.0,0.0,0.0,0.0,0.0,0.0,0.0,0.0,0.0,0.0,0.0,0.0,0.0,0.0,0.0,0.0,0.0,0.0,0.0,0.0,0.0,0.0,0.0,0.0,0.0,0.0,0.0,0.0,0.0,0.0,0.0,0.0,0.0,0.0,0.0,0.0,0.0,0.0,0.0,0.0,0.0,0.0,0.0,0.0,0.0,0.0,0.0,0.0,0.0,0.0,0.0,0.0,0.0,0.0,0.0,0.0,0.0,0.0,0.0,0.0,0.0,0.0,0.0,0.0,0.0,0.0,0.0,0.0,0.0,0.0,0.0,0.0,0.0,0.0,0.0,0.0,0.0,0.0,0.0,0.0,0.0,0.0,0.0,0.0,0.0,0.0,0.0,0.0,0.0,3.4055,3.4288,3.4495,3.4647,3.4773,3.4935,3.5174,3.4898,3.3989,0.0,0.0,0.0,0.0,0.0,0.0,0.0,0.0,0.0,0.0,0.0,0.0,0.0,0.0,0.0,0.0,0.0,0.0,0.0,0.0,0.0,0.0,0.0,0.0,0.0,0.0,0.0,0.0,0.0,0.0,0.0,0.0,0.0,0.0,0.0,0.0,0.0,0.0,0.0,0.0,0.0,0.0,0.0,0.0,0.0,0.0,0.0,0.0,0.0,0.0,0.0,0.0,0.0,0.0,0.0,0.0,0.0,0.0,0.0,0.0,0.0,0.0,0.0,0.0,0.0,0.0,0.0,0.0,0.0,0.0,0.0,0.0,0.0,0.0,0.0,0.0,0.0,0.0,0.0,0.0,0.0,0.0,0.0,0.0,0.0,0.0,0.0,0.0,0.0,0.0,0.0,0.0,0.0,0.0,0.0,0.0,0.0,0.0,0.0,0.0,0.0,0.0,3.4216,3.4356,3.4561,3.4761,3.487,3.5025,3.5176,3.5112,3.4704,3.3907,0.0,0.0,0.0,0.0,0.0,0.0,0.0,0.0,0.0,0.0,0.0,0.0,0.0,0.0,0.0,0.0,0.0,0.0,0.0,0.0,0.0,0.0,0.0,0.0,0.0,0.0,0.0,0.0,0.0,0.0,0.0,0.0,0.0,0.0,0.0,0.0,0.0,0.0,0.0,0.0,0.0,0.0,0.0,0.0,0.0,0.0,0.0,0.0,0.0,0.0,0.0,0.0,0.0,0.0,0.0,0.0,0.0,0.0,0.0,0.0,0.0,0.0,0.0,0.0,0.0,0.0,0.0,0.0,0.0,0.0,0.0,0.0,0.0,0.0,0.0,0.0,0.0,0.0,0.0,0.0,0.0,0.0,0.0,0.0,0.0,0.0,0.0,0.0,0.0,0.0,0.0,0.0,0.0,0.0,0.0,0.0,0.0,0.0,0.0,0.0,0.0,0.0,3.4484,3.4662,3.4832,3.4973,3.519,3.5345,3.5391,3.4731,3.4262,0.0,0.0,0.0,0.0,0.0,0.0,0.0,0.0,0.0,0.0,0.0,0.0,0.0,0.0,0.0,0.0,0.0,0.0,0.0,0.0,0.0,0.0,0.0,0.0,0.0,0.0,0.0,0.0,0.0,0.0,0.0,0.0,0.0,0.0,0.0,0.0,0.0,0.0,0.0,0.0,0.0,0.0,0.0,0.0,0.0,0.0,0.0,0.0,0.0,0.0,0.0,0.0,0.0,0.0,0.0,0.0,0.0,0.0,0.0,0.0,0.0,0.0,0.0,0.0,0.0,0.0,0.0,0.0,0.0,0.0,0.0,0.0,0.0,0.0,0.0,0.0,0.0,0.0,0.0,0.0,0.0,0.0,0.0,0.0,0.0,0.0,0.0,0.0,0.0,0.0,0.0,0.0,0.0,0.0,0.0,0.0,0.0,0.0,0.0,0.0,0.0,0.0,0.0,3.3978,3.45,3.5001,3.5196,3.5315,3.5412,3.5525,3.4865,3.4167,3.3529,0.0,0.0,0.0,0.0,0.0,0.0,0.0,0.0,0.0,0.0,0.0,0.0,0.0,0.0,0.0,0.0,0.0,0.0,0.0,0.0,0.0,0.0,0.0,0.0,0.0,0.0,0.0,0.0,0.0,0.0,0.0,0.0,0.0,0.0,0.0,0.0,0.0,0.0,0.0,0.0,0.0,0.0,0.0,0.0,0.0,0.0,0.0,0.0,0.0,0.0,0.0,0.0,0.0,0.0,0.0,0.0,0.0,0.0,0.0,0.0,0.0,0.0,0.0,0.0,0.0,0.0,0.0,0.0,0.0,0.0,0.0,0.0,0.0,0.0,0.0,0.0,0.0,0.0,0.0,0.0,0.0,0.0,0.0,0.0,0.0,0.0,0.0,0.0,0.0,0.0,0.0,0.0,0.0,0.0,0.0,0.0,0.0,0.0,0.0,0.0,0.0,0.0,3.3861,3.4547,3.5182,3.5376,3.5477,3.556,3.5665,3.4672,3.3845,3.3254,0.0,0.0,0.0,0.0,0.0,0.0,0.0,0.0,0.0,0.0,0.0,0.0,0.0,0.0,0.0,0.0,0.0,0.0,0.0,0.0,0.0,0.0,0.0,0.0,0.0,0.0,0.0,0.0,0.0,0.0,0.0,0.0,0.0,0.0,0.0,0.0,0.0,0.0,0.0,0.0,0.0,0.0,0.0,0.0,0.0,0.0,0.0,0.0,0.0,0.0,0.0,0.0,0.0,0.0,0.0,0.0,0.0,0.0,0.0,0.0,0.0,0.0,0.0,0.0,0.0,0.0,0.0,0.0,0.0,0.0,0.0,0.0,0.0,0.0,0.0,0.0,0.0,0.0,0.0,0.0,0.0,0.0,0.0,0.0,0.0,0.0,0.0,0.0,0.0,0.0,0.0,0.0,0.0,0.0,0.0,0.0,0.0,0.0,0.0,0.0,0.0,0.0,3.3914,3.4688,3.536,3.5477,3.5621,3.5732,3.5803,3.4405,3.3448,3.3323,0.0,0.0,0.0,0.0,0.0,0.0,0.0,0.0,0.0,0.0,0.0,0.0,0.0,0.0,0.0,0.0,0.0,0.0,0.0,0.0,0.0,0.0,0.0,0.0,0.0,0.0,0.0,0.0,0.0,0.0,0.0,0.0,0.0,0.0,0.0,0.0,0.0,0.0,0.0,0.0,0.0,0.0,0.0,0.0,0.0,0.0,0.0,0.0,0.0,0.0,0.0,0.0,0.0,0.0,0.0,0.0,0.0,0.0,0.0,0.0,3.6768,3.6562,0.0,0.0,0.0,0.0,0.0,0.0,0.0,0.0,0.0,0.0,0.0,0.0,0.0,0.0,0.0,0.0,0.0,0.0,0.0,0.0,0.0,0.0,0.0,0.0,0.0,0.0,0.0,0.0,0.0,0.0,0.0,0.0,0.0,0.0,0.0,0.0,0.0,0.0,0.0,0.0,3.3202,3.4381,3.536,3.5477,3.5587,3.5679,3.5793,3.4892,3.4068,3.3352,3.2418,0.0,0.0,0.0,0.0,0.0,0.0,0.0,0.0,0.0,0.0,0.0,0.0,0.0,0.0,0.0,0.0,0.0,0.0,0.0,0.0,0.0,0.0,0.0,0.0,0.0,0.0,0.0,0.0,0.0,0.0,0.0,0.0,0.0,0.0,0.0,0.0,0.0,0.0,0.0,0.0,0.0,0.0,0.0,0.0,0.0,0.0,0.0,0.0,0.0,0.0,0.0,0.0,0.0,0.0,0.0,0.0,0.0,0.0,0.0,3.7539,3.7398,0.0,0.0,0.0,0.0,0.0,0.0,0.0,0.0,0.0,0.0,0.0,0.0,0.0,0.0,0.0,0.0,0.0,0.0,0.0,0.0,0.0,0.0,0.0,0.0,0.0,0.0,0.0,0.0,0.0,0.0,0.0,0.0,0.0,0.0,0.0,0.0,0.0,0.0,0.0,0.0,3.3024,3.433,3.5441,3.5541,3.5581,3.5653,3.5761,3.4964,3.4142,3.3297,3.2438,0.0,0.0,0.0,0.0,0.0,0.0,0.0,0.0,0.0,0.0,0.0,0.0,0.0,0.0,0.0,0.0,0.0,0.0,0.0,0.0,0.0,0.0,0.0,0.0,0.0,0.0,0.0,0.0,0.0,0.0,0.0,0.0,0.0,0.0,0.0,0.0,0.0,0.0,0.0,0.0,0.0,0.0,0.0,0.0,0.0,0.0,0.0,0.0,0.0,0.0,0.0,0.0,0.0,3.9032,3.9013,3.8477,3.9169,3.9069,3.8445,3.8443,3.8309,3.8124,3.8241,0.0,0.0,0.0,0.0,0.0,0.0,0.0,0.0,0.0,0.0,0.0,0.0,0.0,0.0,0.0,0.0,0.0,0.0,0.0,0.0,0.0,0.0,3.5816,3.5115,3.4921,3.5078,3.5663,0.0,0.0,0.0,0.0,0.0,0.0,0.0,0.0,0.0,0.0,0.0,3.3256,3.452,3.5547,3.5578,3.5599,3.5648,3.5694,3.5038,3.4295,3.3471,3.2801,3.2013,0.0,0.0,0.0,0.0,0.0,0.0,0.0,0.0,0.0,0.0,0.0,0.0,0.0,0.0,0.0,0.0,0.0,0.0,0.0,0.0,0.0,0.0,0.0,0.0,0.0,0.0,0.0,0.0,0.0,0.0,0.0,0.0,3.9245,3.8723,0.0,0.0,0.0,0.0,0.0,0.0,0.0,0.0,0.0,0.0,0.0,0.0,0.0,3.7321,3.8086,3.8162,3.856,3.9334,3.9411,3.9779,4.0352,4.0398,4.0361,4.0253,4.026,0.0,3.815,3.8929,0.0,0.0,0.0,0.0,0.0,0.0,0.0,0.0,0.0,0.0,0.0,0.0,0.0,0.0,0.0,0.0,0.0,0.0,0.0,0.0,0.0,0.0,3.5972,3.5855,3.5819,3.5664,3.4999,3.4288,3.3722,3.3746,3.4179,3.4325,0.0,0.0,0.0,0.0,0.0,0.0,3.4139,3.4987,3.5578,3.5614,3.561,3.5643,3.5669,3.5582,3.5189,3.4377,3.4266,3.3571,3.1982,3.0987,0.0,0.0,0.0,0.0,0.0,0.0,0.0,0.0,0.0,0.0,0.0,0.0,0.0,0.0,0.0,0.0,0.0,0.0,0.0,0.0,0.0,0.0,0.0,0.0,0.0,0.0,0.0,0.0,0.0,3.9511,3.9852,3.9937,3.9475,3.9171,0.0,0.0,0.0,0.0,0.0,0.0,0.0,0.0,0.0,3.7501,3.7545,3.8019,3.8916,3.8999,3.9446,4.0299,4.0299,4.0472,4.0825,4.072,4.0681,4.0661,4.0619,4.0195,3.9573,3.9482,3.8998,3.8316,0.0,0.0,0.0,0.0,3.7157,3.6765,3.6448,3.6335,3.6288,3.5577,0.0,0.0,0.0,0.0,0.0,0.0,0.0,3.7092,3.6228,3.6001,3.6007,3.6007,3.6011,3.5898,3.5508,3.5115,3.4716,3.4223,3.3989,3.3861,3.3902,3.377,0.0,0.0,0.0,3.4299,3.4305,3.5077,3.5584,3.5596,3.5608,3.5626,3.5637,3.5648,3.5305,3.4486,3.4517,3.4038,3.2884,3.1976,3.1558,0.0,0.0,0.0,0.0,0.0,0.0,0.0,0.0,0.0,0.0,0.0,0.0,0.0,0.0,0.0,0.0,0.0,0.0,0.0,0.0,0.0,0.0,0.0,0.0,0.0,0.0,0.0,0.0,4.0006,4.021,4.0446,3.9548,3.9085,0.0,0.0,0.0,0.0,0.0,0.0,3.9176,3.8504,3.8259,3.8489,3.8529,3.8993,3.9922,3.9995,4.0325,4.0907,4.0907,4.0898,4.0912,4.0815,4.0781,4.0718,4.0649,4.0642,4.0681,4.0081,3.9679,3.9425,3.8672,3.7918,3.7218,3.6991,3.6581,3.6068,3.5898,3.5894,3.5912,3.5921,3.5972,3.5985,3.5991,0.0,0.0,0.0,0.0,3.6813,3.6187,3.5999,3.6004,3.6004,3.6008,3.5934,3.5702,3.5664,3.5544,3.5131,3.4467,3.4071,3.4464,3.3946,0.0,3.3437,3.3931,3.4405,3.4637,3.5216,3.5641,3.5641,3.5641,3.5641,3.5641,3.5641,3.5372,3.4764,3.482,3.4503,3.3737,3.3113,3.2654,3.242,0.0,0.0,0.0,0.0,0.0,0.0,0.0,0.0,0.0,0.0,0.0,0.0,0.0,0.0,0.0,0.0,0.0,0.0,0.0,0.0,0.0,0.0,0.0,0.0,0.0,0.0,0.0,0.0,0.0,3.8923,3.9312,0.0,0.0,0.0,0.0,3.8543,3.8455,3.8345,3.834,3.8252,3.8601,3.9508,3.9513,3.9966,4.0825,4.083,4.0869,4.0907,4.0907,4.0907,4.0903,4.0814,4.0787,4.0782,4.0718,4.0724,4.0782,4.0748,4.0233,3.9503,3.9431,3.8921,3.8117,3.7303,3.7046,3.7022,3.6249,3.5989,3.5989,3.5991,3.5991,3.5992,3.5992,3.6031,0.0,0.0,3.607,3.607,3.5992,3.5999,3.6004,3.6004,3.6008,3.5776,3.4956,3.4763,3.5,3.5764,3.5861,3.5519,3.4724,0.0,3.4395,3.4328,3.4371,3.4698,3.551,3.5665,3.5704,3.5704,3.5704,3.5704,3.5704,3.5704,3.5687,3.5626,3.5718,3.5395,3.4579,3.455,3.4176,3.3358,3.2461,0.0,0.0,0.0,0.0,0.0,0.0,0.0,0.0,0.0,0.0,0.0,0.0,0.0,0.0,0.0,0.0,0.0,0.0,0.0,0.0,0.0,0.0,0.0,0.0,0.0,0.0,0.0,0.0,4.0289,3.9976,0.0,3.9446,3.9331,3.9302,3.9319,3.9723,3.999,3.999,3.9932,4.0087,4.0417,4.0456,4.0582,4.0907,4.0907,4.0907,4.0907,4.0907,4.0907,4.0907,4.0888,4.084,4.0878,4.0819,4.0824,4.0878,4.0868,4.0669,4.0398,4.0366,3.9854,3.9177,3.8797,3.8412,3.7921,3.7104,3.6842,3.6726,3.6186,3.5992,3.5992,3.5992,3.5992,3.5992,3.5992,3.5992,3.5992,3.5992,3.5995,3.5998,3.5998,3.5999,3.5923,3.5616,3.5539,3.5621,3.5937,3.5065,3.4373,3.4579,3.4549,3.4671,3.5141,3.5243,3.5361,3.5665,3.5704,3.5704,3.5704,3.5704,3.5704,3.5704,3.5704,3.5692,3.5704,3.5728,3.5638,3.5424,3.5474,3.5069,3.4256,3.3945,3.3239,0.0,0.0,0.0,0.0,0.0,0.0,0.0,0.0,0.0,0.0,0.0,0.0,0.0,0.0,0.0,0.0,0.0,0.0,0.0,0.0,0.0,0.0,0.0,0.0,0.0,4.1109,4.1109,4.1109,4.06,4.0255,4.0305,4.0231,4.021,4.0229,4.0662,4.0913,4.0943,4.0935,4.093,4.0921,4.0912,4.0907,4.0907,4.0907,4.0907,4.0907,4.0907,4.0907,4.0907,4.0907,4.0907,4.0907,4.0907,4.0907,4.0907,4.0907,4.0907,4.0903,4.0829,4.0544,4.0092,3.9742,3.9353,3.8778,3.7685,3.7111,3.6765,3.6186,3.6187,3.6383,3.6109,3.6226,3.6383,3.607,3.5992,3.5992,3.5992,3.5992,3.5992,3.5992,3.5797,3.5644,3.5922,3.5768,3.5577,3.5543,3.4648,3.4087,3.4929,3.4753,3.48,3.5636,3.5732,3.5718,3.5746,3.5702,3.5692,3.5681,3.5709,3.5704,3.5704,3.5704,3.5692,3.5704,3.5711,3.5772,3.5919,3.5929,3.5685,3.5153,3.4844,3.3822,3.2088,0.0,0.0,0.0,0.0,0.0,0.0,0.0,0.0,0.0,0.0,0.0,0.0,0.0,0.0,0.0,0.0,0.0,0.0,0.0,0.0,0.0,0.0,0.0,4.1109,4.1109,4.1109,4.1109,4.1109,4.1115,4.1087,4.1093,4.1085,4.1111,4.103,4.0987,4.1013,4.0991,4.1007,4.0991,4.0921,4.0907,4.0907,4.0907,4.0907,4.0907,4.0907,4.0907,4.0907,4.0907,4.0907,4.0907,4.0907,4.0907,4.0907,4.0907,4.0907,4.0907,4.0907,4.0926,4.0913,4.0035,3.9753,3.9519,3.7919,3.6765,3.5992,3.5992,3.6578,3.7087,3.6265,3.6578,3.7087,3.6226,3.5992,3.5992,3.5992,3.5992,3.5992,3.5992,3.5369,3.4979,3.5836,3.5335,3.4754,3.4754,3.4724,3.5,3.5813,3.5199,3.4925,3.5797,3.5861,0.0,3.5827,3.5766,3.5737,3.5713,3.5687,3.5704,3.5704,3.5704,3.5692,3.5704,3.575,3.5842,3.5901,3.5958,3.5988,3.6004,3.5156,3.3857,3.2161,0.0,0.0,0.0,0.0,0.0,0.0,0.0,0.0,0.0,0.0,0.0,0.0,0.0,0.0,0.0,0.0,0.0,0.0,0.0,0.0,0.0,4.0894,4.1092,4.1108,4.1109,4.1109,4.1109,4.1109,4.1112,4.1081,4.1093,4.1092,4.1088,4.1031,4.1009,4.0996,4.1,4.1009,4.0991,4.0939,4.0907,4.0907,4.0907,4.0907,4.0907,4.0907,4.0907,4.0907,4.0907,4.0907,4.0907,4.0907,4.0907,4.0907,4.0907,4.0907,4.0907,4.0907,4.0926,4.0987,4.0719,3.9909,3.8789,3.8341,3.7226,3.5992,3.5992,3.6148,3.6305,3.607,3.6187,3.6305,3.607,3.5992,3.5992,3.5992,3.5992,3.5992,3.5992,3.5836,3.5719,3.5953,3.5798,3.5644,3.5644,3.5649,3.5539,3.5117,3.4797,3.509,3.6602,3.6799,3.6758,3.6742,3.6697,3.6418,3.5766,3.5707,3.5704,3.5704,3.5704,3.5681,3.5718,3.5708,3.5758,3.5822,3.588,3.5968,3.6004,3.5155,3.4451,0.0,0.0,0.0,0.0,0.0,0.0,0.0,0.0,0.0,0.0,0.0,0.0,0.0,0.0,0.0,0.0,0.0,0.0,0.0,0.0,0.0,0.0,4.0783,4.1186,4.1601,4.1339,4.1109,4.1109,4.1109,4.1112,4.1117,4.1089,4.1093,4.1094,4.1403,4.1434,4.1073,4.14,4.1412,4.1039,4.0991,4.0925,4.0925,4.0925,4.0921,4.0952,4.0943,4.0935,4.0926,4.0912,4.0907,4.0907,4.0907,4.0907,4.0907,4.0907,4.0907,4.0907,0.0,0.0,0.0,0.0,4.0142,3.9021,3.9039,3.7968,3.6539,3.6539,3.6305,3.5992,3.5992,3.5992,3.5992,3.5992,3.5992,3.5992,3.5992,3.5992,3.5992,3.5992,3.5719,3.5563,3.5914,3.5719,3.5563,3.5914,3.5995,0.0,3.5346,3.5508,3.6205,3.7566,3.7741,3.7559,3.7188,3.7063,3.6697,3.584,3.5723,3.5704,3.5704,3.5704,0.0,0.0,0.0,3.5763,3.5843,3.5886,0.0,0.0,0.0,0.0,0.0,0.0,0.0,0.0,3.1839,3.1818,0.0,0.0,0.0,0.0,0.0,0.0,0.0,0.0,0.0,0.0,0.0,0.0,0.0,0.0,0.0,0.0,4.0673,4.159,4.2439,4.18,4.1265,4.1265,4.1265,4.1267,4.1233,4.1239,4.1283,4.1403,4.2108,4.2226,4.1443,4.202,0.0,0.0,0.0,4.1003,4.1003,4.1003,4.0997,4.0981,4.0995,4.1011,4.0995,4.0921,4.0907,4.0907,4.0907,4.0907,4.0907,4.0907,4.0907,4.0907,4.0912,4.0912,4.0917,4.0964,4.0457,3.9714,3.978,0.0,0.0,3.7438,3.6852,3.6148,3.6148,3.607,3.5992,3.5992,3.5992,3.5992,3.5992,3.5992,3.5992,3.5992,3.5408,3.5057,3.5836,3.5408,3.5096,3.5836,3.6077,3.6159,3.616,3.6795,3.7617,3.8474,3.8623,3.8376,3.7617,3.7453,3.7046,3.6176,3.6043,0.0,3.5974,3.5897,3.5847,3.5859,3.5814,3.5842,3.5886,3.5912,3.5927,3.5976,3.5994,3.5616,3.4843,3.4764,3.4353,3.359,3.325,3.3122,0.0,0.0,0.0,0.0,0.0,0.0,0.0,0.0,0.0,0.0,0.0,0.0,0.0,0.0,0.0,4.1669,4.2478,4.3188,4.3412,4.2696,4.2162,4.2162,4.2162,4.2162,4.2163,4.2165,4.244,4.3145,4.3342,4.3385,4.3195,4.2695,4.2303,4.2143,4.1384,4.098,4.098,4.098,4.1014,4.1003,4.1003,0.0,4.0995,4.0939,4.0907,4.0907,4.0907,4.0907,4.0907,4.0907,4.0907,4.0907,4.0969,4.0978,4.0987,4.0988,4.0477,3.9764,3.9782,3.914,3.8337,3.8337,3.775,3.7048,3.7048,3.6578,0.0,3.5992,3.5992,3.5992,3.5992,3.5992,3.5992,3.5992,3.5875,3.5797,3.5953,3.5875,3.5797,3.5953,3.6579,3.7052,3.7059,3.7184,3.7617,3.8476,3.918,3.9568,3.9405,3.9284,3.8871,3.7972,3.7807,3.7709,3.7709,3.7058,3.6693,3.6745,3.6211,3.5885,3.5889,3.5894,3.5899,3.5902,3.5916,3.5857,3.5678,3.5697,3.5624,3.5369,3.3918,3.3212,0.0,0.0,0.0,0.0,0.0,0.0,0.0,0.0,0.0,0.0,0.0,4.0681,4.0748,0.0,4.2262,4.2788,4.3268,4.362,4.3687,4.3322,4.2903,4.2435,4.2006,4.1927,4.2357,4.2396,4.2747,4.3645,4.4114,4.4156,4.3734,4.3705,4.3319,4.2422,4.1951,4.1479,4.1048,4.1048,4.1045,4.1035,4.1051,4.1067,4.1042,4.0999,4.0929,4.096,4.0948,4.0939,4.0969,4.0969,4.0969,4.093,4.1007,4.1011,4.1007,4.1006,4.0766,4.0443,4.0457,3.9886,3.9195,3.9195,3.865,3.7947,3.7947,3.7321,3.6656,3.6656,3.6344,3.5992,3.5992,3.5992,3.5992,3.5992,3.5992,3.5992,3.5992,3.5992,3.5992,3.5992,3.6348,3.6665,3.6668,3.7026,3.7615,3.8475,3.8984,3.9062,3.8622,3.8463,3.8244,3.7798,3.7647,3.7709,3.8174,3.7417,3.6947,3.6998,3.6293,3.5885,3.5889,3.5889,3.5889,3.5889,3.5897,3.5912,3.5894,3.5956,3.5973,3.5934,3.5045,3.4606,0.0,0.0,0.0,0.0,0.0,0.0,0.0,3.9646,3.9406,3.9612,4.039,4.1048,4.13,4.1893,4.2637,4.3409,4.3559,4.3626,4.3695,4.3558,4.3255,4.2708,4.2045,4.1967,4.2825,4.306,4.3567,4.4621,4.5324,4.5365,4.4512,4.4947,4.4522,4.2964,4.2732,4.2304,4.1601,4.1601,4.1601,4.16,4.1593,4.1618,4.1599,4.1535,4.1512,4.1497,4.1349,4.1163,4.0978,4.0987,4.0991,4.0995,4.0999,4.1006,4.1002,4.1026,4.1056,4.1118,4.109,4.0631,4.0054,4.0054,3.9509,3.8848,3.8848,3.8223,3.7559,3.7558,3.7049,3.6463,3.6305,3.6265,3.6226,3.6031,3.5992,3.5992,3.5992,3.5992,3.5992,3.5992,3.5999,3.6004,3.6004,3.6594,3.734,3.8202,3.8476,3.8317,3.7555,3.7386,3.7318,3.7333,3.7394,3.7665,3.8343,3.7677,3.714,3.6998,3.6237,3.5829,3.5889,3.5889,3.5889,3.5889,3.5889,3.5902,3.5884,3.598,3.6002,3.6015,3.6013,3.5953,3.8108,3.7507,3.6885,3.6962,3.7584,3.8176,0.0,3.8901,3.9612,4.0453,4.1396,4.2281,4.3065,4.3339,4.3487,4.3584,4.3599,4.3612,4.3706,4.3014,4.2786,4.345,4.3452,4.3762,4.4621,4.5402,4.6534,4.8096,4.833,4.8017,4.7198,4.6536,4.5718,4.4742,4.3962,4.3495,4.3417,4.3417,4.342,4.3426,4.3397,4.3398,4.3395,4.3343,4.3329,4.3277,4.2484,4.1677,4.0912,4.0978,4.0995,4.1015,4.1013,4.1045,4.1103,4.1095,4.1072,4.1092,4.1094,4.1023,4.0953,4.0953,4.0411,3.9752,3.9752,3.9131,3.8431,3.8464,3.8384,3.8149,3.7361,3.7165,3.697,3.6187,3.5992,3.5992,3.5992,3.5992,3.5992,3.5992,3.5999,3.6004,3.6004,3.6089,3.6444,3.7305,3.8044,3.8462,3.8358,3.8244,3.8162,3.8166,3.8783,3.9193,3.9164,3.8447,3.7659,3.6975,3.6202,3.5818,3.5886,3.5889,3.5889,3.5889,3.5889,3.5897,3.5912,3.5964,3.5985,3.6007,3.6014,3.5972,3.6808,3.7007,3.7469,3.7469,3.7738,3.8137,3.874,3.837,3.8489,4.0465,4.1604,4.2525,4.3458,4.4462,4.5026,4.4484,4.484,4.5195,4.5201,4.4461,4.4231,4.5129,4.5207,4.5363,4.5714,4.6534,4.7549,4.872,4.8798,4.8642,4.833,4.751,4.6651,4.5792,4.4894,4.4192,4.3686,4.3686,4.3689,4.3695,4.3705,4.3709,4.3711,4.3672,4.3628,4.3573,4.3192,4.2838,4.2471,4.2507,4.252,4.2529,4.2549,4.2607,4.25,4.1473,4.109,4.1103,4.1103,4.1106,4.1109,4.1114,4.0887,4.0581,4.0583,4.0,3.9296,3.9297,3.8943,3.8471,3.8155,3.7679,3.7204,3.6852,3.6383,3.5992,3.5992,3.5992,3.5994,3.5999,3.6007,3.6012,3.6015,3.5975,3.6085,3.6424,3.6774,3.6957,3.6947,3.6833,3.7186,3.8195,3.9458,4.0153,3.9998,3.8786,3.7894,3.7578,3.6383,3.5741,3.5826,3.5829,3.5829,3.5829,3.584,3.5853,3.5914,3.5936,3.5921,3.5947,3.5968,3.5976,3.6154,3.6731,3.77,3.793,3.8007,3.8183,3.887,3.8131,3.7948,4.0393,4.1455,4.2373,4.3768,4.4883,4.5519,4.5363,4.5675,4.6027,4.6261,4.5753,4.5675,4.6534,4.6846,4.7081,4.7315,4.7939,4.864,4.9462,4.9501,4.9423,4.9189,4.8601,4.7781,4.669,4.6066,4.5285,4.4426,4.4426,4.4429,4.4434,4.4439,4.4403,4.4406,4.4405,4.4217,4.3943,4.3974,4.3839,4.3612,4.3595,4.3603,4.3606,4.3651,4.3693,4.3538,4.228,4.181,4.1773,4.1537,4.1459,4.1422,4.1194,4.1087,4.1093,4.1094,4.066,4.0147,4.0152,3.9687,3.9178,3.898,3.8464,3.7946,3.7711,3.6971,3.6346,3.6346,3.6154,3.6001,3.6009,3.6014,3.5976,3.5973,3.5921,3.5896,3.5904,3.5866,3.585,3.5787,3.5961,3.6721,3.8479,3.9679,4.0417,4.0484,3.916,3.8229,3.7952,3.6646,3.5858,3.5736,3.5741,3.5741,3.5741,3.5724,3.5795,3.5875,3.5866,3.5897,3.5927,3.5998,3.5975,3.6692,3.6692,3.6923,3.7777,3.8007,3.8029,3.8105,3.8131,3.8678,4.051,4.0988,4.1827,4.439,4.4257,4.4309,4.5987,4.5558,4.5324,4.6183,4.6261,4.6573,4.7469,4.8252,4.9072,4.9889,5.0007,5.0397,5.1258,5.1336,5.0945,5.0124,5.0046,4.9265,4.7625,4.7547,4.712,4.6222,4.6222,4.6222,4.6223,4.6223,4.6218,4.6208,4.613,4.5677,4.4875,4.4879,4.4375,4.359,4.3592,4.3594,4.3593,4.3672,4.3711,4.3709,4.3628,4.362,4.3489,4.2669,4.2357,4.2201,4.139,4.1089,4.1094,4.1092,4.1085,4.1073,4.1047,4.1053,4.082,3.9996,3.9752,3.9546,3.8767,3.7873,3.7252,3.7252,3.6593,3.6012,3.6015,3.6014,3.597,3.5918,3.5894,3.5902,3.5914,3.5822,3.5775,3.5711,3.6445,3.7626,3.9358,3.9542,3.9754,4.0339,3.9623,3.8769,3.7868,3.7018,3.6292,3.5626,3.5593,3.5593,3.5593,3.562,3.5684,3.5815,3.5797,3.5878,3.6005,3.5986,3.597,3.6846,3.7123,3.7507,3.7199,3.7161,3.7175,3.7212,3.6856,3.7135,3.9543,4.0096,4.0778,4.2868,4.3984,4.4738,4.5324,4.6144,4.7235,4.8601,4.833,4.8486,4.9969,4.9852,5.0007,5.0867,5.0945,5.1063,5.1375,5.1414,5.1258,5.0984,5.0397,4.9577,4.8447,4.7899,4.7198,4.63,4.6294,4.629,4.629,4.6243,4.6233,4.622,4.6228,4.605,4.5753,4.5761,4.5616,4.5311,4.5347,4.5345,4.5344,4.5344,4.5387,4.5429,4.5429,4.5426,4.5221,4.3767,4.2864,4.2358,4.2058,4.1562,4.109,4.1083,4.1097,4.1108,4.1092,4.1117,4.1014,4.0742,4.0226,3.9743,3.9514,3.835,3.7457,3.7967,3.7422,3.6951,3.7567,3.7627,3.7602,3.7578,3.707,3.667,3.6626,3.6599,3.6566,3.6482,3.776,3.8889,3.9481,3.9946,4.0272,4.0399,3.909,3.8104,3.7776,3.6481,3.5664,3.5464,3.547,3.547,3.547,3.5519,3.5582,3.566,3.5754,3.5853,3.5917,3.5912,3.5913,3.7315,3.7353,3.7392,3.6846,3.6462,3.6283,3.6344,3.6169,3.6638,3.87,3.9455,4.0334,4.2432,4.402,4.5283,4.6222,4.7547,4.9109,5.0789,5.0555,5.0594,5.1726,5.1375,5.1141,5.1375,5.1414,5.1414,5.1414,5.1414,5.1414,5.1414,5.0867,5.0163,4.9306,4.8757,4.8053,4.7192,4.6874,4.6555,4.6279,4.6226,4.6215,4.6206,4.6209,4.6217,4.6187,4.6194,4.6208,4.6181,4.6212,4.621,4.621,4.6214,4.6227,4.6279,4.6245,4.6445,4.6483,4.4754,4.381,4.3226,4.261,4.2031,4.1516,4.1192,4.1083,4.1084,4.1108,4.1106,4.109,4.1093,4.0698,4.0295,4.0303,3.9255,3.832,3.8864,3.8272,3.783,3.8354,3.8444,3.841,3.8419,3.7949,3.7549,3.7458,3.7719,3.7892,3.7837,3.8816,3.9602,3.9855,4.032,4.0523,4.0397,3.9031,3.8074,3.7715,3.643,3.5584,3.5352,3.5314,3.5314,3.5314,3.5371,3.5445,3.5525,3.5643,3.5732,3.5822,3.5869,3.5884,3.8084,3.743,3.6769,3.6692,3.6115,3.5552,3.5554,3.6235,3.7147,3.8135,3.9056,4.0496,4.3042,4.4328,4.5831,4.833,4.954,5.075,5.247,5.2704,5.2704,5.2704,5.2665,5.2312,5.1492,5.1414,5.1414,5.1414,5.1414,5.1414,5.1414,5.1414,5.0984,5.0124,5.0085,4.9688,4.8818,4.7999,4.7133,4.634,4.6326,4.632,4.632,4.6342,4.6297,4.6258,4.6258,4.6258,4.6219,4.6219,4.6219,4.6219,4.6196,4.6184,4.6208,4.6218,4.6739,4.7259,4.5663,4.5112,4.4877,4.3201,4.2617,4.2375,4.1504,4.1207,4.1178,4.1113,4.1108,4.109,4.1093,4.109,4.1083,4.1091,4.043,3.9799,3.9861,3.9183,3.8578,3.8536,3.8514,3.8532,3.8537,3.8551,3.8563,3.8433,3.9154,3.9675,3.9507,3.9539,3.983,4.052,4.0528,4.0431,4.0309,3.9485,3.8602,3.7746,3.6869,3.6056,3.522,3.519,3.519,3.519,3.5269,3.5315,3.5391,3.5464,3.5588,3.5693,3.5779,3.5844,3.8977,3.8315,3.7507,3.6846,3.6538,3.6392,3.6399,3.7067,3.7963,3.8998,3.9403,4.0248,4.2259,4.3944,4.5644,4.7596,4.97,5.1453,5.2548,5.2704,5.2704,5.2704,5.2117,5.1648,5.1414,5.1414,5.1414,5.1414,5.1414,5.1414,5.1414,5.1414,5.0984,5.0124,5.0117,4.9681,4.8818,4.8563,4.835,4.8139,4.8135,4.8132,4.8132,4.8128,4.7774,4.715,4.715,4.6803,4.6219,4.6219,4.6219,4.6219,4.6183,4.6206,4.6194,4.6197,4.6759,4.7439,4.7016,4.6868,4.6793,4.6325,4.5307,4.4092,4.3304,4.2588,4.1911,4.1294,4.1116,4.1089,4.1092,4.1093,4.1091,4.1094,4.0422,3.9971,4.0572,4.0028,3.9601,4.0194,4.0287,4.0265,4.0252,4.0815,4.0985,4.0283,4.0914,4.1007,3.9661,4.0018,4.0436,4.0528,4.0462,4.0356,4.0251,3.9422,3.8565,3.7746,3.6943,3.609,3.5229,3.519,3.519,3.519,3.5269,3.5324,3.5345,3.545,3.5587,3.5688,3.5775,3.6164,4.0015,3.9477,3.87,3.7115,3.7,3.7161,3.6836,3.7704,3.8799,3.9402,3.9888,4.0726,4.2535,4.4337,4.6114,4.7868,4.9973,5.1843,5.3093,5.3288,5.3288,5.3288,5.2858,5.2234,5.1453,5.1414,5.1414,5.1414,5.1414,5.1414,5.1414,5.1414,5.1178,5.0703,5.0659,5.026,4.9385,4.9322,4.9149,4.8787,4.8787,4.8787,4.8787,4.8787,4.8514,4.8086,4.8086,4.7774,4.7345,4.7345,4.7345,4.7306,4.692,4.6775,4.6713,4.6323,4.6997,4.8062,4.8062,4.8538,4.8981,4.7868,4.6821,4.5884,4.5049,4.3907,4.2887,4.2804,4.2235,4.1703,4.2137,4.1949,4.1678,4.1629,4.0945,4.0445,4.0909,4.0637,4.0416,4.0913,4.0965,4.1024,4.1403,4.1893,4.2133,4.1933,4.2297,4.2273,4.1255,4.0835,4.0581,4.0423,4.0347,4.028,4.0177,3.9376,3.869,3.8317,3.7504,3.6795,3.6337,3.6298,3.6298,3.6298,3.6323,3.6348,3.6364,3.6473,3.6627,3.6753,3.6808,3.7179,4.1247,4.0669,3.9977,3.7777,3.77,3.7983,3.7301,3.8382,3.9606,3.9735,4.036,4.1455,4.3284,4.5002,4.6698,4.8529,5.0243,5.196,5.36,5.3912,5.3951,5.3834,5.3834,5.3171,5.157,5.1414,5.1414,5.1412,5.1412,5.1412,5.1412,5.141,5.1406,5.1394,5.1394,5.1026,5.0251,5.0197,4.9839,4.9138,4.9138,4.9138,4.9138,4.9138,4.906,4.8943,4.8943,4.8904,4.8787,4.8787,4.8787,4.8709,4.7969,4.7579,4.7423,4.6764,4.7501,4.8826,4.89,4.9991,5.0938,4.8733,4.7938,4.767,4.6818,4.5404,4.4234,4.4874,4.3953,4.2997,4.3786,4.3374,4.2675,4.2524,4.18,4.1149,4.1003,4.0987,4.0987,4.0991,4.093,4.1223,4.2185,4.2354,4.2626,4.3376,4.344,4.3415,4.3224,4.1875,4.0792,4.0509,4.0509,4.0406,4.0117,3.9498,3.909,3.9002,3.8285,3.7827,3.7712,3.7712,3.775,3.7865,3.7865,3.7941,3.8056,3.8065,3.8115,3.8278,3.823,3.8339,4.2739,4.1593,4.04,3.9938,3.9438,3.903,3.8985,3.9747,4.0525,4.064,4.0832,4.1527,4.3351,4.4543,4.5998,4.8418,5.0248,5.1765,5.278,5.3561,5.3717,5.3014,5.2938,5.2507,5.1492,5.1414,5.141,5.1401,5.1401,5.1401,5.1401,5.1389,5.1375,5.1323,5.132,5.1232,5.109,5.1086,5.1008,5.0852,5.0852,5.0852,5.0852,5.0852,5.0463,4.98,4.98,4.941,4.8787,4.8787,4.8787,4.8787,4.8631,4.8125,4.7579,4.8125,4.8553,4.8904,4.9547,5.0438,5.1226,5.0764,5.021,4.9482,4.8605,4.7616,4.6625,4.6056,4.5613,4.5414,4.5627,4.5024,4.4217,4.3536,4.2691,4.1879,4.1151,4.0987,4.0991,4.1007,4.0995,4.1474,4.3,4.3225,4.3445,4.4266,4.4348,4.4042,4.3296,4.2873,4.2332,4.1462,4.1915,4.1663,4.0231,4.0563,4.0337,3.9079,3.8858,3.8438,3.7712,3.7712,3.8056,3.8744,3.8782,3.9126,3.9843,3.9214,3.8969,3.909,3.8495,3.8651,4.397,4.3124,4.2277,4.1393,4.0893,4.05,4.017,4.0417,4.0782,4.0926,4.1026,4.1588,4.3357,4.4428,4.5686,4.7829,4.962,5.1023,5.1882,5.3171,5.3834,5.3444,5.3366,5.3014,5.2156,5.1683,5.1403,5.1399,5.1386,5.138,5.1386,5.1372,5.132,5.1314,5.1303,5.1292,5.132,5.132,5.132,5.132,5.132,5.132,5.132,5.132,5.1086,5.0696,5.0696,5.0463,5.0112,5.0112,5.0112,5.0073,4.9605,4.9177,4.8787,4.8787,4.8787,4.8861,4.9192,4.9608,5.0027,5.0426,5.0657,5.0651,5.019,4.9083,4.802,4.8072,4.7417,4.6781,4.7276,4.6792,4.606,4.5659,4.4582,4.3345,4.2427,4.2277,4.2291,4.2313,4.23,4.2704,4.3912,4.4106,4.433,4.5117,4.5184,4.5017,4.4506,4.4355,4.3576,4.1743,4.1436,4.1203,4.0802,4.1144,4.1223,4.0989,4.0998,4.0807,4.0387,4.0348,4.054,4.096,4.0998,4.1189,4.1609,4.1226,4.1102,4.1208,4.0454,4.0399,4.524,4.4586,4.397,4.2662,4.2077,4.1655,4.1086,4.0891,4.084,4.0972,4.1056,4.1644,4.3361,4.4271,4.5332,4.7276,4.8835,5.0124,5.0984,5.278,5.3912,5.3756,5.3873,5.3678,5.2778,5.1911,5.1396,5.1391,5.1323,5.131,5.1362,5.1314,5.1307,5.1307,5.1289,5.132,5.132,5.132,5.132,5.132,5.132,5.132,5.132,5.132,5.132,5.132,5.132,5.132,5.132,5.132,5.132,5.1242,5.0735,5.0424,5.0229,4.9761,4.9488,4.9329,4.9266,4.9244,4.9343,4.9969,5.0544,5.101,5.1123,5.0208,4.9264,4.9937,4.912,4.8242,4.8943,4.8499,4.7777,4.7217,4.5914,4.4533,4.3613,4.3441,4.3466,4.3496,4.3476,4.3723,4.455,4.467,4.4944,4.5698,4.5803,4.565,4.5325,4.5025,4.3953,4.1695,4.1251,4.1199,4.1383,4.1726,4.2148,4.2746,4.2794,4.2794,4.2794,4.2794,4.287,4.3061,4.3061,4.3138,4.3329,4.3149,4.3043,4.2966,4.2218,4.1951,4.6692,4.5509,4.4239,4.4124,4.2931,4.1817,4.1853,4.1325,4.0848,4.097,4.1037,4.1615,4.3372,4.3764,4.4662,4.7196,4.833,4.9228,5.0085,5.239,5.3717,5.2899,5.3522,5.3674,5.2765,5.1906,5.1389,5.132,5.1296,5.1285,5.1324,5.1285,5.1285,5.1285,5.1281,5.132,5.132,5.132,5.132,5.132,5.132,5.132,5.132,5.132,5.132,5.132,5.132,5.132,5.132,5.132,5.132,5.1359,5.2099,5.1865,5.1281,5.1982,5.1749,5.1039,5.0996,5.0977,5.0967,5.107,5.0592,5.017,5.0906,5.0953,5.0797,5.0879,5.0727,5.0581,5.0741,5.0195,4.8975,4.6622,4.5368,4.4465,4.3573,4.3408,4.3435,4.3495,4.3446,4.3691,4.4548,4.4634,4.4873,4.5691,4.5742,4.5379,4.4444,4.357,4.2611,4.1445,4.3274,4.3677,4.1573,4.2754,4.3368,4.2822,4.2794,4.2794,4.2794,4.2794,4.3138,4.3892,4.3892,4.4284,4.5059,4.4335,4.3618,4.2869,4.2154,4.1903,4.6394,4.6009,4.5748,4.5282,4.4267,4.3404,4.355,4.2586,4.1828,4.2442,4.2217,4.2435,4.4153,4.4465,4.4972,4.6573,4.7939,4.8915,4.9267,5.157,5.3093,5.2743,5.3008,5.3079,5.2723,5.189,5.1323,5.1296,5.1285,5.132,5.132,5.132,5.132,5.132,5.132,5.132,5.132,5.132,5.132,5.132,5.132,5.132,5.132,5.132,5.132,5.132,5.132,5.1593,5.2099,5.2099,5.2099,5.2177,5.3034,5.284,5.2177,5.3073,5.2489,5.1316,5.1287,5.0563,4.9766,5.0254,5.0169,4.9983,5.0843,5.1037,5.0988,5.1012,5.0937,5.0914,5.0998,5.0801,5.0202,4.8554,4.7986,4.7521,4.661,4.6435,4.6466,4.6511,4.6505,4.6409,4.6222,4.6171,4.6066,4.5856,4.5704,4.5282,4.4268,4.3761,4.2883,4.1407,4.165,4.1808,4.1411,4.2449,4.3215,4.351,4.4017,4.4284,4.4284,4.4284,4.4208,4.4006,4.4006,4.393,4.3787,4.396,4.3894,4.3579,4.3348,4.335,4.6355,4.6432,4.671,4.5894,4.487,4.4134,4.4548,4.3379,4.2489,4.3437,4.3197,4.3255,4.4737,4.501,4.5285,4.6144,4.7705,4.8798,4.8798,5.1063,5.2702,5.2698,5.2691,5.2682,5.2674,5.1827,5.1296,5.1281,5.132,5.132,5.132,5.132,5.132,5.132,5.132,5.132,5.132,5.132,5.132,5.132,5.1312,5.1312,5.1312,5.1537,5.165,5.1689,5.1923,5.2386,5.2931,5.2931,5.2936,5.3022,5.3918,5.3883,5.3424,5.4043,5.3502,5.2407,5.2152,5.1083,4.9936,5.0503,5.0446,5.028,5.092,5.1062,5.099,5.099,5.0921,5.0906,5.0975,5.1005,5.0826,4.9913,4.9734,4.9509,4.859,4.8449,4.847,4.847,4.847,4.8269,4.7661,4.7538,4.727,4.6623,4.6428,4.5885,4.4633,4.4371,4.3607,4.1797,4.1054,4.0908,4.1373,4.2155,4.2921,4.3586,4.4437,4.4934,4.4934,4.5163,4.501,4.4399,4.4388,4.4131,4.352,4.4131,4.4236,4.4006,4.4126,4.4457,4.7115,4.6885,4.6719,4.5896,4.446,4.346,4.4455,4.3471,4.2565,4.3495,4.3673,4.3957,4.4855,4.501,4.5285,4.6144,4.7705,4.8798,4.8798,5.1063,5.27,5.2687,5.2684,5.2674,5.26,5.1799,5.132,5.132,5.132,5.132,5.132,5.132,5.132,5.132,5.132,5.132,5.132,5.132,5.132,5.132,5.13,5.1291,5.133,5.212,5.2495,5.2534,5.3385,5.3774,5.3774,5.3774,5.3789,5.3852,5.4752,5.5117,5.5173,5.5173,5.5173,5.5018,5.41,5.3238,5.2567,5.2474,5.1853,5.1074,5.1088,5.1002,5.0898,5.0898,5.0898,5.0898,5.0898,5.0898,5.0705,4.99,4.9707,4.9475,4.8585,4.8392,4.8392,4.8392,4.8392,4.8392,4.8392,4.8323,4.8276,4.8188,4.8102,4.7415,4.5533,4.5281,4.4597,4.2764,4.2601,4.2259,4.1459,4.2186,4.2733,4.2832,4.3548,4.4006,4.4006,4.4857,4.5288,4.5288,4.5288,4.5288,4.5288,4.5288,4.4857,4.4006,4.4126,4.4807,4.624,4.6432,4.6728,4.5966,4.542,4.5136,4.5566,4.4834,4.4345,4.5263,4.5002,4.4855,4.5714,4.6333,4.6796,4.7069,4.8584,4.9672,4.9672,5.092,5.1818,5.1812,5.1765,5.1749,5.1721,5.148,5.132,5.132,5.1865,5.2177,5.2177,5.2762,5.2528,5.1359,5.132,5.132,5.132,5.132,5.132,5.132,5.13,5.1589,5.211,5.2396,5.2803,5.3324,5.3596,5.4062,5.4613,5.463,5.4658,5.4767,5.5643,5.5662,5.5251,5.5879,5.5723,5.5173,5.4857,5.4191,5.3485,5.3419,5.2767,5.2075,5.2047,5.158,5.102,5.099,5.0983,5.0975,5.0906,5.0921,5.0905,5.0642,5.0618,5.0555,5.0255,5.0177,5.0162,5.0132,5.0124,4.9939,4.9397,4.9251,4.8963,4.83,4.8095,4.7559,4.6296,4.6107,4.5671,4.4451,4.3814,4.2921,4.151,4.2702,4.3306,4.2832,4.4093,4.4895,4.4895,4.5163,4.501,4.4437,4.4399,4.4131,4.3596,4.4131,4.4888,4.5849,4.6022,4.6636,4.5748,4.624,4.6737,4.5966,4.559,4.5542,4.6044,4.5534,4.5304,4.6522,4.6372,4.6259,4.7075,4.7654,4.7999,4.7994,4.9196,5.0087,5.0087,5.0868,5.1372,5.1366,5.1314,5.1296,5.1281,5.1593,5.1787,5.1787,5.2606,5.3073,5.3073,5.3619,5.3385,5.2333,5.1943,5.1632,5.132,5.132,5.132,5.132,5.1603,5.2038,5.2508,5.313,5.3676,5.4187,5.4498,5.4964,0.0,5.5437,5.5507,5.5619,5.6153,5.6062,5.5735,5.6242,5.6125,5.5658,5.5658,5.5078,5.4342,5.428,5.3716,5.2918,5.2591,5.1824,5.1075,5.1034,5.102,5.0998,5.0914,5.0937,5.1012,5.0981,5.1041,5.1094,5.0995,5.102,5.099,5.0906,5.0898,5.0743,5.0241,5.0085,4.9826,4.9181,4.901,4.8583,4.7603,4.7483,4.7132,4.6221,4.5671,4.469,4.3011,4.324,4.3298,4.2832,4.4055,4.4819,4.4819,4.5125,4.5048,4.4513,4.4475,4.4246,4.3749,4.4551,4.5559,4.6704,4.7587,4.8326,0.0,4.6249,4.6639,4.5965,4.5246,4.4973,4.5967,4.5679,0.0,4.7272,4.7623,4.7893,4.8662,4.8855,4.8889,4.8875,4.9616,5.0202,5.0202,5.0943,5.1444,5.1392,5.1448,5.1476,5.1476,5.2212,5.268,5.268,5.3498,5.4,5.4,5.4039,5.4039,5.4,5.3182,5.2329,5.1398,5.1398,5.1359,5.132,5.213,5.2518,5.2636,5.42,5.4922,5.5002,5.5823,5.6172,5.6172,5.6178,5.6213,5.6291,5.6284,5.6319,5.6381,5.6381,5.6381,5.6381,5.6386,5.5857,5.5176,5.5117,5.4562,5.3745,5.285,5.1936,5.1153,5.1037,5.1002,5.1005,5.0921,5.0905,5.0911,5.09,5.0991,5.0991,5.0945,5.0963,5.1005,5.0921,5.0906,5.0906,5.0906,5.0841,5.0756,5.0616,5.0545,5.0199,4.9312,4.9186,4.8869,4.8056,4.7941,4.7264,4.5698,4.4017,4.3023,4.2908,4.3624,4.4083,4.4083,4.4857,4.5288,4.5288,4.5288,4.5288,4.5288,4.6118,4.6592,4.6829,4.8707,4.9681,4.6399,0.0,4.5966,4.5886,4.577,4.5779,0.0,4.656,4.7014,4.7443,4.8067,4.8574,4.8764,4.934,4.9799,4.9793,5.0485,5.1023,5.1023,5.176,5.2306,5.2302,5.2879,5.3307,5.3307,5.3446,5.3511,5.3511,5.4315,5.4811,5.4811,5.5434,5.5512,5.485,5.4616,5.3818,5.2294,5.2294,5.1943,5.132,5.213,5.2819,5.3462,5.4439,5.5219,5.5766,5.596,5.6037,5.6046,5.6086,5.6133,5.6132,5.6213,5.6246,5.6239,5.6239,5.6239,5.6245,5.6308,5.6181,5.5935,5.5346,5.5043,5.4693,5.3836,5.2928,5.2003,5.1262,5.1076,5.1082,5.1041,5.0558,5.0086,5.0157,5.0169,5.0169,5.0163,5.0649,5.1082,5.108,5.1034,5.1034,5.1034,5.0968,5.0833,5.0701,5.0634,5.0434,5.0077,5.0015,4.9939,4.9748,4.9175,4.864,4.8231,4.6615,4.5086,4.3815,4.4513,4.4972,4.4972,4.5201,4.5288,4.5288,4.5288,4.5288,4.5288,4.6118,4.6908,4.7711,4.9015,4.9991,4.6639,4.6598,4.6414,4.6965,4.6851,4.6787,4.7221,4.7411,4.7747,4.8527,4.9073,4.9499,4.9884,5.0654,5.1268,5.1257,5.1947,5.2333,5.1943,5.2294,5.2606,5.2606,5.3385,5.3888,5.3888,5.4182,5.4397,5.4383,5.5174,5.5625,5.5608,5.6036,5.6075,5.5608,5.5608,5.4624,5.2572,5.2961,5.2727,5.1871,5.3078,5.3841,5.4278,5.5116,5.5668,5.6012,5.6012,5.6012,5.6012,5.6054,5.6086,5.6118,5.6178,5.6213,5.6194,5.6246,5.6253,5.6259,5.6278,5.6314,5.628,5.5905,5.5801,5.5645,5.4749,5.4129,5.3501,5.2575,5.2352,5.2167,5.1315,5.0784,5.0353,4.9987,4.9609,4.957,5.0348,5.052,5.053,5.0494,5.0836,5.0953,5.0558,5.0763,5.0774,5.0216,5.0058,4.9792,4.9236,4.9519,4.9748,4.9748,4.9671,4.948,4.9148,4.822,4.715,4.584,4.5812,4.5851,4.5851,4.5851,4.6042,4.6424,4.6042,4.6042,4.6462,4.7302,4.7979,4.8565,4.9633,5.0448,4.6784,4.724,4.7586,4.8348,4.8049,4.779,4.8549,4.8266,4.8284,4.977,5.0199,5.0508,5.1154,5.2009,5.2586,5.2606,5.3346,5.3658,5.2918,5.2918,5.2995,5.2995,5.3771,5.4273,5.4273,5.4874,5.5278,5.5286,5.5919,5.6272,5.6201,5.6201,5.6201,5.6201,5.6201,5.5138,5.2897,5.3602,5.3485,5.2518,5.4163,5.4932,5.4943,5.5799,5.6125,5.6012,5.6012,5.6012,5.6012,5.6054,5.607,5.6078,5.6156,5.6185,5.6192,5.6272,5.6291,5.6298,5.6304,5.6347,5.6402,5.6494,5.6507,5.6351,5.5606,5.536,5.5147,5.4422,5.4007,5.343,5.1925,5.1353,5.103,5.0277,4.9498,4.9304,5.0709,5.0534,5.012,5.0209,5.0825,5.1136,5.0514,5.0862,5.0913,5.0014,4.9681,4.9219,4.8291,4.8842,4.9301,4.9301,4.9901,5.0015,4.9328,4.9289,4.8984,4.8208,4.7264,4.6691,4.6691,4.6691,4.7062,4.7788,4.7073,4.7062,4.7788,4.8678,4.9127,4.9217,5.0289,5.0874,4.7462,4.8546,4.9103,4.8681,4.854,4.8569,4.8744,4.9219,4.9691,4.9964,5.0587,5.1133,5.1285,5.2025,5.261,5.2606,5.3346,5.3849,5.3732,5.4355,5.4784,5.4784,5.5511,5.6008,5.6008,5.608,5.6113,5.6116,5.6201,5.6199,5.6202,5.6194,5.6194,5.6194,5.6194,5.5659,5.4541,5.4718,5.4012,5.2451,5.4091,5.4904,5.4939,5.5754,5.6062,5.6012,5.6012,5.6012,5.6012,5.6012,5.602,5.602,5.6078,5.6118,5.6117,5.6192,5.6226,5.622,5.6281,5.6358,5.6427,5.6498,5.6507,5.6468,5.6351,5.6308,5.6264,5.6109,5.4981,5.3735,5.3457,5.2295,5.1176,5.1083,5.0412,4.9858,5.011,5.0602,5.1201,5.194,5.2207,5.2479,5.3068,5.2624,5.2072,5.1734,5.1048,5.0433,5.0041,5.0122,5.0187,5.013,5.0245,5.0245,5.013,5.013,5.0054,4.9939,4.8437,4.7597,4.7597,4.7597,4.7674,4.7788,4.7674,4.7674,4.7788,4.8678,4.9127,4.9217,5.0289,5.0874,4.767,4.8539,4.9123,4.9848,5.0407,5.0934,5.1437,5.1476,5.1398,5.1398,5.171,5.1982,5.1982,5.2723,5.3619,5.4554,5.4632,5.4589,5.4589,5.494,5.5212,5.5212,5.5896,5.6383,5.6329,5.6314,5.6253,5.6199,5.6156,5.6118,5.607,5.607,5.607,5.607,5.607,5.5683,5.4831,5.5296,5.4946,5.3779,5.5007,5.5559,5.556,5.5932,5.6054,5.6012,5.6037,5.6046,5.6046,5.607,5.6358,5.6706,5.6327,5.6442,5.6795,5.6421,5.6296,5.6314,5.6358,5.6383,5.6398,5.6498,5.6507,5.6507,5.6507,5.6507,5.6507,5.6507,5.5905,5.503,5.4095,5.3277,5.2425,5.1537,5.0637,5.0127,5.0603,5.0984,5.1364,5.1754,5.2611,5.3234,5.3156,5.3156,5.278,5.1722,5.1138,5.0443,4.9278,4.9503,4.9734,4.9645,5.0054,5.0283,5.0283,5.0283,5.0092,4.9671,4.8945,4.8487,4.8487,4.8067,4.8208,4.9137,4.8716,4.8716,4.9137,4.9557,4.9816,4.9935,5.0984,5.1579,4.7452,4.8314,4.9117,5.0803,5.1754,5.2508,5.3389,5.3073,5.2645,5.2879,5.2918,5.2918,5.2918,5.3619,5.471,5.6234,5.5914,5.5481,5.5481,5.5476,5.5472,5.5472,5.5999,5.6363,5.6292,5.6278,5.6213,5.6094,5.6094,5.6054,5.6012,5.6012,5.6012,5.6012,5.6012,5.5702,5.5084,5.5702,5.5612,5.4909,5.5723,5.6133,5.6062,5.6062,5.6046,5.6012,5.6054,5.6078,5.6094,5.618,5.6667,5.7341,5.6756,5.6952,5.7462,5.6703,5.6407,5.6412,5.6432,5.6441,5.6441,5.6459,5.6507,5.6507,5.6507,5.6507,5.6507,5.6507,5.6507,5.6195,5.4866,5.4359,5.3849,5.2528,5.1554,5.1086,5.1749,5.1904,5.1982,5.2177,5.3307,5.4048,5.358,5.3857,5.3618,5.2208,5.1755,5.0906,4.9246,4.9673,5.0023,4.9755,5.0268,5.0524,5.0321,5.0283,5.0054,4.9404,4.9366,4.9366,4.9366,4.8754,4.8984,5.0283,4.9671,4.9671,5.0283,5.0283,5.0466,5.0818,5.1687,5.2276,4.6728,4.8333,4.9932,5.0931,5.1312,5.1632,5.2489,5.2645,5.284,5.3658,5.381,5.381,5.381,5.4511,5.5411,5.6351,5.6407,5.6315,5.6315,5.6295,5.6319,5.6319,5.6292,5.6296,5.6304,5.6226,5.617,5.6125,5.6117,5.6054,5.6012,5.6012,5.6012,5.6012,5.6012,5.5973,5.5896,5.5973,5.5586,5.4821,5.5634,5.6012,5.6012,5.6012,5.6012,5.6012,5.6054,5.6102,5.6102,5.6178,5.6724,5.7496,5.7489,5.7581,5.7595,5.6801,5.6503,5.6503,5.6503,5.6503,5.6503,5.6507,5.6507,5.6507,5.6507,5.6507,5.6507,5.6507,5.6507,5.6468,5.6351,5.5723,5.5056,5.494,5.4238,5.3658,5.3693,5.3693,5.3966,5.4745,5.5018,5.5333,5.6078,5.555,5.4933,5.4764,5.396,5.2993,5.1859,5.2434,5.2549,5.1622,5.1561,5.127,5.0359,5.0283,5.0283,5.0206,5.0206,5.0206,5.0206,5.0168,5.0168,5.0283,5.0245,5.0245,5.0283,5.0283,5.0773,5.171,5.1996,5.2585,4.815,4.9149,4.997,5.0891,5.1585,5.2416,5.3883,5.4632,5.51,5.545,5.5528,5.5178,5.4087,5.5061,5.5957,5.5723,5.6095,5.6383,5.6329,5.6342,5.6314,5.6296,5.6265,5.6226,5.6192,5.6148,5.6102,5.6037,5.6037,5.6029,5.6012,5.6012,5.6012,5.6012,5.6012,5.6012,5.6012,5.6012,5.5857,5.5548,5.5857,5.6012,5.6012,5.6012,5.6012,5.6012,5.6125,5.618,5.6185,5.6246,5.71,5.8375,5.8448,5.8164,5.76,5.681,5.6507,5.6507,5.6507,5.6507,5.6507,5.6507,5.6507,5.6507,5.6507,5.6507,5.6507,5.6507,5.6507,5.6507,5.6507,5.6273,5.5879,5.5329,5.494,5.455,5.4004,5.4316,5.4823,5.5134,5.5645,5.6113,5.6429,5.6225,5.5784,5.522,5.478,5.4167,5.3131,5.3204,5.3127,5.2602,5.2016,5.1491,5.1123,5.0627,5.0283,5.0283,5.0283,5.0283,5.0283,5.0283,5.0283,5.0283,5.0283,5.0333,5.0367,5.0367,5.09,5.1943,5.2644,5.349,4.8711,4.9366,4.9804,5.0474,5.1564,5.2791,5.4042,5.5009,5.5844,5.639,5.6507,5.6156,5.4944,5.568,5.626,5.5671,5.6038,5.6358,5.6325,5.6296,5.6259,5.6226,5.6199,5.6163,5.6126,5.6094,5.6054,5.6012,5.6012,5.6012,5.6012,5.6012,5.6012,5.6012,5.6012,5.6012,5.6012,5.6012,5.6012,5.6012,5.6012,5.6012,5.6012,5.6012,5.6012,5.6012,5.6141,5.6209,5.6219,5.629,5.7198,5.8514,5.8574,5.8233,5.7614,5.681,5.6507,5.6507,5.6507,5.6507,5.6507,5.6507,5.6507,5.6507,5.6507,5.6507,5.6507,5.6507,5.6507,5.6507,5.6507,5.6507,5.6351,5.5762,5.5606,5.545,5.4866,5.5178,5.5606,5.5606,5.6074,5.6507,5.6507,5.6507,5.6312,5.5684,5.5531,5.5141,5.4152,5.4192,5.4069,5.3609,5.2877,5.2294,5.2038,5.1212,5.0818,5.1085,5.0856,5.0588,5.0321,5.0283,5.0436,5.0703,5.0703,5.0879,5.1178,5.1234,5.1795,5.2829,5.3584,5.4459,4.7892,4.8814,4.9544,4.9589,5.1011,5.2418,5.2408,5.322,5.4398,5.6156,5.6507,5.6507,5.6507,5.6446,5.6393,5.6393,5.6342,5.629,5.6298,5.6219,5.6185,5.618,5.6218,5.6164,5.6117,5.6117,5.6054,5.6012,5.6012,5.6012,5.6012,5.6012,5.6012,5.6012,5.6012,5.6012,5.6012,5.6012,5.6012,5.6012,5.6012,5.6012,5.6012,5.6012,5.6012,5.6012,5.6141,5.6185,5.622,5.6364,5.6928,5.7715,5.7715,5.7715,5.7637,5.6819,5.6507,5.6507,5.6507,5.6507,5.6507,5.6507,5.6507,5.6507,5.6507,5.6507,5.6507,5.6507,5.6507,5.6507,5.6507,5.6507,5.6507,5.6507,5.6507,5.6507,5.6507,5.6507,5.6507,5.6507,5.6507,5.6507,5.6507,5.6507,5.6507,5.6507,5.6446,5.6062,5.5114,5.5702,5.5761,5.4632,5.4314,5.3869,5.2989,5.2115,5.1964,5.2728,5.204,5.1238,5.0359,5.0321,5.0741,5.162,5.1608,5.2038,5.2912,5.3053,5.3619,5.4612,5.4805,5.539,4.9451,5.0067,5.0459,5.1117,5.1803,5.2628,5.3883,5.4484,5.5139,5.6273,5.6935,5.697,5.5801,5.6017,5.6188,5.5584,5.5925,5.6285,5.6185,5.6141,5.6102,5.6054,5.6046,5.6046,5.6029,5.6029,5.602,5.6012,5.6012,5.6012,5.6012,5.6012,5.6012,5.6012,5.6012,5.6012,5.6012,5.6012,5.6012,5.6012,5.6012,5.6012,5.6012,5.6046,5.6054,5.6062,5.6148,5.6226,5.6335,5.704,5.7818,5.8607,5.8607,5.8996,5.9347,5.7871,5.7325,5.7247,5.6702,5.6507,5.6507,5.6507,5.6507,5.6507,5.6507,5.6507,5.6507,5.6507,5.6507,5.6507,5.6507,5.6507,5.6507,5.6507,5.6507,5.6507,5.6507,5.6507,5.6507,5.6507,5.6507,5.6312,5.5684,5.5606,5.5606,5.5606,5.5559,5.5658,5.588,5.609,5.6015,5.5582,5.4842,5.4222,5.3901,5.2992,5.2537,5.2766,5.2575,5.2346,5.2079,5.204,5.2217,5.2494,5.2494,5.2713,5.3126,5.3205,5.3778,5.48,5.4925,5.5469,5.0429,5.0998,5.1216,5.2164,5.2803,5.3511,5.4741,5.5366,5.5879,5.639,5.7161,5.7502,5.6835,5.7079,5.7203,5.6664,5.6699,5.6749,5.6629,5.6327,5.6101,5.6012,5.6012,5.6012,5.6012,5.6012,5.6012,5.6012,5.6012,5.6012,5.6012,5.6012,5.6012,5.6012,5.6012,5.6012,5.6012,5.6012,5.6012,5.6012,5.6377,5.654,5.654,5.6613,5.6629,5.6614,5.6724,5.6801,5.6892,5.7108,5.7715,5.849,5.849,5.9035,5.962,5.8217,5.7715,5.7598,5.678,5.6507,5.6507,5.6507,5.6507,5.6507,5.6507,5.6507,5.6507,5.6507,5.6507,5.6507,5.6507,5.6507,5.6507,5.6507,5.6507,5.6507,5.6507,5.6507,5.6507,5.6507,5.6507,5.6234,5.5333,5.5489,5.5606,5.5251,5.5489,5.5861,5.628,5.6245,5.6139,5.6029,5.5316,5.4831,5.4768,5.3884,5.3454,5.3798,5.3492,5.3454,5.3836,5.3148,5.2994,5.341,5.348,5.3727,5.4217,5.4392,5.48,5.5469,5.5553,5.5911,5.0932,5.1608,5.1835,5.2843,5.3909,5.4793,5.5127,5.5914,5.6576,5.6507,5.7186,5.8057,5.8831,5.8943,5.8888,5.881,5.8076,5.7482,5.7395,5.6651,5.6054,5.6012,5.6012,5.6012,5.6012,5.6012,5.6012,5.6012,5.6012,5.6012,5.6012,5.6012,5.6012,5.6012,5.6012,5.6012,5.6012,5.6089,5.6128,5.6128,5.7069,5.752,5.7528,5.7528,5.7513,5.7528,5.7669,5.777,5.7756,5.7039,5.7208,5.7949,5.7949,5.8451,5.9113,5.8256,5.791,5.7715,5.6896,5.6546,5.6507,5.6507,5.6507,5.6507,5.6507,5.6507,5.6507,5.6507,5.6507,5.6507,5.6507,5.6507,5.6507,5.6507,5.6507,5.6507,5.6507,5.6507,5.6507,5.6507,5.6507,5.6234,5.5333,5.584,5.6113,5.5329,5.5957,5.6489,5.6397,5.6272,5.6156,5.602,5.5748,5.5554,5.5523,5.4713,5.4562,5.5365,5.4677,5.4562,5.5365,5.3874,5.3453,5.4291,5.4436,5.4919,5.5808,5.6071,5.6233,5.6308,5.6432,5.6546,5.0932,5.1608,5.1988,5.3621,5.4863,5.5583,5.5203,5.6285,5.7191,5.6615,5.7692,5.8753,5.8888,5.8868,5.8803,5.8731,5.7986,5.7403,5.7345,5.6562,5.602,5.6012,5.6012,5.6012,5.6012,5.6012,5.6012,5.6012,5.6012,5.6012,5.6012,5.6012,5.6012,5.6012,5.6012,5.6012,5.6012,5.6661,5.7009,5.7009,5.7959,5.8427,5.842,5.8451,5.8542,5.8577,5.8649,5.8725,5.8691,5.852,5.8957,5.9737,5.9737,6.0282,6.0945,6.0049,5.9308,5.8607,5.7754,5.7013,5.6507,5.6507,5.6507,5.6507,5.6507,5.6507,5.6507,5.6507,5.6507,5.6507,5.6507,5.6507,5.6507,5.6507,5.6507,5.6507,5.6507,5.6507,5.6507,5.6507,5.6507,5.6234,5.5333,5.5372,5.5411,5.5212,5.5957,5.645,5.6358,5.6251,5.6146,5.6029,5.575,5.5561,5.5497,5.5287,5.5212,5.5403,5.5212,5.5212,5.5403,5.5059,5.4956,5.5231,5.5285,5.5525,5.5938,5.6102,5.6259,5.6381,5.6441,5.6858,5.0932,5.1888,5.2624,5.4457,5.5431,5.5852,5.5682,5.6963,5.807,5.7702,5.8665,5.9682,6.0035,6.0028,5.9963,5.9916,5.9185,5.8424,5.7994,5.7172,5.6467,5.6051,5.6012,5.6012,5.6012,5.6012,5.6012,5.6012,5.6012,5.6012,5.6012,5.6012,5.6012,5.6012,5.6012,5.6197,5.6622,5.7112,5.7555,5.7981,5.89,5.9584,5.9993,5.9646,5.973,6.0127,5.9781,5.9601,5.9606,5.9187,5.9503,6.0282,6.0282,6.0828,6.149,6.0633,6.001,5.9425,5.8144,5.7442,5.7013,5.6624,5.6507,5.6507,5.6507,5.6507,5.6507,5.6507,5.6507,5.6507,5.6507,5.6507,5.6507,5.6507,5.6507,5.6507,5.6507,5.6507,5.6507,5.6507,5.6459,5.6173,5.5302,5.5122,5.5219,5.5608,5.608,5.6331,5.6226,5.6153,5.6048,5.5932,5.5707,5.5504,5.5449,5.5415,5.5416,5.5403,5.5403,5.5428,5.5453,5.5428,5.5402,5.5437,5.5554,5.5679,5.5902,5.6102,5.6265,5.637,5.6441,5.6935,5.0729,5.2205,5.3451,5.5154,5.5794,5.6029,5.6311,5.7727,5.8997,5.9069,5.9808,6.0592,6.125,6.1322,6.1275,6.1191,6.0476,5.9654,5.8922,5.8062,5.725,5.6515,5.6437,5.6399,5.6235,5.6197,5.6158,5.6012,5.6012,5.6012,5.6012,5.6012,5.6012,5.6012,5.6167,5.6583,5.728,5.765,5.8217,5.8922,5.9878,6.0734,6.1415,6.075,6.0811,6.1456,6.0818,6.0516,6.0477,5.9737,5.9854,6.0516,6.0516,6.0984,6.149,6.0789,6.0438,6.0088,5.8646,5.8066,5.7793,5.7169,5.6935,5.6896,5.6741,5.6819,5.6896,5.6741,5.6819,5.6935,5.6935,5.6935,5.6935,5.6935,5.6935,5.6858,5.6546,5.6507,5.6507,5.6507,5.6437,5.6124,5.5392,5.521,5.5397,5.6057,5.6135,5.6114,5.6071,5.5982,5.5865,5.5766,5.5593,5.5463,5.5415,5.539,5.539,5.5415,5.5413,5.5449,5.5497,5.5461,5.5425,5.5401,5.5516,5.5735,5.6011,5.6281,5.6531,5.6724,5.686,5.7364,4.9965,5.2203,5.424,5.5183,5.6092,5.6806,5.6955,5.838,5.9689,5.984,6.0589,6.125,6.1213,6.1234,6.1191,6.1137,6.0431,5.9851,5.9725,5.899,5.8372,5.8255,5.8255,5.7946,5.7202,5.7125,5.6815,5.6051,5.6012,5.6012,5.6012,5.6012,5.6012,5.6012,5.6738,5.7164,5.728,5.8803,5.9667,5.9824,6.0825,6.1367,6.1484,6.1432,6.1432,6.1495,6.1442,6.1412,6.1412,6.1295,6.1334,6.1412,6.1412,6.149,6.1607,6.1451,6.0945,6.0282,6.001,5.9464,5.8802,5.8685,5.8685,5.8529,5.7754,5.8066,5.849,5.7754,5.8066,5.8685,5.8685,5.8685,5.8685,5.8685,5.8685,5.826,5.6819,5.6507,5.6507,5.6507,5.6352,5.6175,5.5991,5.587,5.5813,5.593,5.593,5.5935,5.5845,5.574,5.5626,5.5531,5.5477,5.5428,5.5416,5.5403,5.539,5.5415,5.5504,5.5572,5.5604,5.5572,5.5538,5.5473,5.5497,5.5934,5.6827,5.7099,5.7674,5.8474,5.8603,5.9113,5.0262,5.2094,5.3633,5.497,5.5989,5.6714,5.6862,5.8269,5.9637,5.9812,6.0562,6.1169,6.1217,6.1199,6.1173,6.1127,6.0809,6.0422,5.9957,5.9571,5.9145,5.8651,5.8613,5.8255,5.7396,5.7753,5.7675,5.6777,5.7172,5.7443,5.7443,5.7443,5.7443,5.7443,5.7856,5.8291,5.8755,5.9606,6.0259,6.0784,6.1271,6.1518,6.1495,6.1559,6.1564,6.1554,6.1602,6.1607,6.1607,6.1607,6.1607,6.1607,6.1607,6.1607,6.1607,6.1607,6.1373,6.0945,6.0477,6.0049,5.9659,5.9152,5.8996,5.8918,5.8529,5.8685,5.8918,5.8529,5.8685,5.8996,5.8996,5.8996,5.8996,5.8996,5.8996,5.8802,5.8066,5.7896,5.7712,5.7181,5.653,5.6064,5.5935,5.5836,5.5808,5.5808,5.5808,5.574,5.5707,5.5583,5.5531,5.5437,5.5798,5.6052,5.6052,5.6511,5.6817,5.6893,5.6975,5.7016,5.7099,5.7099,5.7115,5.7059,5.5986,5.5909,5.6878,5.7157,5.7792,5.8683,5.8893,5.9464,5.0329,5.1688,5.269,5.4406,5.5486,5.6303,5.6818,5.8182,5.9456,5.9886,6.0488,6.0992,6.1137,6.1164,6.1155,6.1118,6.1118,6.0886,6.0306,6.019,5.9957,5.93,5.9223,5.8797,5.7714,5.841,5.8488,5.7396,5.8101,5.8613,5.8613,5.8613,5.8613,5.8613,5.885,5.9301,5.993,6.0274,6.078,6.1421,6.1479,6.1544,6.1544,6.1559,6.1607,6.1607,6.1607,6.1607,6.1607,6.1607,6.1607,6.1607,6.1607,6.1607,6.1607,6.1607,6.1607,6.149,6.0867,6.0633,6.0516,5.9854,5.9659,5.962,5.9386,5.9503,5.962,5.9386,5.9503,5.9659,5.9659,5.9659,5.9659,5.9659,5.9654,5.9494,5.9056,5.8797,5.8381,5.7589,5.6588,5.5865,5.573,5.5654,5.5615,5.5615,5.5615,5.5681,5.5815,5.5806,5.5834,5.6014,5.6575,5.6931,5.6931,5.7542,5.7939,5.8055,5.8076,5.8131,5.8269,5.8291,5.8319,5.8314,5.6851,5.6548,5.7477,5.7718,5.8321,5.9249,5.9503,5.9976,4.9632,5.0773,5.1839,5.347,5.4538,5.5597,5.7257,5.8394,5.9408,6.0438,6.0723,6.0839,6.0992,6.1051,6.1118,6.1118,6.1118,6.1079,6.1041,6.1041,6.1041,6.0963,6.0963,6.0344,5.8681,5.93,5.9145,5.7434,5.8101,5.8613,5.8613,5.8613,5.8613,5.8613,5.9383,5.9899,5.9979,6.0948,6.1456,6.1489,6.1554,6.1607,6.1607,6.1607,6.1607,6.1607,6.1607,6.1607,6.1607,6.1607,6.1607,6.1607,6.1607,6.1607,6.1607,6.1607,6.1607,6.1607,6.1568,6.1529,6.1529,6.149,6.1451,6.1295,6.0477,6.0828,6.1295,6.0477,6.0828,6.1451,6.1451,6.1451,6.1451,6.1451,6.1432,6.09,5.9271,5.8213,5.7508,5.7262,5.6339,5.5605,5.552,5.5477,5.5416,5.5416,5.5416,5.5683,5.646,5.6524,5.6868,5.7657,5.781,5.781,5.781,5.7886,5.7913,5.7992,5.805,5.8115,5.8204,5.8336,5.8375,5.8301,5.8149,5.8439,5.9264,5.9419,5.9988,6.0973,6.1167,6.1298,4.8922,5.0238,5.1554,5.2683,5.3998,5.5274,5.6458,5.7847,5.9183,6.0196,6.052,6.0659,6.0817,6.1002,6.1118,6.1118,6.1118,6.1118,6.1118,6.1118,6.1118,6.1118,6.1118,6.0654,5.9532,6.019,6.019,5.9068,5.9725,6.019,6.019,6.0256,6.0274,6.0274,6.0622,6.0817,6.0833,6.1204,6.1401,6.1434,6.149,6.1528,6.1544,6.1564,6.1607,6.1607,6.1607,6.1607,6.1607,6.1607,6.1607,6.1607,6.1607,6.1607,6.1607,6.1607,6.1607,6.1607,6.1607,6.1607,6.1607,6.1607,6.1607,6.1529,6.1218,6.1334,6.1529,6.1218,6.1373,6.1607,6.1607,6.1607,6.1598,6.1562,6.1439,6.1182,6.0476,5.9614,5.8927,5.8761,5.7879,5.7131,5.7123,5.7035,5.7008,5.7008,5.7008,5.7122,5.739,5.7428,5.7542,5.7886,5.8345,5.8689,5.8689,5.9185,5.9532,5.9599,5.9664,5.9763,5.9858,5.9969,6.0022,6.004,5.9914,5.9719,5.9379,5.9457,5.9969,6.0931,6.1068,6.1173,4.8226,4.9606,5.106,5.1912,5.311,5.4381,5.5519,5.7104,5.8585,5.9587,6.0099,6.0455,6.0731,6.112,6.1417,6.1534,6.1776,6.1969,6.1969,6.1969,6.1853,6.1582,6.1543,6.1118,5.9996,6.0615,6.077,5.9957,6.0654,6.1118,6.1118,6.1164,6.1191,6.1208,6.1228,6.1252,6.1244,6.1228,6.1236,6.1283,6.1376,6.1433,6.1462,6.1549,6.1607,6.1607,6.1607,6.1607,6.1607,6.1607,6.1607,6.1607,6.1607,6.1607,6.1607,6.1607,6.1602,6.1554,6.1583,6.1534,6.1528,6.1518,6.1518,6.1518,6.1518,6.1518,6.1518,6.1518,6.1518,6.1518,6.1518,6.1518,6.1501,6.1434,6.132,6.1181,6.1041,6.0297,5.9619,5.9507,5.8678,5.7966,5.7966,5.7913,5.7886,5.7886,5.7886,5.8001,5.8268,5.8307,5.8421,5.8689,5.9224,5.9529,5.9529,6.0064,6.0436,6.0439,6.0531,6.0572,6.0685,6.0793,6.0861,6.0933,6.0905,6.0542,5.9911,5.9873,6.0177,6.08,6.0882,6.0993,0.0,0.0,0.0,5.1154,5.1952,5.2924,5.4567,5.6194,5.7635,5.8646,5.9549,6.0279,6.0635,6.1426,6.2121,6.2384,6.312,6.3671,6.3671,6.371,6.3362,6.254,6.2433,6.1814,6.0151,6.0731,6.0847,6.0035,6.0692,6.1118,6.1118,6.1164,6.1255,6.1306,6.122,6.1164,6.1122,6.102,6.102,6.1113,6.1244,6.1324,6.1402,6.1534,6.1607,6.1607,6.1607,6.1607,6.1607,6.1607,6.1607,6.1607,6.1607,6.1607,6.1607,6.1607,6.1554,6.1484,6.149,6.146,6.1389,6.1388,6.1381,6.1381,6.1381,6.1381,6.1381,6.1381,6.1381,6.1381,6.1381,6.1381,6.1359,6.1236,6.1143,6.1022,6.0817,6.0084,5.94,5.9344,5.8604,5.7963,5.7963,5.7963,5.7963,5.7963,5.7963,5.8268,5.9033,5.9133,5.9453,6.0293,6.0422,6.0422,6.0422,6.0422,6.0422,6.0422,6.0422,6.045,6.0518,6.0634,6.0742,6.0781,6.0923,6.0953,6.0911,6.0757,6.0722,6.0781,6.0781,6.0905,4.7799,0.0,0.0,0.0,0.0,0.0,5.311,5.459,5.6116,5.7537,5.8547,5.9429,6.0203,6.16,6.2705,6.2823,6.3245,6.3548,6.3548,6.359,6.3534,6.3302,6.3303,6.3168,6.2675,6.2868,6.2627,6.1776,6.1968,6.1831,6.1203,6.1275,6.1329,6.1383,6.1252,6.1195,6.1191,6.0992,6.0951,6.1012,6.1156,6.1259,6.1324,6.1523,6.1607,6.1607,6.1607,6.1559,6.1544,6.1564,6.1607,6.1607,6.1607,6.1607,6.1607,6.1607,6.1578,6.149,6.1396,6.1296,6.1221,6.1148,6.1122,6.1122,6.1122,6.1122,6.1122,6.1122,6.1122,6.1122,6.1122,6.1122,6.1095,6.1003,6.0892,6.0762,6.0697,6.0393,6.0123,6.0162,5.9903,5.972,5.972,5.972,5.972,5.972,5.972,5.9797,5.9988,6.0026,6.0141,6.037,6.0422,6.0422,6.0422,6.0422,6.0422,6.0422,6.0422,6.045,6.0518,6.0585,6.0685,6.0781,6.0894,6.0916,6.0911,6.0754,6.0683,6.0635,6.0597,6.0647,4.8423,4.9498,5.0497,5.0497,0.0,0.0,5.2155,5.3785,5.5407,5.6253,5.7711,5.9018,5.9622,6.1168,6.2371,6.2435,6.3181,6.3898,6.4306,6.4443,6.4347,6.4056,6.411,6.4046,6.371,6.3719,6.3487,6.2975,6.2983,6.2689,6.1848,6.1568,6.1415,6.1401,6.1306,6.1228,6.1155,6.091,6.0834,6.0899,6.105,6.1173,6.1267,6.1507,6.1607,6.1607,6.1607,6.1549,6.1512,6.1468,6.1507,6.1518,6.1507,6.1501,6.1501,6.1501,6.146,6.1349,6.1237,6.1148,6.105,6.0943,6.0913,6.0913,6.0913,6.0913,6.0913,6.0913,6.0913,6.0913,6.0913,6.0913,6.0892,6.0845,6.0742,6.0634,6.0559,6.0453,6.0422,6.0464,6.045,6.0422,6.0422,6.0422,6.0422,6.0422,6.0422,6.0422,6.0422,6.0422,6.0422,6.0422,6.0422,6.0422,6.0422,6.0422,6.0422,6.0422,6.0422,6.0589,6.0936,6.1002,6.1236,6.1697,6.1462,6.1135,6.0839,6.0731,6.0622,6.0531,6.0531,6.0546,4.9239,5.0009,0.0,5.0625,5.1154,0.0,5.1529,5.3286,5.4919,5.4977,5.6868,5.8625,5.8904,6.0213,6.1282,6.1357,6.2768,6.4182,6.5259,6.5572,6.5436,6.4805,6.4837,6.4646,6.4038,6.3971,6.3932,6.3816,6.3709,6.3374,6.2718,6.1901,6.1453,6.1383,6.1317,6.1229,6.1127,6.0839,6.0754,6.0793,6.0943,6.1086,6.1181,6.1484,6.1598,6.1593,6.1593,6.1557,6.1453,6.131,6.1303,6.1376,6.1373,6.1359,6.1359,6.1359,6.1268,6.1178,6.1079,6.0982,6.0867,6.0781,6.0746,6.0746,6.0746,6.0746,6.0746,6.0746,6.0746,6.0746,6.0746,6.0746,6.0734,6.0673,6.061,6.0546,6.048,6.0425,6.0422,6.0422,6.0422,6.0422,6.0422,6.0422,6.0422,6.0422,6.0422,6.0422,6.0422,6.0422,6.0422,6.0422,6.0499,6.0537,6.0537,6.0613,6.0676,6.0676,6.0676,6.0981,6.1707,6.1745,6.2132,6.2968,6.235,6.1668,6.095,6.0786,6.0585,6.0422,6.054,6.0606,4.9621,5.0232,5.085,5.085,5.0971,0.0,5.0933,5.1739,5.2894,5.4123,5.5274,5.6499,5.7953,5.8974,5.9543,5.9459,6.0821,6.2513,6.4144,6.5035,6.5517,6.5512,6.5551,6.5599,6.5572,6.5545,6.5275,6.4619,6.3399,6.2644,6.2555,6.1795,6.1313,6.1306,6.1298,6.1244,6.1173,6.0931,6.0811,6.09,6.0963,6.103,6.1139,6.1383,6.149,6.1427,6.1441,6.1388,6.1268,6.1178,6.1186,6.1213,6.1131,6.1095,6.1095,6.1095,6.1041,6.0933,6.0817,6.0731,6.0635,6.0506,6.0466,6.0466,6.0466,6.0466,6.0466,6.0466,6.0466,6.0466,6.0466,6.0466,6.0453,6.0453,6.0464,6.045,6.0398,6.0422,6.0422,6.0422,6.0422,6.0422,6.0422,6.0422,6.0422,6.0422,6.0422,6.0422,6.0422,6.0422,6.0422,6.0422,6.0981,6.1363,6.1363,6.2013,6.2395,6.2395,6.2395,6.2471,6.2662,6.2662,6.2768,6.3006,6.291,6.2797,6.2618,6.1262,6.0533,6.0408,6.1,6.1315,5.0231,5.0642,5.0929,5.0906,5.0882,0.0,0.0,5.1722,5.282,5.3552,5.5028,5.6449,5.7332,5.8117,5.8553,5.8421,5.9774,6.1141,6.1972,6.3574,6.4856,6.5388,6.5527,6.5663,6.5808,6.5782,6.5653,6.5329,6.3825,6.2926,6.3003,6.1819,6.1156,6.1181,6.1283,6.126,6.1191,6.0983,6.0931,6.0955,6.0973,6.105,6.1125,6.132,6.1369,6.1313,6.1213,6.1131,6.1041,6.0933,6.0882,6.0882,6.0882,6.0882,6.0882,6.0882,6.0867,6.0777,6.0683,6.0623,6.052,6.0412,6.0422,6.0422,6.0422,6.0422,6.0422,6.0422,6.0422,6.0422,6.0422,6.0422,6.0422,6.0422,6.0422,6.0422,6.0422,6.0422,6.0422,6.0422,6.0422,6.0422,6.0422,6.0422,6.0422,6.0422,6.0422,6.0422,6.0422,6.0422,6.0561,6.0943,6.1363,6.1784,6.2204,6.2662,6.2892,6.2892,6.2892,6.3083,6.3541,6.3541,6.3571,6.36,6.3643,6.3427,6.3006,6.2164,6.1701,6.1669,6.2002,6.2094,5.0862,5.1016,5.1012,5.0914,5.0898,5.0882,0.0,0.0,0.0,5.3244,5.5034,5.6603,5.6795,5.728,5.7662,5.7531,5.8859,5.9911,5.9936,6.1941,6.3791,6.4854,6.5184,6.539,6.5552,6.5427,6.5457,6.5731,6.4265,6.3395,6.346,6.2035,6.1167,6.1077,6.1205,6.1244,6.1164,6.1031,6.0963,6.0976,6.0963,6.1012,6.1109,6.1205,6.1229,6.1148,6.1041,6.0943,6.0888,6.0716,6.0634,6.0572,6.0673,6.071,6.071,6.071,6.0685,6.0623,6.0559,6.0545,6.0453,6.0436,6.0422,6.0422,6.0422,6.0422,6.0422,6.0422,6.0422,6.0422,6.0422,6.0422,6.0422,6.0422,6.0422,6.0422,6.0422,6.0422,6.0422,6.0422,6.0422,6.0422,6.0422,6.0537,6.0637,6.0637,6.0752,6.0867,6.0867,6.0867,6.1134,6.1784,6.2013,6.2395,6.3083,6.3312,6.3388,6.3388,6.3388,6.3694,6.4397,6.442,6.442,6.442,6.442,6.4076,6.3359,6.3359,6.3221,6.2877,6.2979,6.294,5.1064,5.1088,5.1043,5.0929,5.0898,5.0898,5.089,0.0,5.2553,5.3318,0.0,5.5281,5.5977,0.0,0.0,5.6074,5.7385,5.8649,5.9243,6.0811,6.2486,6.397,6.4731,6.522,6.539,6.4776,6.4695,6.5545,6.4129,6.3245,6.3306,6.2421,6.1604,6.0951,6.106,6.1079,6.1022,6.0933,6.091,6.0922,6.091,6.0933,6.1022,6.1164,6.1182,6.1089,6.0969,6.0861,6.0793,6.066,6.0559,6.0531,6.0439,6.0464,6.0464,6.0464,6.0425,6.0412,6.045,6.0436,6.0422,6.0422,6.0422,6.0422,6.0422,6.0422,6.0422,6.0422,6.0422,6.0422,6.0422,6.0422,6.0422,6.0422,6.0422,6.0422,6.0422,6.0422,6.0422,6.0422,6.0422,6.0422,6.0422,6.0981,6.1478,6.1478,6.2128,6.2624,6.2624,6.2624,6.2662,6.2739,6.3427,6.3938,6.4038,6.4726,6.5108,6.5108,6.5108,6.5146,6.5261,6.5261,6.5261,6.5261,6.5261,6.5192,6.5023,6.5023,6.4306,6.2915,6.3489,6.3753,5.1187,5.1176,5.1125,5.1024,5.1037,5.1153,5.1657,5.2419,5.3257,5.4126,0.0,0.0,0.0,0.0,0.0,0.0,5.7265,5.8459,5.8665,6.0544,6.2245,6.3131,6.3496,6.366,6.3682,6.387,6.4001,6.3879,6.3346,6.2818,6.2347,6.1964,6.1441,6.0697,6.0811,6.0867,6.0811,6.0823,6.0789,6.0769,6.0789,6.0834,6.0905,6.1032,6.1051,6.0969,6.0834,6.0769,6.066,6.052,6.0491,6.0464,6.0422,6.0422,6.0422,6.0422,6.0422,6.0422,6.0422,6.0422,6.0422,6.0422,6.0422,6.0422,6.0422,6.0422,6.0499,6.0943,6.1096,6.1211,6.1707,6.1478,6.1096,6.1096,6.0752,6.0422,6.0422,6.0752,6.1096,6.1096,6.1516,6.186,6.186,6.1707,6.1784,6.228,6.2662,6.2892,6.2892,6.2892,6.3083,6.3579,6.3962,6.4382,6.484,6.5222,6.5413,6.5413,6.5413,6.5413,6.5413,6.5413,6.5413,6.5413,6.5368,6.5321,6.529,6.528,6.4899,6.4244,6.4459,6.4546,5.1235,5.1242,5.1199,5.1157,5.1297,5.1652,5.228,5.3225,5.4239,5.508,5.5952,0.0,0.0,0.0,5.6769,5.636,0.0,5.8526,5.8423,6.0138,6.1678,6.24,6.2742,6.2813,6.2509,6.3139,6.3296,6.2718,6.2803,6.251,6.1659,6.185,6.1548,6.0571,6.0647,6.0695,6.0697,6.0683,6.0671,6.066,6.0671,6.0707,6.0793,6.0941,6.0951,6.0911,6.0754,6.0659,6.0572,6.0477,6.0422,6.0422,6.0422,6.0422,6.0422,6.0422,6.0422,6.0422,6.0422,6.0422,6.0422,6.0422,6.0422,6.046,6.0637,6.0714,6.0905,6.1707,6.1975,6.2089,6.2739,6.2433,6.1975,6.1975,6.1516,6.1096,6.1096,6.1554,6.1975,6.1975,6.2471,6.2968,6.3236,6.2739,6.2548,6.3159,6.3427,6.3579,6.3579,6.3579,6.3847,6.4458,6.4535,6.4764,6.5337,6.5413,6.5413,6.5413,6.5413,6.5413,6.5413,6.5413,6.5398,6.5383,6.5321,6.5258,6.521,6.5161,6.5128,6.5133,6.5044,6.4989,5.1319,5.1302,5.1282,5.1218,5.1842,5.2444,5.2483,5.3752,5.5195,5.6008,5.6861,5.7709,5.8483,5.8622,5.8351,5.7498,5.8118,0.0,0.0,5.942,6.046,6.1759,6.3068,6.3508,6.2671,6.2633,6.268,6.2811,6.2848,6.2538,6.1729,6.2508,6.227,6.0724,6.0697,6.0697,6.0697,6.0623,6.0585,6.0585,6.0585,6.066,6.0781,6.0888,6.0911,6.09,6.0746,6.0648,6.0572,6.0477,6.0422,6.0422,6.0422,6.0422,6.0422,6.0422,6.0422,6.0422,6.0422,6.0422,6.0422,6.0422,6.0422,6.0561,6.1325,6.1554,6.1745,6.2624,6.2853,6.2853,6.2892,6.2892,6.2853,6.2853,6.2853,6.2815,6.2815,6.2853,6.2853,6.2853,6.2892,6.3159,6.4,6.4129,6.4129,6.4167,6.4802,6.5337,6.5337,6.5337,6.5337,6.5375,6.5375,6.5375,6.5413,6.5413,6.5413,6.5413,6.5413,6.5413,6.5413,6.5413,6.5383,6.529,6.529,6.521,6.5006,6.4989,6.4993,6.4888,6.4993,6.4989,5.207,5.2225,5.2338,5.2868,5.3215,5.357,5.4154,5.5155,5.6218,5.7013,5.7878,5.8576,5.8798,5.8823,5.8739,5.8362,5.9054,5.9636,0.0,6.0335,6.0965,6.1341,6.1492,6.144,6.11,6.1575,6.166,6.1171,6.1702,6.1697,6.0939,6.1761,6.1799,6.0736,6.0695,6.0671,6.0623,6.0506,6.0491,6.0491,6.0491,6.0493,6.0597,6.0707,6.0754,6.0757,6.0719,6.0647,6.0572,6.0477,6.0422,6.0422,6.0422,6.0714,6.1172,6.1172,6.1172,6.1287,6.186,6.2051,6.2051,6.2051,6.2051,6.2128,6.2395,6.2471,6.2624,6.3503,6.3703,6.3772,6.4405,6.4069,6.3657,6.3717,6.3312,6.2892,6.2892,6.335,6.377,6.377,6.4191,6.4649,6.4955,6.4993,6.4993,6.4993,6.5222,6.5413,6.5413,6.5413,6.5413,6.5413,6.5413,6.5413,6.5413,6.5413,6.5413,6.5413,6.5413,6.5413,6.5413,6.5352,6.5321,6.529,6.5177,6.5095,6.4989,6.4958,6.4924,6.4888,6.4924,6.4941,5.2531,5.2926,5.328,5.3828,5.418,5.4648,5.5508,5.6365,5.7292,5.8395,5.9072,5.9545,5.9776,5.9827,5.9727,5.9374,5.9756,6.0145,0.0,6.0637,6.1033,6.1205,6.1074,6.0815,6.0494,6.1138,6.1258,6.0485,6.1162,6.1333,6.0597,6.1452,6.1601,6.0796,6.0754,6.0822,6.1083,6.0912,6.0981,6.1287,6.0981,6.087,6.0901,6.0763,6.0647,6.066,6.0659,6.061,6.0571,6.077,6.0828,6.0867,6.1172,6.1593,6.2013,6.1707,6.1784,6.2128,6.2701,6.2892,6.2892,6.2892,6.2892,6.2968,6.3274,6.335,6.3541,6.4352,6.4535,6.4603,6.5168,6.4886,6.4466,6.4566,6.4176,6.3809,6.3809,6.4229,6.4611,6.4611,6.5031,6.5413,6.5413,6.5413,6.5413,6.5413,6.5413,6.5413,6.5413,6.5383,6.5383,6.5413,6.5383,6.5383,6.5413,6.5413,6.5413,6.5413,6.5413,6.5398,6.5368,6.5321,6.5258,6.5194,6.5078,6.4972,6.4976,6.4924,6.4888,6.4888,6.4888,6.4888]}]]